[[{"header":{"parameterUnit":"m.s-1","parameterCategory":1,"la1":31.0,"la2":29.5877,"lo1":-88.7671,"lo2":-86.6584,"dy":0.0162,"dx":0.0185,"nx":115,"ny":88,"refTime":"2026-03-14T00:00:00:Z","depth":0,"parameterNumber":2,"parameterNumberName":"U-component_of_WINDS"},"data":[0.0,0.0,0.0,0.0,0.0,0.0,0.0,0.0,0.0,0.0,0.0,0.0,0.0,0.0,0.0,0.0,0.0,0.0,0.0,0.0,0.0,0.0,0.0,0.0,0.0,0.0,0.0,0.0,0.0,0.0,0.0,0.0,0.0,0.0,0.0,0.0,0.0,0.0,0.0,0.0,0.0,0.0,0.0,0.0,0.0,0.0,0.0,0.0,0.0,0.0,0.0,0.0,0.0,0.0,0.0,0.0,0.0,0.0,0.0,0.0,0.0,0.0,0.0,0.0,0.0,0.0,0.0,0.0,0.0,0.0,0.0,0.0,0.0,0.0,0.0,0.0,0.0,0.0,0.0,0.0,0.0,0.0,0.0,0.0,0.0,0.0,0.0,0.0,0.0,0.0,0.0,0.0,0.0,0.0,0.0,0.0,0.0,0.0,0.0,0.0,0.0,0.0,0.0,0.0,0.0,0.0,0.0,0.0,0.0,0.0,0.0,0.0,0.0,0.0,0.0,0.0,0.0,0.0,0.0,0.0,0.0,0.0,0.0,0.0,0.0,0.0,0.0,0.0,0.0,0.0,0.0,0.0,0.0,0.0,0.0,0.0,0.0,0.0,0.0,0.0,0.0,0.0,0.0,0.0,0.0,0.0,0.0,0.0,0.0,0.0,0.0,0.0,0.0,0.0,0.0,0.0,0.0,0.0,0.0,0.0,0.0,0.0,0.0,0.0,0.0,0.0,0.0,0.0,0.0,0.0,0.0,0.0,0.0,0.0,0.0,0.0,0.0,0.0,0.0,0.0,0.0,0.0,0.0,0.0,0.0,0.0,0.0,0.0,0.0,0.0,0.0,0.0,0.0,0.0,0.0,0.0,0.0,0.0,0.0,0.0,0.0,0.0,0.0,0.0,0.0,0.0,0.0,0.0,0.0,0.0,0.0,0.0,0.0,0.0,0.0,0.0,0.0,0.0,0.0,0.0,0.0,0.0,0.0,0.0,0.0,0.0,0.0,0.0,0.0,0.0,0.0,0.0,0.0,0.0,0.0,0.0,0.0,0.0,0.0,0.0,0.0,0.0,0.0,0.0,0.0,0.0,0.0,0.0,0.0,0.0,0.0,0.0,0.0,0.0,0.0,0.0,0.0,0.0,0.0,0.0,0.0,0.0,0.0,0.0,0.0,0.0,0.0,0.0,0.0,0.0,0.0,0.0,0.0,0.0,0.0,0.0,0.0,0.0,0.0,0.0,0.0,0.0,0.0,0.0,0.0,0.0,0.0,0.0,0.0,0.0,0.0,0.0,0.0,0.0,0.0,0.0,0.0,0.0,0.0,0.0,0.0,0.0,0.0,0.0,0.0,0.0,0.0,0.0,0.0,0.0,0.0,0.0,0.0,0.0,0.0,0.0,0.0,0.0,0.0,0.0,0.0,0.0,0.0,0.0,0.0,0.0,0.0,0.0,0.0,0.0,0.0,0.0,0.0,0.0,0.0,0.0,0.0,0.0,0.0,0.0,0.0,0.0,0.0,0.0,0.0,0.0,0.0,0.0,0.0,0.0,0.0,0.0,0.0,0.0,0.0,0.0,0.0,0.0,0.0,0.0,0.0,0.0,0.0,0.0,0.0,0.0,0.0,0.0,0.0,0.0,0.0,0.0,0.0,0.0,0.0,0.0,0.0,0.0,0.0,0.0,0.0,0.0,0.0,0.0,0.0,0.0,0.0,0.0,0.0,0.0,0.0,0.0,0.0,0.0,0.0,0.0,0.0,0.0,0.0,0.0,0.0,0.0,0.0,0.0,0.0,0.0,0.0,0.0,0.0,0.0,0.0,0.0,0.0,0.0,0.0,0.0,0.0,0.0,0.0,0.0,0.0,0.0,0.0,0.0,0.0,0.0,0.0,0.0,0.0,0.0,0.0,0.0,0.0,0.0,0.0,0.0,0.0,0.0,0.0,0.0,0.0,0.0,0.0,0.0,0.0,0.0,0.0,0.0,0.0,0.0,0.0,0.0,0.0,0.0,0.0,0.0,0.0,0.0,0.0,0.0,0.0,0.0,0.0,0.0,0.0,0.0,0.0,0.0,0.0,0.0,0.0,0.0,0.0,0.0,0.0,0.0,0.0,0.0,0.0,0.0,0.0,0.0,0.0,0.0,0.0,0.0,0.0,0.0,0.0,0.0,0.0,0.0,0.0,0.0,0.0,0.0,0.0,0.0,0.0,0.0,0.0,0.0,0.0,0.0,0.0,0.0,0.0,0.0,0.0,0.0,0.0,0.0,0.0,0.0,0.0,0.0,0.0,0.0,0.0,0.0,0.0,0.0,0.0,0.0,0.0,0.0,0.0,0.0,0.0,0.0,0.0,0.0,0.0,0.0,0.0,0.0,0.0,0.0,0.0,0.0,0.0,0.0,0.0,0.0,0.0,0.0,0.0,0.0,0.0,0.0,0.0,0.0,0.0,0.0,0.0,0.0,0.0,0.0,0.0,0.0,0.0,0.0,0.0,0.0,0.0,0.0,0.0,0.0,0.0,0.0,0.0,0.0,0.0,0.0,0.0,0.0,0.0,0.0,0.0,0.0,0.0,0.0,0.0,0.0,0.0,0.0,0.0,0.0,0.0,0.0,0.0,0.0,0.0,0.0,0.0,0.0,0.0,0.0,0.0,0.0,0.0,0.0,0.0,0.0,0.0,0.0,0.0,0.0,0.0,0.0,0.0,0.0,0.0,0.0,0.0,0.0,0.0,0.0,0.0,0.0,0.0,0.0,0.0,0.0,0.0,0.0,0.0,0.0,0.0,0.0,0.0,0.0,0.0,0.0,0.0,0.0,0.0,0.0,0.0,0.0,0.0,0.0,0.0,0.0,0.0,0.0,0.0,0.0,0.0,0.0,0.0,0.0,0.0,0.0,0.0,0.0,0.0,0.0,0.0,0.0,0.0,0.0,0.0,0.0,0.0,0.0,0.0,0.0,0.0,0.0,0.0,0.0,0.0,0.0,0.0,0.0,0.0,0.0,0.0,0.0,0.0,0.0,0.0,0.0,0.0,0.0,0.0,0.0,0.0,0.0,0.0,0.0,0.0,0.0,0.0,0.0,0.0,0.0,0.0,0.0,0.0,0.0,0.0,0.0,0.0,0.0,0.0,0.0,0.0,0.0,0.0,0.0,0.0,0.0,0.0,0.0,0.0,0.0,0.0,0.0,0.0,0.0,0.0,0.0,0.0,0.0,0.0,0.0,0.0,0.0,0.0,0.0,0.0,0.0,0.0,0.0,0.0,0.0,0.0,0.0,0.0,0.0,0.0,0.0,0.0,0.0,0.0,0.0,0.0,0.0,0.0,0.0,0.0,0.0,0.0,0.0,0.0,0.0,0.0,0.0,0.0,0.0,0.0,0.0,0.0,0.0,0.0,0.0,0.0,0.0,0.0,0.0,0.0,0.0,0.0,0.0,0.0,0.0,0.0,0.0,0.0,0.0,0.0,0.0,0.0,0.0,0.0,0.0,0.0,0.0,0.0,0.0,0.0,0.0,0.0,0.0,0.0,0.0,0.0,0.0,0.0,0.0,0.0,0.0,0.0,0.0,0.0,0.0,0.0,0.0,0.0,0.0,0.0,0.0,0.0,0.0,0.0,0.0,0.0,0.0,0.0,0.0,0.0,0.0,0.0,0.0,0.0,0.0,0.0,0.0,0.0,0.0,0.0,0.0,0.0,0.0,0.0,0.0,0.0,0.0,0.0,0.0,0.0,0.0,0.0,0.0,0.0,0.0,0.0,0.0,0.0,0.0,0.0,0.0,0.0,0.0,0.0,0.0,0.0,0.0,0.0,0.0,0.0,0.0,0.0,0.0,0.0,0.0,0.0,0.0,0.0,0.0,0.0,0.0,0.0,0.0,0.0,0.0,0.0,0.0,0.0,0.0,0.0,0.0,0.0,0.0,0.0,0.0,0.0,0.0,0.0,0.0,0.0,0.0,0.0,0.0,0.0,0.0,0.0,0.0,0.0,0.0,0.0,0.0,0.0,0.0,0.0,0.0,0.0,0.0,0.0,0.0,0.0,0.0,0.0,0.0,0.0,0.0,0.0,0.0,0.0,0.0,0.0,0.0,0.0,0.0,0.0,0.0,0.0,0.0,0.0,0.0,0.0,0.0,0.0,0.0,0.0,0.0,0.0,0.0,0.0,0.0,0.0,0.0,0.0,0.0,0.0,0.0,0.0,0.0,0.0,0.0,0.0,0.0,0.0,0.0,0.0,0.0,0.0,0.0,0.0,0.0,0.0,0.0,0.0,0.0,5.6458,0.0,0.0,0.0,0.0,0.0,0.0,0.0,0.0,0.0,0.0,0.0,0.0,0.0,0.0,0.0,0.0,0.0,0.0,0.0,0.0,0.0,0.0,0.0,0.0,0.0,0.0,0.0,0.0,0.0,0.0,0.0,0.0,0.0,0.0,0.0,0.0,0.0,0.0,0.0,0.0,0.0,0.0,0.0,0.0,0.0,0.0,0.0,0.0,0.0,0.0,0.0,0.0,0.0,0.0,0.0,0.0,0.0,0.0,0.0,0.0,0.0,0.0,0.0,0.0,0.0,0.0,0.0,0.0,0.0,0.0,0.0,0.0,0.0,0.0,0.0,0.0,0.0,0.0,0.0,0.0,0.0,0.0,0.0,0.0,0.0,0.0,0.0,0.0,0.0,0.0,0.0,0.0,0.0,0.0,0.0,0.0,0.0,0.0,0.0,0.0,0.0,0.0,0.0,0.0,0.0,0.0,0.0,0.0,0.0,0.0,6.1424,6.111,6.0326,5.8967,5.6876,0.0,0.0,0.0,0.0,0.0,0.0,0.0,0.0,0.0,0.0,0.0,0.0,0.0,0.0,0.0,0.0,0.0,0.0,0.0,0.0,0.0,0.0,0.0,0.0,0.0,0.0,0.0,0.0,0.0,0.0,0.0,0.0,0.0,0.0,0.0,0.0,0.0,0.0,0.0,0.0,0.0,0.0,0.0,0.0,0.0,0.0,0.0,0.0,0.0,0.0,0.0,0.0,0.0,0.0,0.0,0.0,0.0,0.0,0.0,0.0,0.0,0.0,0.0,0.0,0.0,0.0,0.0,0.0,0.0,0.0,0.0,0.0,0.0,0.0,0.0,0.0,0.0,0.0,0.0,0.0,0.0,0.0,0.0,0.0,0.0,0.0,0.0,0.0,0.0,0.0,0.0,0.0,0.0,0.0,0.0,0.0,0.0,0.0,0.0,0.0,0.0,0.0,0.0,0.0,0.0,0.0,0.0,0.0,0.0,0.0,0.0,0.0,6.1215,5.9699,5.6529,0.0,0.0,0.0,0.0,0.0,0.0,0.0,0.0,0.0,0.0,0.0,0.0,0.0,0.0,0.0,0.0,0.0,0.0,0.0,0.0,0.0,0.0,0.0,0.0,0.0,0.0,0.0,0.0,0.0,0.0,0.0,0.0,0.0,0.0,0.0,0.0,0.0,0.0,0.0,0.0,0.0,0.0,0.0,0.0,0.0,0.0,0.0,0.0,0.0,0.0,0.0,0.0,0.0,0.0,0.0,0.0,0.0,0.0,0.0,0.0,0.0,0.0,0.0,0.0,0.0,0.0,0.0,0.0,0.0,0.0,0.0,0.0,0.0,0.0,0.0,0.0,0.0,0.0,0.0,0.0,0.0,0.0,0.0,0.0,0.0,0.0,0.0,0.0,0.0,0.0,0.0,0.0,0.0,0.0,0.0,0.0,0.0,0.0,0.0,0.0,0.0,0.0,0.0,0.0,0.0,0.0,0.0,0.0,0.0,0.0,6.1947,6.1894,6.1372,0.0,5.565,0.0,0.0,0.0,0.0,0.0,0.0,0.0,0.0,0.0,0.0,0.0,0.0,0.0,0.0,0.0,0.0,0.0,0.0,0.0,0.0,0.0,0.0,0.0,0.0,0.0,0.0,0.0,0.0,0.0,0.0,0.0,0.0,0.0,0.0,0.0,0.0,0.0,0.0,0.0,0.0,0.0,0.0,0.0,0.0,0.0,0.0,0.0,0.0,0.0,0.0,0.0,0.0,0.0,0.0,0.0,0.0,0.0,0.0,0.0,0.0,0.0,0.0,0.0,0.0,0.0,0.0,0.0,0.0,0.0,0.0,0.0,0.0,0.0,0.0,0.0,0.0,0.0,0.0,0.0,0.0,0.0,0.0,0.0,0.0,0.0,0.0,0.0,0.0,0.0,0.0,0.0,0.0,0.0,0.0,0.0,0.0,0.0,0.0,0.0,0.0,0.0,0.0,0.0,0.0,0.0,0.0,0.0,0.0,0.0,0.0,0.0,6.1947,6.0744,5.8772,0.0,0.0,0.0,0.0,0.0,0.0,0.0,0.0,0.0,0.0,0.0,0.0,0.0,0.0,0.0,0.0,0.0,0.0,0.0,0.0,0.0,0.0,0.0,0.0,0.0,0.0,0.0,0.0,0.0,0.0,0.0,0.0,0.0,0.0,0.0,0.0,0.0,0.0,0.0,0.0,0.0,0.0,0.0,0.0,0.0,0.0,0.0,0.0,0.0,0.0,0.0,0.0,0.0,0.0,0.0,0.0,0.0,0.0,0.0,0.0,0.0,0.0,0.0,0.0,0.0,0.0,0.0,0.0,0.0,0.0,0.0,0.0,0.0,0.0,0.0,0.0,0.0,0.0,0.0,0.0,0.0,0.0,0.0,0.0,0.0,0.0,0.0,0.0,0.0,0.0,0.0,0.0,0.0,0.0,0.0,0.0,0.0,0.0,0.0,0.0,0.0,0.0,0.0,0.0,0.0,0.0,0.0,0.0,0.0,0.0,6.1826,0.0,6.1633,6.0065,5.8094,5.5805,0.0,0.0,0.0,0.0,0.0,0.0,0.0,0.0,0.0,0.0,0.0,0.0,0.0,0.0,0.0,0.0,0.0,0.0,0.0,0.0,0.0,0.0,0.0,0.0,0.0,0.0,0.0,0.0,0.0,0.0,0.0,0.0,0.0,0.0,0.0,0.0,0.0,0.0,0.0,0.0,0.0,0.0,0.0,0.0,0.0,0.0,0.0,0.0,0.0,0.0,0.0,0.0,0.0,0.0,0.0,0.0,0.0,0.0,0.0,0.0,0.0,0.0,0.0,0.0,0.0,0.0,0.0,0.0,0.0,0.0,0.0,0.0,0.0,0.0,0.0,0.0,0.0,0.0,0.0,0.0,0.0,0.0,0.0,0.0,0.0,0.0,0.0,0.0,0.0,0.0,0.0,0.0,0.0,0.0,0.0,0.0,0.0,0.0,0.0,0.0,0.0,0.0,0.0,0.0,0.0,0.0,0.0,0.0,0.0,6.1258,6.1163,6.111,5.949,5.7224,0.0,0.0,0.0,0.0,0.0,0.0,0.0,0.0,0.0,0.0,0.0,0.0,0.0,0.0,0.0,0.0,0.0,0.0,0.0,0.0,0.0,0.0,0.0,0.0,0.0,0.0,0.0,0.0,0.0,0.0,0.0,0.0,0.0,0.0,0.0,0.0,0.0,0.0,0.0,0.0,0.0,0.0,0.0,0.0,0.0,0.0,0.0,0.0,0.0,0.0,0.0,0.0,0.0,0.0,0.0,0.0,0.0,0.0,0.0,0.0,0.0,0.0,0.0,0.0,0.0,0.0,0.0,0.0,0.0,0.0,0.0,0.0,0.0,0.0,0.0,0.0,0.0,0.0,0.0,0.0,0.0,0.0,0.0,0.0,0.0,0.0,0.0,0.0,0.0,0.0,0.0,0.0,0.0,0.0,0.0,0.0,0.0,0.0,0.0,0.0,0.0,0.0,0.0,0.0,0.0,0.0,0.0,0.0,0.0,6.0303,6.0378,6.0378,5.996,5.9019,5.7172,0.0,0.0,0.0,0.0,0.0,0.0,0.0,0.0,0.0,0.0,0.0,0.0,0.0,0.0,0.0,0.0,0.0,0.0,0.0,0.0,0.0,0.0,0.0,0.0,0.0,0.0,0.0,0.0,0.0,0.0,0.0,0.0,0.0,0.0,0.0,0.0,0.0,0.0,0.0,0.0,0.0,0.0,0.0,0.0,0.0,0.0,0.0,0.0,0.0,0.0,0.0,0.0,0.0,0.0,0.0,0.0,0.0,0.0,0.0,0.0,0.0,0.0,0.0,0.0,0.0,0.0,0.0,0.0,0.0,0.0,0.0,0.0,0.0,0.0,0.0,0.0,0.0,0.0,0.0,0.0,0.0,0.0,0.0,0.0,0.0,0.0,0.0,0.0,0.0,0.0,0.0,0.0,0.0,0.0,0.0,0.0,0.0,0.0,0.0,0.0,0.0,0.0,0.0,0.0,0.0,0.0,0.0,0.0,0.0,5.9647,0.0,6.0065,0.0,5.8706,5.686,0.0,0.0,0.0,0.0,0.0,0.0,0.0,0.0,0.0,0.0,0.0,0.0,0.0,0.0,0.0,0.0,0.0,0.0,0.0,0.0,0.0,0.0,0.0,0.0,0.0,0.0,0.0,0.0,0.0,0.0,0.0,0.0,0.0,0.0,0.0,0.0,0.0,0.0,0.0,0.0,0.0,0.0,0.0,0.0,0.0,0.0,0.0,0.0,0.0,0.0,0.0,0.0,0.0,0.0,0.0,0.0,0.0,0.0,0.0,0.0,0.0,0.0,0.0,0.0,0.0,0.0,0.0,0.0,0.0,0.0,0.0,0.0,0.0,0.0,0.0,0.0,0.0,0.0,0.0,0.0,0.0,0.0,0.0,0.0,0.0,0.0,0.0,0.0,0.0,0.0,0.0,0.0,0.0,0.0,0.0,0.0,0.0,0.0,0.0,0.0,0.0,0.0,0.0,0.0,0.0,0.0,0.0,0.0,6.0132,6.0222,6.0274,6.0326,6.0222,5.8601,5.634,0.0,0.0,0.0,0.0,0.0,0.0,0.0,0.0,0.0,0.0,0.0,0.0,0.0,0.0,0.0,0.0,0.0,0.0,0.0,0.0,0.0,0.0,0.0,0.0,0.0,0.0,0.0,0.0,0.0,0.0,0.0,0.0,0.0,0.0,0.0,0.0,0.0,0.0,0.0,0.0,0.0,0.0,0.0,0.0,0.0,0.0,0.0,0.0,0.0,0.0,0.0,0.0,0.0,0.0,0.0,0.0,0.0,0.0,0.0,0.0,0.0,0.0,0.0,0.0,0.0,0.0,0.0,0.0,0.0,0.0,0.0,0.0,0.0,0.0,0.0,0.0,0.0,0.0,0.0,0.0,0.0,0.0,0.0,0.0,0.0,0.0,0.0,0.0,0.0,0.0,0.0,0.0,0.0,0.0,0.0,0.0,0.0,0.0,0.0,0.0,0.0,0.0,0.0,0.0,0.0,0.0,0.0,0.0,0.0,6.0849,6.1633,6.1633,6.0849,5.9542,5.7276,0.0,0.0,0.0,0.0,0.0,0.0,0.0,0.0,0.0,0.0,0.0,0.0,0.0,0.0,0.0,0.0,0.0,0.0,0.0,0.0,0.0,0.0,0.0,0.0,0.0,0.0,0.0,0.0,0.0,0.0,0.0,0.0,0.0,0.0,0.0,0.0,0.0,0.0,0.0,0.0,0.0,0.0,0.0,0.0,0.0,0.0,0.0,0.0,0.0,0.0,0.0,0.0,0.0,0.0,0.0,0.0,0.0,0.0,0.0,0.0,0.0,0.0,0.0,0.0,0.0,0.0,0.0,0.0,0.0,0.0,0.0,0.0,0.0,0.0,0.0,0.0,0.0,0.0,0.0,0.0,0.0,0.0,0.0,0.0,0.0,0.0,0.0,0.0,0.0,0.0,0.0,0.0,0.0,0.0,0.0,0.0,0.0,0.0,0.0,0.0,0.0,0.0,0.0,0.0,0.0,0.0,0.0,0.0,0.0,6.456,6.4717,6.4299,6.3358,6.179,5.9108,5.5267,0.0,0.0,0.0,0.0,0.0,0.0,0.0,0.0,0.0,0.0,0.0,0.0,0.0,0.0,0.0,0.0,0.0,0.0,0.0,0.0,0.0,0.0,0.0,0.0,0.0,0.0,0.0,0.0,0.0,0.0,0.0,0.0,0.0,0.0,0.0,0.0,0.0,0.0,0.0,0.0,0.0,0.0,0.0,0.0,0.0,0.0,0.0,0.0,0.0,0.0,0.0,0.0,0.0,0.0,0.0,0.0,0.0,0.0,0.0,0.0,0.0,0.0,0.0,0.0,0.0,0.0,0.0,0.0,0.0,0.0,0.0,0.0,0.0,0.0,0.0,0.0,0.0,0.0,0.0,0.0,0.0,0.0,0.0,0.0,0.0,0.0,0.0,0.0,0.0,0.0,0.0,0.0,0.0,0.0,0.0,0.0,0.0,0.0,0.0,0.0,0.0,0.0,0.0,0.0,0.0,0.0,0.0,0.0,7.0886,6.9527,6.8429,6.754,6.524,6.1858,0.0,0.0,0.0,0.0,0.0,0.0,0.0,0.0,0.0,0.0,0.0,0.0,0.0,0.0,0.0,0.0,0.0,0.0,0.0,0.0,0.0,0.0,0.0,0.0,0.0,0.0,0.0,0.0,0.0,0.0,0.0,0.0,0.0,0.0,0.0,0.0,0.0,0.0,0.0,0.0,0.0,0.0,0.0,0.0,0.0,0.0,0.0,0.0,0.0,0.0,0.0,0.0,0.0,0.0,0.0,0.0,0.0,0.0,0.0,0.0,0.0,0.0,0.0,0.0,0.0,0.0,0.0,0.0,0.0,0.0,0.0,0.0,0.0,0.0,0.0,0.0,0.0,0.0,0.0,0.0,0.0,0.0,0.0,0.0,0.0,0.0,0.0,0.0,0.0,0.0,0.0,0.0,0.0,0.0,0.0,0.0,0.0,0.0,0.0,0.0,0.0,0.0,0.0,0.0,0.0,0.0,0.0,0.0,0.0,7.5581,7.7241,7.6479,7.2925,6.9033,6.4859,0.0,0.0,0.0,0.0,0.0,0.0,0.0,0.0,0.0,0.0,0.0,0.0,0.0,0.0,0.0,0.0,0.0,0.0,0.0,0.0,0.0,0.0,0.0,0.0,0.0,0.0,0.0,0.0,0.0,0.0,0.0,0.0,0.0,0.0,0.0,0.0,0.0,0.0,0.0,0.0,0.0,0.0,0.0,0.0,0.0,0.0,0.0,0.0,0.0,0.0,0.0,0.0,0.0,0.0,0.0,0.0,0.0,0.0,0.0,0.0,0.0,0.0,0.0,0.0,0.0,0.0,0.0,0.0,0.0,0.0,0.0,0.0,0.0,0.0,0.0,0.0,0.0,0.0,0.0,0.0,0.0,0.0,0.0,0.0,0.0,0.0,0.0,0.0,0.0,0.0,0.0,0.0,0.0,0.0,0.0,0.0,0.0,0.0,0.0,0.0,0.0,0.0,0.0,0.0,0.0,0.0,0.0,0.0,7.3908,7.9623,8.2522,8.2953,8.0736,7.4391,6.8458,0.0,0.0,0.0,0.0,0.0,0.0,0.0,0.0,0.0,0.0,0.0,0.0,0.0,0.0,0.0,0.0,0.0,0.0,0.0,0.0,0.0,0.0,0.0,0.0,0.0,0.0,0.0,0.0,0.0,0.0,0.0,0.0,0.0,0.0,0.0,0.0,0.0,0.0,0.0,0.0,0.0,0.0,0.0,0.0,0.0,0.0,0.0,0.0,0.0,0.0,0.0,0.0,0.0,0.0,0.0,0.0,0.0,0.0,0.0,0.0,0.0,0.0,0.0,0.0,0.0,0.0,0.0,0.0,0.0,0.0,0.0,0.0,0.0,0.0,0.0,0.0,0.0,0.0,0.0,0.0,0.0,0.0,0.0,0.0,0.0,0.0,0.0,0.0,0.0,0.0,0.0,0.0,0.0,0.0,0.0,0.0,0.0,0.0,0.0,0.0,0.0,0.0,0.0,0.0,0.0,0.0,0.0,0.0,7.7269,8.3062,8.5989,8.7774,8.8618,8.0101,7.2193,0.0,0.0,0.0,0.0,0.0,0.0,0.0,0.0,0.0,0.0,0.0,0.0,0.0,0.0,0.0,0.0,0.0,0.0,0.0,0.0,0.0,0.0,0.0,0.0,0.0,0.0,0.0,0.0,0.0,0.0,0.0,0.0,0.0,0.0,0.0,0.0,0.0,0.0,0.0,0.0,0.0,0.0,0.0,0.0,0.0,0.0,0.0,0.0,0.0,0.0,0.0,0.0,0.0,0.0,0.0,0.0,0.0,0.0,0.0,0.0,0.0,0.0,0.0,0.0,0.0,0.0,0.0,0.0,0.0,0.0,0.0,0.0,0.0,0.0,0.0,0.0,0.0,0.0,0.0,0.0,0.0,0.0,0.0,0.0,0.0,0.0,0.0,0.0,0.0,0.0,0.0,0.0,0.0,0.0,0.0,0.0,0.0,0.0,0.0,0.0,0.0,0.0,0.0,0.0,0.0,0.0,0.0,0.0,8.0035,8.6635,8.9144,9.0341,9.0624,8.2403,7.4695,0.0,0.0,0.0,0.0,0.0,0.0,0.0,0.0,0.0,0.0,0.0,0.0,0.0,0.0,0.0,0.0,0.0,0.0,0.0,0.0,0.0,0.0,0.0,0.0,0.0,0.0,0.0,0.0,0.0,0.0,0.0,0.0,0.0,0.0,0.0,0.0,0.0,0.0,0.0,0.0,0.0,0.0,0.0,0.0,0.0,0.0,0.0,0.0,3.9376,0.0,0.0,0.0,0.0,0.0,0.0,0.0,0.0,0.0,0.0,0.0,0.0,0.0,0.0,0.0,0.0,0.0,0.0,0.0,0.0,0.0,0.0,0.0,0.0,0.0,0.0,0.0,0.0,0.0,0.0,0.0,0.0,0.0,0.0,0.0,0.0,0.0,0.0,0.0,0.0,0.0,0.0,0.0,0.0,0.0,0.0,0.0,0.0,0.0,0.0,0.0,0.0,0.0,0.0,0.0,0.0,0.0,0.0,0.0,8.268,8.8403,9.0865,9.1782,9.1452,8.4478,7.7375,0.0,0.0,0.0,0.0,0.0,0.0,0.0,0.0,0.0,0.0,0.0,0.0,0.0,0.0,0.0,0.0,0.0,0.0,0.0,0.0,0.0,0.0,0.0,0.0,0.0,0.0,0.0,0.0,0.0,0.0,0.0,0.0,0.0,0.0,0.0,0.0,0.0,0.0,0.0,0.0,0.0,0.0,0.0,0.0,0.0,0.0,0.0,0.0,0.0,0.0,0.0,0.0,0.0,0.0,0.0,0.0,0.0,0.0,0.0,0.0,0.0,0.0,0.0,0.0,0.0,0.0,0.0,0.0,0.0,0.0,0.0,0.0,0.0,0.0,0.0,0.0,0.0,0.0,0.0,0.0,0.0,0.0,0.0,0.0,0.0,0.0,0.0,0.0,0.0,0.0,0.0,0.0,0.0,0.0,0.0,0.0,0.0,0.0,0.0,0.0,0.0,0.0,0.0,0.0,0.0,0.0,0.0,7.8901,8.5154,8.9723,9.2027,9.2663,9.1715,8.5813,7.9137,7.1608,0.0,0.0,0.0,0.0,0.0,0.0,0.0,0.0,0.0,0.0,0.0,0.0,0.0,0.0,0.0,0.0,0.0,0.0,0.0,0.0,0.0,0.0,0.0,0.0,0.0,0.0,0.0,0.0,0.0,0.0,0.0,0.0,0.0,0.0,0.0,0.0,0.0,0.0,3.8511,4.0565,0.0,0.0,0.0,0.0,0.0,0.0,0.0,0.0,3.9465,0.0,0.0,0.0,0.0,0.0,0.0,0.0,0.0,0.0,0.0,0.0,0.0,0.0,0.0,0.0,0.0,0.0,0.0,0.0,0.0,0.0,0.0,0.0,0.0,0.0,0.0,0.0,0.0,0.0,0.0,0.0,0.0,0.0,0.0,0.0,0.0,0.0,0.0,0.0,0.0,0.0,0.0,0.0,0.0,0.0,0.0,0.0,0.0,0.0,0.0,0.0,0.0,0.0,0.0,0.0,0.0,7.3552,7.9918,8.6044,9.1378,9.2798,9.2559,9.0468,8.4647,7.8236,7.159,0.0,0.0,0.0,0.0,0.0,0.0,0.0,0.0,0.0,0.0,0.0,0.0,0.0,0.0,0.0,0.0,0.0,0.0,0.0,0.0,0.0,0.0,0.0,0.0,0.0,0.0,0.0,0.0,0.0,0.0,0.0,0.0,0.0,0.0,0.0,0.0,0.0,0.0,0.0,4.2509,4.3206,0.0,0.0,0.0,0.0,0.0,0.0,0.0,0.0,3.9524,0.0,0.0,0.0,0.0,0.0,0.0,0.0,0.0,0.0,0.0,0.0,0.0,0.0,0.0,0.0,0.0,0.0,0.0,0.0,0.0,0.0,0.0,0.0,0.0,0.0,0.0,0.0,0.0,0.0,0.0,0.0,0.0,0.0,0.0,0.0,0.0,0.0,0.0,0.0,0.0,0.0,0.0,0.0,0.0,0.0,0.0,0.0,0.0,0.0,0.0,0.0,0.0,0.0,0.0,0.0,7.4911,8.1682,8.727,9.1711,9.2884,9.2036,8.9237,8.3883,7.7996,0.0,0.0,0.0,0.0,0.0,0.0,0.0,0.0,0.0,0.0,0.0,0.0,0.0,0.0,0.0,0.0,0.0,0.0,0.0,0.0,0.0,0.0,0.0,0.0,0.0,0.0,0.0,0.0,0.0,0.0,0.0,0.0,0.0,0.0,0.0,0.0,0.0,0.0,0.0,0.0,4.3463,4.427,4.4673,0.0,0.0,0.0,0.0,0.0,0.0,4.1774,4.0368,0.0,0.0,0.0,0.0,0.0,0.0,0.0,0.0,0.0,0.0,0.0,0.0,0.0,0.0,0.0,0.0,0.0,0.0,0.0,0.0,0.0,0.0,0.0,0.0,0.0,0.0,0.0,0.0,0.0,0.0,0.0,0.0,0.0,0.0,0.0,0.0,0.0,0.0,0.0,0.0,0.0,0.0,0.0,0.0,0.0,0.0,0.0,0.0,0.0,0.0,0.0,0.0,0.0,0.0,0.0,7.6218,8.3138,8.8209,9.1612,9.2501,9.1237,8.7837,8.3032,7.7522,0.0,0.0,0.0,0.0,0.0,0.0,0.0,0.0,0.0,0.0,0.0,0.0,0.0,0.0,0.0,0.0,0.0,0.0,0.0,0.0,0.0,0.0,0.0,0.0,0.0,0.0,0.0,0.0,0.0,0.0,0.0,0.0,0.0,0.0,0.0,0.0,0.0,0.0,0.0,0.0,0.0,4.5443,4.614,4.5773,0.0,0.0,0.0,0.0,4.3976,4.3361,0.0,0.0,0.0,0.0,0.0,0.0,0.0,0.0,0.0,0.0,0.0,0.0,0.0,0.0,0.0,0.0,0.0,0.0,0.0,0.0,0.0,0.0,0.0,0.0,0.0,0.0,0.0,0.0,0.0,0.0,0.0,0.0,0.0,0.0,0.0,0.0,0.0,0.0,0.0,0.0,0.0,0.0,0.0,0.0,0.0,0.0,0.0,0.0,0.0,0.0,0.0,0.0,0.0,0.0,0.0,0.0,7.7513,8.3079,8.7606,9.1279,9.1497,8.9681,8.5996,8.1224,7.5773,0.0,0.0,0.0,0.0,0.0,0.0,0.0,0.0,0.0,0.0,0.0,0.0,0.0,0.0,0.0,0.0,0.0,0.0,0.0,0.0,0.0,0.0,0.0,0.0,0.0,0.0,0.0,0.0,0.0,0.0,0.0,0.0,0.0,0.0,0.0,0.0,0.0,0.0,0.0,0.0,0.0,4.6984,4.7424,4.7717,4.7571,0.0,0.0,4.691,4.7571,4.6319,0.0,0.0,0.0,0.0,0.0,0.0,0.0,0.0,0.0,0.0,0.0,0.0,0.0,0.0,0.0,0.0,0.0,0.0,0.0,0.0,0.0,0.0,0.0,0.0,0.0,0.0,0.0,0.0,0.0,0.0,0.0,0.0,0.0,0.0,0.0,0.0,0.0,0.0,0.0,0.0,0.0,0.0,0.0,0.0,0.0,0.0,0.0,0.0,0.0,0.0,0.0,0.0,0.0,0.0,0.0,7.134,7.7845,8.3655,8.809,9.1103,9.1536,8.9817,8.5997,8.1587,7.6332,0.0,0.0,0.0,0.0,0.0,0.0,0.0,0.0,0.0,0.0,0.0,0.0,0.0,0.0,0.0,0.0,0.0,0.0,0.0,0.0,0.0,0.0,0.0,0.0,0.0,0.0,0.0,0.0,0.0,0.0,0.0,0.0,0.0,0.0,0.0,0.0,0.0,0.0,0.0,0.0,0.0,0.0,4.9221,4.9735,0.0,0.0,0.0,4.9955,5.0321,0.0,0.0,0.0,0.0,0.0,0.0,0.0,0.0,0.0,0.0,0.0,0.0,0.0,0.0,0.0,0.0,0.0,0.0,0.0,0.0,0.0,0.0,0.0,0.0,0.0,0.0,0.0,0.0,0.0,0.0,0.0,0.0,0.0,0.0,0.0,0.0,0.0,0.0,0.0,0.0,0.0,0.0,0.0,0.0,0.0,0.0,0.0,0.0,0.0,0.0,0.0,0.0,0.0,0.0,0.0,0.0,0.0,7.7984,8.4146,8.844,9.0784,9.1714,9.0195,8.6178,8.2027,0.0,0.0,0.0,0.0,0.0,0.0,0.0,0.0,0.0,0.0,0.0,0.0,0.0,0.0,0.0,0.0,0.0,0.0,0.0,0.0,0.0,0.0,0.0,0.0,0.0,0.0,0.0,3.301,0.0,0.0,0.0,0.0,0.0,0.0,0.0,0.0,0.0,0.0,0.0,0.0,0.0,0.0,4.9038,5.1055,5.1935,5.2375,0.0,0.0,5.2889,5.2962,5.1657,4.9296,0.0,0.0,0.0,0.0,0.0,0.0,0.0,0.0,0.0,0.0,0.0,0.0,0.0,0.0,0.0,0.0,0.0,0.0,0.0,0.0,0.0,0.0,0.0,0.0,0.0,0.0,0.0,0.0,0.0,0.0,0.0,0.0,0.0,0.0,0.0,0.0,0.0,0.0,0.0,0.0,0.0,0.0,0.0,0.0,0.0,0.0,0.0,0.0,0.0,0.0,0.0,0.0,0.0,0.0,0.0,7.8239,8.413,8.8173,9.0047,9.1276,9.0076,8.6178,8.2027,7.7054,0.0,0.0,0.0,0.0,0.0,0.0,0.0,0.0,0.0,0.0,0.0,0.0,0.0,0.0,0.0,0.0,0.0,0.0,0.0,0.0,0.0,0.0,0.0,0.0,0.0,0.0,0.0,0.0,0.0,0.0,0.0,0.0,0.0,0.0,0.0,0.0,0.0,0.0,0.0,0.0,0.0,5.0688,5.2669,5.4283,5.5273,0.0,0.0,5.542,5.5823,5.355,5.0359,4.639,0.0,0.0,0.0,0.0,0.0,0.0,0.0,0.0,0.0,0.0,0.0,0.0,0.0,0.0,0.0,0.0,0.0,0.0,0.0,0.0,0.0,0.0,0.0,0.0,0.0,0.0,0.0,0.0,0.0,0.0,0.0,0.0,0.0,0.0,0.0,0.0,0.0,0.0,0.0,0.0,0.0,0.0,0.0,0.0,0.0,0.0,0.0,0.0,0.0,0.0,0.0,0.0,0.0,7.1763,7.8118,8.4092,8.8269,9.0315,9.1803,9.0892,8.7604,8.3797,7.9074,0.0,0.0,0.0,0.0,0.0,0.0,0.0,0.0,0.0,0.0,0.0,0.0,0.0,0.0,0.0,0.0,0.0,0.0,0.0,0.0,0.0,0.0,0.0,0.0,0.0,0.0,0.0,0.0,3.7448,3.7448,3.7038,0.0,0.0,0.0,0.0,0.0,0.0,0.0,0.0,0.0,0.0,5.1752,5.4246,5.5786,0.0,0.0,5.6813,5.658,5.6747,5.4391,5.1105,4.6719,4.1722,0.0,0.0,0.0,0.0,0.0,0.0,0.0,0.0,0.0,0.0,0.0,0.0,0.0,0.0,0.0,0.0,0.0,0.0,0.0,0.0,0.0,0.0,0.0,0.0,0.0,0.0,0.0,0.0,0.0,0.0,0.0,0.0,0.0,0.0,0.0,0.0,0.0,0.0,0.0,0.0,0.0,0.0,0.0,0.0,0.0,0.0,0.0,0.0,0.0,0.0,0.0,0.0,7.1474,7.7668,8.3942,8.8357,9.0981,9.2331,9.1611,8.895,8.5472,8.095,0.0,0.0,0.0,0.0,0.0,0.0,0.0,0.0,0.0,0.0,0.0,0.0,0.0,0.0,0.0,0.0,0.0,0.0,0.0,0.0,0.0,0.0,0.0,0.0,0.0,0.0,0.0,0.0,3.8218,3.808,3.7631,0.0,0.0,0.0,0.0,0.0,0.0,0.0,0.0,0.0,0.0,5.2889,5.5676,5.7033,5.7804,5.795,5.773,5.7274,5.6492,5.3906,5.0732,4.6297,0.0,0.0,0.0,0.0,0.0,0.0,0.0,0.0,0.0,0.0,0.0,0.0,0.0,0.0,0.0,0.0,0.0,0.0,0.0,0.0,0.0,0.0,0.0,0.0,0.0,0.0,0.0,0.0,0.0,0.0,0.0,0.0,0.0,0.0,0.0,0.0,0.0,0.0,0.0,0.0,0.0,0.0,0.0,0.0,0.0,0.0,0.0,0.0,0.0,0.0,0.0,0.0,0.0,0.0,7.7096,8.378,8.8637,9.1457,9.2906,9.2397,9.0281,8.6625,8.22,7.6813,0.0,0.0,0.0,0.0,0.0,0.0,0.0,0.0,0.0,0.0,0.0,0.0,0.0,0.0,0.0,0.0,0.0,0.0,0.0,0.0,0.0,0.0,0.0,0.0,0.0,0.0,3.8108,3.842,3.842,0.0,0.0,0.0,0.0,0.0,0.0,0.0,0.0,0.0,0.0,5.1055,5.4099,5.6923,5.8024,5.8354,5.8024,5.795,5.7038,5.4981,5.2476,4.9122,0.0,0.0,0.0,0.0,0.0,0.0,0.0,0.0,0.0,0.0,0.0,0.0,0.0,0.0,0.0,0.0,0.0,0.0,0.0,0.0,0.0,0.0,0.0,0.0,0.0,0.0,0.0,0.0,8.4039,0.0,0.0,0.0,0.0,0.0,0.0,0.0,0.0,0.0,0.0,0.0,9.2718,8.6364,0.0,0.0,0.0,0.0,0.0,0.0,0.0,0.0,0.0,0.0,0.0,0.0,7.07,7.7358,8.3828,8.8637,9.2283,9.2906,9.2782,9.1339,8.8405,8.3162,7.5466,0.0,0.0,0.0,0.0,0.0,0.0,0.0,0.0,0.0,0.0,0.0,0.0,0.0,0.0,0.0,0.0,0.0,0.0,0.0,0.0,0.0,0.0,0.0,0.0,0.0,3.8988,0.0,0.0,0.0,0.0,0.0,0.0,0.0,0.0,0.0,0.0,0.0,4.647,5.0211,5.2559,5.4759,5.707,5.7893,5.8041,0.0,0.0,0.0,0.0,0.0,0.0,0.0,0.0,0.0,0.0,0.0,0.0,0.0,0.0,3.2846,3.0866,2.7694,2.4709,2.2894,0.0,0.0,0.0,0.0,0.0,0.0,0.0,0.0,0.0,0.0,0.0,0.0,0.0,0.0,0.0,0.0,8.4561,0.0,0.0,0.0,0.0,0.0,0.0,0.0,0.0,8.3422,9.1887,9.9656,9.291,8.803,0.0,8.1923,7.6378,0.0,0.0,0.0,0.0,0.0,0.0,0.0,0.0,7.1101,7.7606,8.3836,8.8886,9.2445,9.2974,9.2734,9.182,8.8549,8.3403,7.6332,7.1131,6.554,0.0,0.0,0.0,0.0,0.0,0.0,0.0,0.0,0.0,0.0,0.0,0.0,0.0,0.0,0.0,0.0,0.0,0.0,0.0,0.0,0.0,0.0,0.0,3.9502,0.0,0.0,0.0,0.0,0.0,0.0,0.0,0.0,0.0,4.3903,4.614,4.8928,5.2155,5.3586,5.5016,5.6887,0.0,0.0,0.0,0.0,0.0,0.0,0.0,4.7283,4.3509,4.209,4.1117,3.9622,3.9519,3.984,3.9969,0.0,0.0,3.2762,2.8871,2.5769,2.3861,2.1462,1.9804,1.9661,1.9351,1.9006,0.0,0.0,0.0,0.0,0.0,0.0,0.0,0.0,9.9046,9.7326,0.0,8.943,0.0,0.0,0.0,0.0,0.0,0.0,0.0,0.0,8.8676,9.749,10.3541,9.803,9.3912,0.0,8.7869,8.4319,8.0307,7.1091,0.0,0.0,0.0,0.0,0.0,0.0,7.2127,7.798,8.4033,8.8934,9.2445,9.2638,9.2397,9.1724,8.7347,8.3162,7.9459,7.469,6.9456,6.3473,5.8481,0.0,0.0,0.0,0.0,0.0,0.0,0.0,0.0,0.0,0.0,0.0,0.0,0.0,0.0,0.0,0.0,0.0,0.0,0.0,0.0,3.9685,0.0,0.0,0.0,0.0,0.0,0.0,0.0,0.0,0.0,0.0,4.6324,4.8598,5.1165,5.3549,0.0,0.0,0.0,0.0,5.6274,5.5915,5.5496,5.3934,5.0553,4.8728,4.6674,4.3763,0.0,0.0,4.3046,4.318,4.308,4.2847,4.1219,3.8656,3.4148,3.0325,2.7315,2.4823,2.2789,2.1771,2.1569,2.1027,2.0987,10.6697,0.0,0.0,0.0,0.0,10.2434,10.4265,10.5011,10.5461,10.3866,10.0507,9.5756,0.0,0.0,0.0,0.0,0.0,0.0,8.6877,8.4889,9.4663,10.1335,10.4651,10.2034,9.9241,9.6471,9.429,9.1388,8.7613,8.2319,7.5124,6.6531,0.0,0.0,0.0,0.0,7.3517,7.8188,8.4513,8.9126,9.206,9.2445,9.2012,9.0762,8.8694,8.6,8.2681,7.8887,7.4432,6.8792,6.3617,0.0,0.0,0.0,0.0,0.0,0.0,0.0,0.0,0.0,0.0,0.0,0.0,0.0,0.0,0.0,0.0,0.0,0.0,0.0,4.0859,4.1592,4.1702,0.0,0.0,0.0,0.0,0.0,0.0,0.0,0.0,0.0,5.1752,5.2595,5.3806,0.0,0.0,5.6446,5.7473,5.6528,5.5959,5.6635,0.0,0.0,0.0,4.9531,4.739,4.5503,4.4925,4.5105,4.5505,4.5611,4.5311,4.4464,4.2566,4.0024,3.5802,3.161,2.8084,2.5658,2.3628,2.241,2.2235,2.214,2.2262,11.5492,10.9065,10.6494,10.5682,10.6494,10.9268,11.0746,11.1329,11.1442,10.9401,10.587,10.1314,9.7028,9.3467,8.9419,0.0,0.0,0.0,9.403,9.3734,10.0492,10.4094,10.5209,10.3976,10.204,9.9411,9.8039,9.5826,9.284,8.9212,8.3399,0.0,0.0,0.0,6.241,6.955,7.6243,8.1546,8.5854,8.9078,9.1483,9.1868,9.1435,9.0281,8.9223,8.7491,8.4942,8.1612,7.7755,7.3061,6.7645,6.1925,0.0,0.0,0.0,0.0,0.0,0.0,0.0,0.0,0.0,0.0,0.0,3.8291,3.8621,0.0,0.0,0.0,4.0198,4.1519,4.2986,4.3536,0.0,0.0,0.0,0.0,0.0,0.0,0.0,4.8708,5.1422,5.3916,5.575,5.6446,5.6923,5.7437,5.7473,5.7767,5.8574,0.0,5.6333,5.7458,5.5108,5.2815,5.1713,4.9868,4.8075,4.6646,4.659,4.6787,4.7375,4.7482,4.7091,4.5719,4.3914,4.1206,3.6571,3.2489,2.9029,2.6198,2.4301,2.3008,2.3076,2.3253,2.3388,12.3138,12.1311,11.5222,11.326,11.441,11.5898,11.7022,11.7698,11.6805,11.4368,11.0914,10.6202,10.1993,9.8198,9.5339,0.0,0.0,9.8747,10.1232,10.3456,10.5383,10.6153,10.5694,10.4705,10.317,10.0929,9.968,9.8291,9.6436,9.3079,8.964,8.6044,7.7981,7.0338,6.4059,7.172,7.9609,8.6815,8.7492,8.8838,9.0906,9.0954,9.0666,9.0136,8.9126,8.778,8.6241,8.2992,7.9556,7.6063,7.0658,6.5309,5.9875,0.0,0.0,0.0,0.0,0.0,0.0,0.0,0.0,0.0,0.0,0.0,0.0,0.0,0.0,0.0,4.2362,0.0,4.5407,4.559,0.0,0.0,0.0,4.6103,4.691,4.8781,5.0761,5.2742,0.0,0.0,5.861,0.0,6.0224,5.9161,5.8941,5.9124,5.9931,5.845,5.7524,5.8376,5.5242,5.2704,5.2204,5.0257,4.8577,4.7659,4.7856,4.8177,4.8658,4.8791,4.8127,4.6594,4.4844,4.2017,3.685,3.3472,3.0156,2.6444,2.4758,2.3741,2.3836,2.4053,2.4175,12.6521,12.5506,12.395,12.219,12.0499,12.1679,12.1861,12.1396,12.0812,11.7964,11.3994,11.1442,10.7628,10.2801,10.1518,10.1456,10.2318,10.4473,10.614,10.7167,10.8013,10.7503,10.5757,10.5407,10.402,10.2271,10.1438,10.0426,9.9021,9.5999,9.263,8.9187,8.4588,7.8175,7.0649,7.5188,8.0489,8.5778,8.6767,8.8309,9.0329,9.004,8.9607,8.9078,8.802,8.6479,8.4419,8.2046,7.9369,7.6622,7.2062,6.7589,6.2836,5.7192,0.0,0.0,0.0,0.0,0.0,0.0,0.0,0.0,0.0,3.9612,4.0418,0.0,4.1739,0.0,4.482,4.6617,4.7497,4.8121,0.0,0.0,4.9441,5.0321,5.1422,5.3072,5.4759,5.6483,5.7987,5.9417,6.0701,6.1911,6.2682,6.2682,6.1911,6.1365,6.1619,6.1017,5.9903,5.8522,5.5652,5.3257,5.19,5.0053,4.86,4.8471,4.8764,4.9005,4.9139,4.9165,4.8738,4.7119,4.5186,4.2017,3.7476,3.3567,3.0292,2.6932,2.5171,2.4026,2.4066,2.4134,2.4161,12.8347,12.7941,12.7941,12.6834,12.5188,12.5501,12.4854,12.36,12.241,11.9822,11.5884,11.3047,10.9768,10.6689,10.6258,10.6443,10.7182,10.8412,10.8886,10.908,10.9101,10.7871,10.6059,10.5345,10.4159,10.273,10.2393,10.1336,9.989,9.74,9.4647,9.1163,8.7735,8.3245,7.7892,7.886,8.0934,8.4137,8.6288,8.8164,8.9463,8.903,8.8405,8.7635,8.5904,8.4228,8.2373,8.0763,7.8604,7.5737,7.2759,6.9151,6.4415,5.9754,5.4926,0.0,0.0,0.0,0.0,0.0,0.0,0.0,0.0,0.0,0.0,0.0,4.4196,0.0,4.7497,0.0,5.0101,5.1055,5.1898,5.2485,5.3256,5.4209,5.542,5.6813,5.817,5.9417,6.0628,6.1691,6.2572,6.3562,6.4405,6.4458,6.4131,6.3575,6.285,6.2403,6.1471,5.9021,5.548,5.2254,5.1011,4.9776,4.9032,4.9032,4.9165,4.9272,4.9272,4.9165,4.8631,4.7411,4.5111,4.2216,3.7476,3.3585,3.0326,2.7381,2.5314,2.4121,2.4121,2.4175,2.4202,12.9159,12.9159,12.9159,12.8833,12.8436,12.7666,12.6499,12.4895,12.3114,12.0322,11.6917,11.2684,11.0444,10.989,10.9767,11.0075,11.0752,11.0796,11.0634,11.0258,10.9189,10.7779,10.6214,10.5089,10.4,10.2843,10.273,10.1897,10.0189,9.8177,9.5515,9.2207,8.8687,8.6023,8.4151,8.2111,8.1491,8.2601,8.5904,8.7924,8.8453,8.7876,8.7106,8.6,8.3414,8.1231,8.0042,7.8934,7.6749,7.3702,7.2521,6.9848,6.5425,6.2092,5.8028,0.0,5.0155,0.0,0.0,0.0,0.0,0.0,0.0,0.0,0.0,4.57,4.7057,4.8818,5.0468,5.1898,5.3035,5.4209,5.5236,5.608,5.685,5.7767,5.8977,6.0114,6.1105,6.1875,6.2902,6.3709,6.4075,6.4846,6.5383,6.5386,6.5272,6.4685,6.3436,6.2921,6.1847,5.9191,5.4699,5.1039,4.97,4.9272,4.9272,4.9272,4.9272,4.9272,4.9272,4.9032,4.8472,4.7359,4.4987,4.1446,3.7142,3.3273,3.0031,2.7084,2.5314,2.4121,2.4134,2.4202,2.427,12.9159,12.9159,12.9159,12.8833,12.8504,12.7537,12.6319,12.4973,12.3731,12.0953,11.6933,11.3544,11.2045,11.1922,11.1368,11.1491,11.2107,11.1653,11.1303,11.0921,10.9368,10.7779,10.6156,10.5146,10.4226,10.3405,10.2955,10.2346,10.1471,9.8072,9.5169,9.27,8.9096,8.6485,0.0,0.0,0.0,0.0,8.5856,8.6866,8.7347,8.6481,8.5471,8.4365,8.1453,0.0,7.6465,7.5215,7.3275,7.0172,6.9479,0.0,0.0,0.0,0.0,0.0,0.0,0.0,0.0,0.0,0.0,0.0,5.0601,4.9991,4.8671,5.0395,5.1935,5.2669,5.4172,5.5493,5.6373,5.7253,5.8244,5.9344,5.9894,6.0664,6.1838,6.2462,6.3122,6.3929,6.4222,6.4516,6.4919,6.5689,6.5931,6.533,6.4835,6.3756,6.1617,6.235,6.1386,5.732,5.3152,5.0287,4.9541,4.9299,4.9272,4.9272,4.9272,4.9272,4.9245,4.8417,4.8179,4.8021,4.4428,3.9943,3.5266,3.2042,2.9456,2.7084,2.5314,2.4121,2.4121,2.4148,2.3862,12.9159,0.0,12.8996,12.8668,0.0,0.0,12.5543,12.4301,12.289,12.0082,11.6104,11.397,11.303,11.2968,11.2661,11.2468,11.2582,11.1999,11.1198,11.0298,10.8607,10.7153,10.5731,10.4715,10.3848,10.363,10.3075,10.2358,10.1148,9.8223,9.5456,9.2807,8.9801,8.7307,8.5644,8.5319,8.5082,8.4701,8.6048,8.6721,8.6673,8.5952,8.4749,8.3114,0.0,0.0,0.0,0.0,0.0,0.0,0.0,0.0,0.0,0.0,0.0,6.1216,5.9497,5.7716,5.6162,5.5298,5.487,5.5056,5.5763,5.5089,5.2669,5.4172,5.5383,5.5823,5.696,5.806,5.9051,5.9711,6.0554,6.1691,6.2058,6.2498,6.3268,6.3745,6.4149,6.4516,6.4772,6.5066,6.5469,6.6019,6.5913,6.5032,6.4001,6.2563,6.0019,5.9677,5.8308,5.3791,5.1836,5.0157,4.9567,4.9272,4.9272,4.9272,4.9139,4.9058,4.9058,4.81,4.7202,4.6885,4.365,3.9205,3.3746,3.1212,2.9275,2.7221,2.5484,2.4338,2.4338,2.4229,2.3822,12.9159,12.9159,12.8668,12.8172,12.767,12.6239,12.4659,12.2846,0.0,0.0,0.0,11.4024,11.3523,11.3523,11.3523,11.3134,11.2744,11.2094,11.0962,10.9665,10.7804,10.6541,10.5475,10.4178,10.3742,10.363,10.2972,10.2033,10.0818,9.8477,9.5621,9.272,9.0241,8.8342,8.6909,8.7349,8.6915,8.5375,8.6481,8.6914,8.6481,8.5952,8.4701,8.2633,7.9008,7.6261,7.4615,6.9624,6.747,6.8857,6.8101,6.7713,6.7733,6.7409,6.632,6.4417,6.374,6.2566,6.0356,5.9726,5.9169,5.8836,5.9867,5.9307,5.6703,5.7583,5.8354,5.8684,5.9454,6.0334,6.1325,6.1765,6.2425,6.3489,6.3599,6.3745,6.4149,6.4516,6.4699,6.4736,6.4992,6.5359,6.5763,6.5894,6.5712,6.4623,6.3061,6.0819,5.7676,5.6405,5.4453,5.0278,4.9804,4.9673,4.9406,4.9085,4.9112,4.9058,4.8871,4.8738,4.8366,4.7414,4.6285,4.5467,4.2248,3.7641,3.2281,3.0115,2.9124,2.7073,2.5381,2.4555,2.4541,2.4351,2.3577,12.9159,12.9159,12.8668,12.8005,12.7163,12.5718,12.3331,12.0339,11.8506,11.7112,11.6028,11.4271,11.3523,11.3523,11.3523,11.3134,11.2744,11.1699,11.08,0.0,10.8025,10.6748,10.616,10.4855,10.4135,10.3686,10.2972,10.2034,10.0755,9.796,9.5299,9.2814,9.0283,8.8363,8.7205,8.7687,8.7635,8.7443,8.7251,8.7058,8.701,8.6481,8.5423,8.3691,8.0431,7.7672,7.5697,7.0682,6.8471,6.991,7.1096,7.1114,6.982,7.0014,6.9904,6.885,6.8022,6.7016,6.5934,6.483,6.3515,6.2654,6.2826,6.2095,6.0444,6.1031,6.1545,6.1618,6.2242,6.2865,6.3048,6.3379,6.3819,6.4332,6.4442,6.4589,6.4956,6.5029,6.5102,6.5102,6.5139,6.5359,6.5836,6.5659,6.5056,6.3476,6.1459,5.8714,5.4203,5.1911,5.0731,4.8943,4.8417,4.8497,4.8577,4.8524,4.8551,4.8497,4.8497,4.8153,4.7572,4.6098,4.4447,4.2705,3.9271,3.5053,3.0361,2.8712,2.7689,2.6317,2.5176,2.4596,2.4596,2.3841,2.3107,12.9159,12.8996,12.8504,12.767,12.665,12.4121,12.173,11.9374,11.7854,11.6647,11.5823,11.4508,11.383,11.3523,11.3523,11.3134,11.2291,11.1863,11.0813,10.946,10.8123,10.7165,10.6296,10.5138,10.4416,10.4135,10.2864,10.1812,10.0641,9.7877,9.5227,9.3054,9.0215,8.8414,8.7972,8.8213,8.8309,8.8309,8.8068,8.7828,8.7539,8.701,8.6096,8.4798,8.1806,7.9505,7.8001,7.4214,7.2542,7.3197,7.4191,7.4292,7.3087,7.2367,7.1801,7.087,7.0157,6.9262,6.8001,6.668,6.5631,6.4601,6.4743,6.4516,6.4002,6.3452,6.3195,6.3195,6.3525,6.3819,6.4002,6.4222,6.4479,6.4882,6.4919,6.4992,6.5139,6.5176,6.5286,6.5469,6.5542,6.5763,6.6386,6.5877,6.4889,6.3339,5.9893,5.5382,5.1396,4.9628,4.8852,4.823,4.8337,4.8364,4.8364,4.839,4.839,4.839,4.823,4.7861,4.6968,4.5291,4.2804,4.039,3.71,3.331,2.9259,2.7943,2.6922,2.6173,2.5385,2.4799,2.4786,2.3403,2.138,12.9227,12.9064,12.8172,12.6993,12.5367,12.2541,12.0336,11.885,11.7763,11.675,11.5739,11.5062,11.4446,11.4015,11.3953,11.3368,11.2443,11.2267,11.1145,10.93,10.843,10.736,10.6482,10.5368,10.481,10.4308,10.2921,10.1532,10.0245,9.7683,9.512,9.2741,9.0123,8.8694,8.8694,8.8694,8.8694,8.8694,8.8694,8.8501,8.8068,8.7683,8.701,8.6048,8.3561,8.1668,8.0775,7.8348,7.6961,7.6594,7.7147,7.6865,7.5741,7.4396,7.339,7.2355,7.1622,7.0318,6.8718,6.7562,6.6621,6.6143,6.5946,6.6093,6.6276,6.5286,6.4552,6.4552,6.4589,6.4699,6.4846,6.4882,6.4956,6.5176,6.5286,6.5359,6.5322,6.5396,6.5579,6.5909,6.5946,6.6239,6.6442,6.5547,6.3717,6.0944,5.6668,5.2298,4.9835,4.8362,4.7722,4.8016,4.8177,4.815,4.8177,4.815,4.815,4.8177,4.7702,4.6994,4.6079,4.3887,4.1434,3.8202,3.5286,3.1855,2.843,2.7088,2.6376,2.5649,2.5161,2.4921,2.4238,2.2525,2.019,12.8996,12.8504,12.8005,12.6066,12.3213,12.1482,11.975,11.8321,11.7862,11.7093,11.6416,11.5739,11.5369,11.5369,11.5308,11.4655,11.3657,11.2707,11.1625,11.0471,10.8863,10.7826,10.7219,10.6438,10.5597,10.4477,10.3366,10.1413,9.9394,9.7221,9.4411,9.1099,8.9386,8.8694,8.8694,8.8694,8.8694,8.8694,8.8694,8.8645,8.8597,8.8549,8.8261,8.7683,8.5838,8.4489,8.3784,8.2149,8.0669,7.9529,7.9726,7.8797,7.699,7.5795,7.476,7.345,7.236,7.1278,6.9552,6.8096,6.7324,6.7128,6.6621,6.6423,6.6769,6.6313,6.6166,6.6129,6.6166,6.5946,6.5763,6.5689,6.5542,6.5322,6.5579,6.5763,6.5799,6.6093,6.6313,6.6349,6.6349,6.626,6.6075,6.4445,6.1297,5.7165,5.3767,5.0966,4.9213,4.8078,4.7509,4.7589,4.7589,4.7616,4.7642,4.7589,4.7669,4.7642,4.7018,4.6134,4.4413,4.2347,3.9697,3.6475,3.3529,3.0361,2.8446,2.6758,2.567,2.5287,2.4772,2.4465,2.2805,2.1452,1.9787,12.8833,12.8504,12.767,12.5543,12.2291,12.0718,11.9358,11.8321,11.7786,11.7401,11.7155,11.6847,11.6293,11.5554,11.5159,11.4562,11.3759,11.2898,11.1471,11.0061,10.9163,10.8231,10.7339,10.6776,10.6102,10.5597,10.3755,10.1686,9.9313,9.551,9.231,9.0123,8.9188,8.8694,8.8694,8.8694,8.8694,8.8694,8.8694,8.8838,8.9078,8.8838,8.8597,8.8357,8.6596,8.5476,8.5241,8.3632,8.2271,8.1253,8.0461,7.9208,7.7649,7.6122,7.4447,7.2528,7.0843,6.9555,6.8662,6.8156,6.7684,6.7633,6.7395,6.7156,6.7156,6.7156,6.712,6.7083,6.6679,6.6349,6.6203,6.6166,6.6093,6.5983,6.6056,6.6166,6.6166,6.6313,6.6496,6.6716,6.6753,6.6625,6.5775,6.3201,5.9596,5.5326,5.2492,5.0345,4.893,4.8078,4.7482,4.7509,4.7509,4.7509,4.7509,4.7509,4.7224,4.6939,4.6056,4.5198,4.2876,4.0118,3.7493,3.4408,3.14,2.8815,2.6683,2.5842,2.4721,2.4596,2.465,2.4,2.2339,2.1054,1.8847,12.8833,12.8172,12.6822,12.448,12.173,12.0269,11.8903,11.8123,11.7724,11.7586,11.7586,11.7586,11.7032,11.617,11.5451,11.4911,11.4162,11.3083,11.1638,10.992,10.9288,10.8406,10.7226,10.6833,10.6552,10.6047,10.4367,10.1725,9.8764,9.3952,9.0856,8.9681,8.9086,8.8886,8.8934,8.903,8.9126,8.9126,8.9126,8.9319,8.9607,8.9319,8.903,8.8886,8.726,8.6276,8.6135,8.4744,8.3645,8.2497,8.1269,7.9772,7.826,7.6207,7.4047,7.148,6.9476,6.8503,6.8293,6.8019,6.7855,6.7596,6.7633,6.7633,6.7633,6.7633,6.7633,6.756,6.7083,6.6753,6.6569,6.6569,6.6533,6.6423,6.6496,6.6569,6.6569,6.6643,6.6863,6.712,6.7156,6.6641,6.4805,6.1628,5.8078,5.423,5.2016,5.0119,4.8646,4.7793,4.7509,4.7509,4.7509,4.7509,4.7509,4.7224,4.6939,4.6056,4.5198,4.3164,4.1076,3.7965,3.4928,3.2135,2.9141,2.6855,2.5866,2.4787,2.4297,2.4433,2.4501,2.3868,2.2264,2.0391,1.7599,12.8736,12.7502,12.4902,12.2846,12.129,11.9694,11.8581,11.7786,11.7586,11.7586,11.7586,11.7586,11.7524,11.7401,11.6737,11.5987,11.496,11.3709,11.1953,11.0004,10.9239,10.8406,10.7283,10.7283,10.6945,10.6496,10.5145,10.1689,9.6472,9.2561,9.0368,8.9729,8.9472,8.9415,8.9511,8.9896,9.0185,9.0088,9.0088,9.0185,9.0233,9.0185,8.9944,8.9511,8.8161,8.7122,8.6793,8.5856,8.4762,8.3213,8.2789,8.1474,7.8807,7.6334,7.3676,7.0888,6.9405,6.8666,6.8464,6.8187,6.7633,6.767,6.767,6.7633,6.767,6.7633,6.7633,6.7633,6.7523,6.734,6.7046,6.6973,6.6826,6.6569,6.679,6.6936,6.6973,6.7266,6.7523,6.756,6.7246,6.6026,6.2359,5.9724,5.651,5.2963,5.077,4.9803,4.8132,4.7509,4.7509,4.7509,4.7509,4.7509,4.7509,4.6939,4.6368,4.5198,4.3427,4.1076,3.8297,3.5547,3.2842,3.0156,2.7794,2.6087,2.5338,2.4578,2.4405,2.4229,2.4037,2.3421,2.1876,1.9687,1.6919,12.9314,12.7141,12.5198,12.2739,12.0465,11.9499,11.8519,11.7647,11.8526,11.8403,11.7709,11.8017,11.7754,11.6921,11.6516,11.5699,11.4873,11.3196,11.1425,10.99,10.8852,10.7958,10.7283,10.7283,10.717,10.672,10.5251,10.1782,9.6326,9.3168,9.1199,9.0204,9.0147,8.9992,8.9992,9.0185,9.0281,9.0281,9.0281,9.0425,9.0762,9.0762,9.0666,9.0473,8.8873,8.7874,8.7686,8.6597,8.5401,8.3796,8.2925,8.085,7.8166,7.4621,7.1816,7.0269,6.9318,6.8684,6.8684,6.8403,6.8086,6.7659,6.7794,6.7963,6.7611,6.7465,6.7633,6.7633,6.7633,6.7523,6.745,6.7413,6.734,6.723,6.7303,6.7413,6.7413,6.7523,6.7633,6.7355,6.6763,6.5017,6.2034,5.9288,5.5842,5.2312,5.0339,4.8974,4.7874,4.7509,4.7509,4.7509,4.7509,4.7224,4.6939,4.6653,4.6056,4.4288,4.2492,3.9762,3.7034,3.3558,3.0544,2.8569,2.6199,2.505,2.43,2.4172,2.3985,2.4107,2.3903,2.3029,2.119,1.9021,1.5963,12.9409,12.6838,12.498,12.2745,11.995,11.9234,11.8569,11.8156,11.9019,11.8896,11.8078,11.8386,11.8,11.678,11.5904,11.5287,11.4457,11.2558,11.105,10.9738,10.8686,10.8015,10.7283,10.7283,10.7283,10.6546,10.4392,10.0776,9.66,9.3521,9.1786,9.0233,9.0425,9.0521,9.0521,9.0666,9.0762,9.0762,9.0762,9.0954,9.1291,9.1483,9.1579,9.1276,9.0363,8.9119,8.8297,8.7107,8.5903,8.4333,8.3103,8.0518,7.6672,7.3276,7.0683,6.9838,6.9163,6.8843,6.8843,6.8843,6.8488,6.8096,6.8232,6.8403,6.8049,6.7867,6.8037,6.8037,6.8,6.8,6.8,6.8037,6.7963,6.7853,6.7816,6.789,6.8,6.789,6.778,6.7392,6.6206,6.4526,6.1919,5.8784,5.5587,5.2141,5.0137,4.8688,4.7847,4.7509,4.7509,4.7509,4.7224,4.6939,4.6056,4.5484,4.4026,4.254,4.0338,3.7633,3.4849,3.1679,2.8932,2.6961,2.5529,2.4368,2.3884,2.3768,2.3904,2.4026,2.351,2.2653,2.0497,1.8059,1.5003,12.8789,12.6727,12.4798,12.256,12.0139,11.9349,11.8865,11.8834,11.9328,11.9328,11.8632,11.8632,11.792,11.6699,11.5759,11.4457,11.3407,11.213,11.0615,10.9296,10.852,10.8071,10.7283,10.7283,10.6829,10.6146,10.207,9.9145,9.6871,9.387,9.1682,9.0677,9.0858,9.105,9.105,9.1483,9.1772,9.1724,9.1676,9.1772,9.1916,9.2253,9.2493,9.2638,9.2193,9.1054,8.8485,8.757,8.6542,8.4961,8.3985,8.0597,7.5536,7.2774,7.1134,6.9678,6.91,6.8917,6.888,6.8917,6.899,6.8953,6.888,6.8843,6.8807,6.877,6.8733,6.8697,6.8733,6.877,6.8733,6.8733,6.8587,6.8293,6.822,6.8367,6.8587,6.844,6.8073,6.7502,6.6242,6.4245,6.1319,5.8499,5.5302,5.1854,4.985,4.8688,4.7847,4.7509,4.7509,4.7509,4.6939,4.6653,4.5198,4.4051,4.23,4.0232,3.7965,3.5197,3.2422,2.9304,2.7396,2.567,2.4502,2.3636,2.3774,2.366,2.3501,2.3621,2.3094,2.1955,1.9522,1.7084,1.4629,12.9901,12.7207,12.5854,12.3645,12.0742,11.9636,11.9221,11.9371,12.0376,12.0314,11.9371,11.9248,11.8472,11.6777,11.5529,11.4039,11.213,11.0992,10.9958,10.9074,10.8239,10.7565,10.7283,10.7283,10.6602,10.4711,10.1974,9.9187,9.6699,9.4368,9.2609,9.1642,9.1483,9.1579,9.1579,9.1772,9.1868,9.1868,9.1868,9.2012,9.2349,9.2541,9.283,9.3167,9.2575,9.1766,9.0413,8.9766,8.8223,8.6305,8.5088,8.14,7.6131,7.3463,7.1848,7.0157,6.9724,6.965,6.965,6.965,6.965,6.9614,6.943,6.9247,6.9174,6.899,6.888,6.888,6.8843,6.8843,6.8843,6.8843,6.8807,6.866,6.866,6.8697,6.8807,6.8513,6.794,6.7198,6.6105,6.3964,6.0751,5.7929,5.4729,5.1279,4.9248,4.8089,4.7589,4.7509,4.7509,4.7509,4.6653,4.5796,4.4338,4.2276,3.992,3.8072,3.5836,3.3345,3.0579,2.8101,2.62,2.469,2.3814,2.328,2.3415,2.3537,2.3394,2.2898,2.2064,2.0312,1.8234,1.58,1.3362,13.0143,12.7493,12.6001,12.3895,12.1168,11.9793,11.9636,12.0048,12.1054,12.0931,12.0048,11.9475,11.8369,11.6875,11.5174,11.3407,11.1699,11.0339,10.9296,10.8629,10.7734,10.7283,10.7283,10.6829,10.5917,10.4301,10.166,9.9258,9.6808,9.4865,9.3096,9.2076,9.1868,9.182,9.1868,9.1868,9.1868,9.1868,9.206,9.2301,9.2638,9.3022,9.3407,9.3696,9.3411,9.2931,9.1871,9.1385,9.0082,8.7654,8.5344,8.1587,7.6567,7.4573,7.2737,7.1397,7.0457,7.0457,7.0457,7.0457,7.0384,6.9912,7.0017,6.9797,6.965,6.9394,6.9284,6.9284,6.932,6.9284,6.9284,6.9284,6.9284,6.9284,6.9137,6.9064,6.9027,6.8733,6.8122,6.7098,6.5896,6.3435,6.0149,5.6915,5.4066,5.1223,4.8879,4.7749,4.7562,4.7509,4.7509,4.6939,4.6082,4.4625,4.3188,4.081,3.7847,3.5918,3.3692,3.1518,2.9066,2.6852,2.4962,2.4388,2.3225,2.3225,2.3334,2.3429,2.326,2.2156,2.1045,1.9279,1.7214,1.4825,1.2403,13.003,12.7374,12.5431,12.3438,12.1417,12.0147,12.011,12.0664,12.1239,12.1239,12.0541,11.9577,11.8347,11.6643,11.4787,11.2948,11.1542,10.9958,10.8852,10.8183,10.7508,10.7283,10.7056,10.6146,10.5228,10.3835,10.1183,9.8772,9.6561,9.4713,9.3145,9.1964,9.206,9.1916,9.1964,9.1916,9.1964,9.2012,9.2397,9.2638,9.283,9.3648,9.4177,9.4273,9.4658,9.4054,9.2985,9.2401,9.0999,8.806,8.4739,8.1644,7.8424,7.5859,7.3844,7.2282,7.1483,7.1154,7.1191,7.1117,7.0971,7.0351,7.0314,7.0494,7.0127,7.0017,6.9944,6.987,6.9907,6.9944,6.9944,6.9907,6.9907,6.9944,6.965,6.9504,6.943,6.9137,6.8451,6.7206,6.537,6.3084,5.993,5.6505,5.3602,5.1138,4.877,4.7874,4.7509,4.7509,4.7224,4.6368,4.551,4.3763,4.2324,3.9407,3.6393,3.4059,3.188,2.9729,2.7555,2.5928,2.4374,2.38,2.3225,2.3225,2.3253,2.3347,2.2849,2.2054,2.062,1.8572,1.6207,1.3549,1.0879,13.0115,12.7781,12.6008,12.4189,12.2665,12.1506,12.1156,12.1341,12.1403,12.1403,12.095,11.9983,11.8724,11.7642,11.5233,11.305,11.1194,10.9747,10.8406,10.7734,10.7283,10.7283,10.7056,10.5973,10.4589,10.2897,10.057,9.7794,9.5416,9.43,9.3218,9.2445,9.2782,9.2782,9.2493,9.2445,9.2445,9.2445,9.2541,9.307,9.3696,9.4032,9.4417,9.4802,9.4946,9.4244,9.2858,9.1779,9.0056,8.7592,8.501,8.2034,7.8909,7.6577,7.4476,7.2797,7.1848,7.1264,7.1264,7.1264,7.1191,7.0789,7.1081,7.0897,7.0531,7.0494,7.0347,7.0127,7.0017,7.0017,7.0017,7.0017,7.0017,7.0017,6.9907,6.9834,6.9724,6.932,6.8561,6.6928,6.5229,6.2621,5.9262,5.6282,5.3257,5.0851,4.9056,4.7509,4.7509,4.7509,4.7224,4.6368,4.5198,4.3188,4.1145,3.7954,3.5187,3.2533,3.0342,2.7941,2.6352,2.4762,2.3828,2.3225,2.3225,2.3225,2.3225,2.3266,2.2467,2.1675,1.9606,1.7269,1.4371,1.1739,0.9076,12.9273,12.7095,12.5552,12.4169,12.282,12.2001,12.1587,12.1587,12.1587,12.1587,12.1257,12.0081,11.8939,11.7974,11.5249,11.3045,11.1225,11.0046,10.9033,10.8297,10.8126,10.7729,10.7161,10.6297,10.4777,10.2884,10.0422,9.7818,9.5863,9.4634,9.3751,9.3022,9.3263,9.3263,9.3022,9.2974,9.2974,9.3022,9.3167,9.3648,9.4177,9.4417,9.4658,9.5043,9.5187,9.4846,9.3469,9.2157,9.0329,8.8038,8.6238,8.3866,8.0252,7.7875,7.5731,7.3501,7.2329,7.1778,7.1778,7.1741,7.1668,7.1558,7.1484,7.1301,7.1007,7.0897,7.0714,7.0384,7.0311,7.0201,7.0054,7.0017,7.0017,7.0017,7.0017,7.0017,7.0017,6.8714,6.7747,6.6076,6.4166,6.1386,5.7958,5.5167,5.286,5.0647,4.8879,4.7981,4.7535,4.7509,4.6939,4.577,4.4051,4.2035,3.9407,3.6203,3.3689,3.1063,2.9066,2.6398,2.5137,2.3856,2.354,2.3225,2.3225,2.3225,2.3225,2.2938,2.1813,2.0683,1.8325,1.5721,1.2849,1.0537,0.7883,12.8228,12.6135,12.4567,12.3429,12.2412,12.1794,12.1587,12.1587,12.1587,12.1587,12.1049,11.9724,11.87,11.7882,11.5134,11.3028,11.1692,11.0393,10.9768,10.931,10.9081,10.8739,10.7536,10.6661,10.5121,10.2964,10.0676,9.818,9.6356,9.4964,9.4025,9.3551,9.36,9.3551,9.3503,9.3503,9.3503,9.3551,9.384,9.4129,9.4465,9.4802,9.5091,9.5235,9.5133,9.4976,9.4174,9.2898,9.1198,8.9001,8.8082,8.5616,8.246,7.9838,7.7518,7.5251,7.3773,7.2882,7.2585,7.2511,7.2364,7.2071,7.1961,7.1741,7.1411,7.1301,7.1154,7.0751,7.0714,7.0531,7.0237,7.0127,7.009,7.0054,7.0017,7.0017,6.9511,6.8,6.636,6.5326,6.2676,5.9742,5.6713,5.3934,5.1591,5.0127,4.8646,4.8062,4.7589,4.7535,4.6653,4.5198,4.3188,4.0566,3.7662,3.474,3.1879,2.9574,2.7555,2.5685,2.4185,2.3526,2.3225,2.3225,2.3225,2.3225,2.3225,2.265,2.1499,1.9769,1.7448,1.4544,1.165,0.9924,0.7296,12.8163,12.6135,12.463,12.3429,12.2412,12.1794,12.1587,12.1587,12.1587,12.138,12.0754,11.994,11.8818,11.7466,11.5345,11.3503,11.1815,11.0621,10.9881,10.9249,10.9699,10.9516,10.8414,10.6961,10.4915,10.2499,9.9983,9.7726,9.5835,9.4933,9.4295,9.4081,9.4321,9.4417,9.4032,9.4032,9.4032,9.4032,9.4177,9.4465,9.4898,9.5331,9.562,9.5716,9.5071,9.4813,9.4089,9.3037,9.1794,9.0547,8.9062,8.7374,8.4443,8.1849,7.9223,7.6864,7.5154,7.3956,7.3656,7.3098,7.2915,7.2731,7.2438,7.2181,7.1778,7.1704,7.1521,7.1227,7.1117,7.0934,7.0567,7.0531,7.0347,7.0164,7.0017,6.9907,6.9255,6.7855,6.6431,6.4866,6.2709,5.9677,5.6517,5.3674,5.1647,4.9893,4.8727,4.7829,4.7696,4.7589,4.6394,4.4937,4.2612,3.9987,3.6767,3.351,3.0673,2.8409,2.6688,2.5035,2.3828,2.3225,2.3225,2.3225,2.3225,2.3225,2.3225,2.2363,2.1499,1.9181,1.657,1.3674,1.1069,0.933,0.7296,12.7031,12.516,12.3769,12.282,12.2001,12.1794,12.1587,12.1587,12.1587,12.138,12.0754,11.9911,11.857,11.705,11.521,11.3467,11.2274,11.1129,11.0268,11.0149,11.0197,10.9315,10.8077,10.6424,10.4461,10.2251,9.9497,9.7507,9.6105,9.4944,9.461,9.461,9.4898,9.4802,9.461,9.4562,9.4562,9.461,9.485,9.5091,9.5427,9.586,9.6341,9.6216,9.5465,9.488,9.5162,9.3779,9.2897,9.2059,9.0934,8.8686,8.577,8.2799,8.0169,7.7546,7.5755,7.4553,7.3877,7.3465,7.3245,7.3098,7.2841,7.2548,7.2254,7.2144,7.1924,7.1631,7.1484,7.1374,7.0971,7.0714,7.0531,7.0347,7.0127,6.9584,6.8896,6.7571,6.5792,6.4192,6.1147,5.8021,5.4981,5.2832,5.1207,4.924,4.897,4.807,4.7803,4.741,4.6134,4.4675,4.2059,3.9429,3.5891,3.2574,2.9484,2.7518,2.6444,2.4805,2.354,2.3225,2.3225,2.3225,2.3225,2.3225,2.2938,2.2075,2.0911,1.8304,1.5702,1.3102,1.0488,0.7874,0.6421,12.5747,12.3832,12.282,12.2206,12.1587,12.1587,12.1587,12.1587,12.1587,12.1172,12.0605,11.9426,11.8138,11.6611,11.4831,11.3474,11.2328,11.1634,11.0823,11.0823,11.0176,10.8717,10.7121,10.5537,10.3835,10.1735,9.9286,9.7476,9.6218,9.5524,9.4898,9.4994,9.4994,9.4946,9.4994,9.4994,9.4946,9.4946,9.5379,9.5668,9.586,9.6341,9.6966,9.6807,9.6129,9.5538,9.5311,9.4613,9.3862,9.3954,9.2537,9.005,8.6901,8.3587,8.0917,7.8038,7.6357,7.519,7.4282,7.3832,7.3612,7.3245,7.3171,7.2951,7.2695,7.2621,7.2511,7.2254,7.2071,7.1888,7.1374,7.1007,7.0787,7.0567,7.0274,6.9584,6.8324,6.7108,6.504,6.2558,5.9649,5.6548,5.3908,5.1836,5.0205,4.9164,4.8604,4.831,4.8016,4.7255,4.5976,4.2876,4.0232,3.7079,3.3548,3.1471,2.8359,2.7011,2.5923,2.4891,2.3595,2.3239,2.3225,2.3225,2.3225,2.3225,2.265,2.1499,1.9758,1.7437,1.4544,1.165,0.9034,0.6417,0.4959,12.5552,12.3832,12.282,12.2001,12.1587,12.1587,12.1587,12.1587,12.1172,12.0544,11.9911,11.8845,11.7269,11.5725,11.4381,11.2788,11.1691,11.0992,11.0992,11.0758,11.0288,10.8535,10.5942,10.4718,10.3203,10.1076,9.8913,9.7462,9.61,9.5259,9.5043,9.4994,9.4994,9.4994,9.4994,9.4994,9.4994,9.5091,9.5572,9.586,9.6053,9.6774,9.7223,9.7154,9.6374,9.5824,9.5638,9.4979,9.4551,9.4964,9.4152,9.2534,9.011,8.6302,8.3069,8.0312,7.7947,7.609,7.4797,7.4308,7.4198,7.4015,7.3758,7.3391,7.3171,7.3208,7.3098,7.2951,7.2731,7.2548,7.1814,7.1374,7.0971,7.0677,6.9985,6.9296,6.8074,6.6319,6.3995,6.1223,5.8272,5.565,5.3062,5.1306,5.0021,4.9272,4.8764,4.8444,4.7808,4.7099,4.5868,4.2106,3.7514,3.4369,3.0917,2.944,2.7584,2.6825,2.5765,2.473,2.3719,2.3293,2.3239,2.3225,2.2938,2.2938,2.2075,2.0923,1.8603,1.6281,1.3384,1.0197,0.816,0.5834,0.3209,12.4963,12.3429,12.2412,12.1794,12.1587,12.1587,12.1587,12.1587,12.1024,12.0333,11.9273,11.8198,11.667,11.5056,11.3759,11.2385,11.1225,11.0992,11.0992,11.0758,11.0052,10.8223,10.5376,10.4347,10.2353,10.0394,9.8514,9.7214,9.5959,9.5694,9.5283,9.5043,9.4994,9.4994,9.4994,9.4994,9.5043,9.5187,9.5764,9.6197,9.6293,9.7255,9.7751,9.7306,9.6663,9.6339,9.5915,9.5157,9.501,9.5193,9.4666,9.3515,9.1598,8.8749,8.5035,8.2187,7.9736,7.7494,7.5816,7.4981,7.4528,7.4272,7.4088,7.3795,7.3538,7.3501,7.3575,7.3391,7.3135,7.2915,7.2511,7.1741,7.1227,7.0897,7.0131,6.8721,6.7247,6.5052,6.2652,5.9971,5.7361,5.4756,5.2478,5.0985,4.9781,4.9352,4.8925,4.8286,4.7599,4.6941,4.5732,4.0681,3.6081,3.3217,3.0343,2.8568,2.7366,2.6621,2.5309,2.4565,2.3829,2.3402,2.3293,2.3239,2.2938,2.2363,2.1487,2.0335,1.7726,1.5123,1.2514,0.9906,0.7583,0.5254,0.2918,12.4369,12.3024,12.2001,12.1587,12.1587,12.1587,12.1587,12.138,12.0754,11.9911,11.8999,11.7487,11.5948,11.4439,11.3075,11.1923,11.0992,11.1104,11.1216,11.0803,10.9785,10.8048,10.5656,10.3776,10.1942,10.0098,9.8556,9.7243,9.6321,9.5956,9.5716,9.5572,9.5379,9.5235,9.5017,9.5427,9.5283,9.562,9.6197,9.6726,9.7111,9.7832,9.823,9.783,9.7087,9.6855,9.6473,9.5663,9.5515,9.5607,9.5077,9.412,9.2915,9.0531,8.7357,8.3993,8.0733,7.8294,7.6502,7.5166,7.4712,7.4492,7.4418,7.4162,7.3905,7.3795,7.3795,7.3722,7.3428,7.3135,7.2841,7.1924,7.1374,7.0752,6.9661,6.818,6.6232,6.4027,6.1525,5.886,5.6496,5.417,5.1879,5.0884,4.9675,4.9514,4.9058,4.8153,4.7519,4.715,4.4937,3.9249,3.4974,3.2078,3.0048,2.8271,2.7366,2.6385,2.5381,2.4384,2.3938,2.3497,2.3402,2.3307,2.1787,2.1199,2.0335,1.9181,1.657,1.3964,1.1941,0.9621,0.6709,0.4962,0.3209,12.3631,12.2412,12.1794,12.1587,12.1587,12.1587,12.1587,12.138,12.0544,11.9699,11.8784,11.683,11.5056,11.3702,11.2154,11.1225,11.116,11.1497,11.1487,11.0776,11.0023,10.8132,10.5547,10.3586,10.2034,10.0115,9.8876,9.7777,9.6948,9.6534,9.6437,9.6293,9.6197,9.5928,9.5324,9.5736,9.6389,9.6485,9.6966,9.7496,9.7977,9.8554,9.8566,9.7972,9.7465,9.7371,9.6984,9.6216,9.602,9.6479,9.6525,9.5699,9.453,9.3309,9.0379,8.6236,8.1999,7.8332,7.6502,7.5472,7.4859,7.4749,7.4749,7.4565,7.4345,7.4198,7.4198,7.4198,7.3795,7.3428,7.2988,7.1961,7.1411,7.0679,6.9661,6.8105,6.6407,6.3352,6.087,5.8113,5.5464,5.3629,5.1241,5.0268,4.9593,4.9406,4.9192,4.8259,4.7041,4.572,4.2848,3.6557,3.3529,3.1229,2.9473,2.799,2.7069,2.643,2.5171,2.4186,2.3768,2.3632,2.351,2.3126,2.1587,2.0058,1.9181,1.7437,1.5123,1.3102,1.0785,0.8165,0.5543,0.4376,0.2918,12.282,12.2412,12.1794,12.1587,12.1587,12.1587,12.138,12.0963,12.0333,11.9273,11.7922,11.639,11.4381,11.2788,11.1458,11.0992,11.116,11.1666,11.1474,11.0928,11.0112,10.8481,10.6141,10.3795,10.1804,10.0343,9.9192,9.8057,9.7447,9.7159,9.6918,9.663,9.6582,9.6485,9.585,9.6216,9.6948,9.7189,9.7526,9.7688,9.8217,9.8698,9.8854,9.8305,9.7936,9.7886,9.7402,9.6723,9.6479,9.6801,9.6801,9.6173,9.5003,9.3738,9.1445,8.7947,8.4057,8.0508,7.7721,7.6233,7.5509,7.4859,7.4859,7.4785,7.4638,7.4602,7.4602,7.4602,7.4015,7.3612,7.3171,7.2071,7.1484,7.0716,6.9661,6.7304,6.5345,6.2996,6.0237,5.7463,5.4675,5.2747,5.119,5.0376,4.9593,4.9379,4.8897,4.807,4.5529,4.2461,3.8438,3.3254,3.1471,3.0361,2.9177,2.7693,2.7084,2.6177,2.4987,2.4296,2.389,2.3768,2.366,2.265,2.1385,1.985,1.8047,1.5702,1.3094,1.136,0.9621,0.7291,0.4962,0.2334,-0.0,12.2412,12.2206,12.1794,12.1587,12.1587,12.1587,12.1172,12.0815,11.9911,11.8845,11.705,11.5503,11.3474,11.1923,11.1225,11.0992,11.1048,11.1543,11.1405,11.0726,10.9711,10.8077,10.5806,10.3421,10.1511,10.0076,9.8941,9.8121,9.8025,9.7784,9.7399,9.6966,9.7159,9.7063,9.7015,9.7111,9.7526,9.7991,9.7864,9.788,9.8265,9.889,9.9094,9.8966,9.8691,9.8402,9.8108,9.7335,9.6755,9.6801,9.6801,9.6464,9.5589,9.4371,9.217,8.9057,8.5633,8.2581,7.967,7.7453,7.589,7.5166,7.4859,7.4859,7.4859,7.4859,7.4859,7.4822,7.4088,7.3758,7.3355,7.2254,7.1594,7.0497,6.9187,6.679,6.4466,6.2111,5.9407,5.6353,5.4101,5.2341,5.0782,5.0186,4.962,4.9352,4.887,4.8123,4.4699,4.0685,3.5992,3.1454,3.0622,2.9769,2.8584,2.7396,2.6802,2.5909,2.5016,2.4094,2.3999,2.3608,2.3501,2.2501,2.09,1.758,1.4312,1.2834,1.1353,0.9906,0.8456,0.6709,0.4379,0.1751,-0.0,12.2206,12.1587,12.1587,12.1587,12.1587,12.1587,12.1172,12.0605,11.9486,11.8354,11.6611,11.4381,11.2385,11.1458,11.0992,11.0992,11.1048,11.1572,11.1133,11.0119,10.89,10.725,10.5086,10.2824,10.0788,9.9534,9.8491,9.8217,9.8217,9.8121,9.8025,9.8073,9.7832,9.7977,9.7977,9.7832,9.7832,9.825,9.8025,9.8073,9.8458,9.9035,9.966,9.9669,9.9259,9.9064,9.8777,9.7624,9.6755,9.6755,9.6801,9.651,9.5881,9.471,9.2807,9.0253,8.7472,8.4463,8.1478,7.8331,7.5927,7.5202,7.4895,7.4932,7.4859,7.4859,7.4859,7.4785,7.4125,7.3722,7.3318,7.2621,7.1668,7.0606,6.9003,6.6567,6.398,6.1223,5.8512,5.5509,5.3195,5.171,5.0809,4.986,4.9593,4.9352,4.7663,4.6892,4.3962,3.9962,3.4877,3.1194,3.0343,2.9473,2.799,2.7099,2.6505,2.5612,2.4717,2.4121,2.3795,2.3702,2.3029,2.1449,1.9551,1.5327,1.1732,1.0829,0.9929,0.9044,0.7296,0.4959,0.3501,0.1459,-0.0,12.1794,12.1587,12.1587,12.1587,12.1587,12.1172,12.0754,12.0122,11.9059,11.705,11.5056,11.3017,11.1923,11.1225,11.0992,11.0992,11.1104,11.1181,11.0726,10.982,10.8434,10.6738,10.4354,10.2444,10.0617,9.9262,9.8491,9.8217,9.8217,9.8217,9.8217,9.8217,9.8217,9.8217,9.8217,9.8217,9.8217,9.8217,9.8217,9.8217,9.8361,9.8842,9.9468,9.9852,9.9538,9.9353,9.897,9.7439,9.6953,9.6755,9.6801,9.651,9.6173,9.5003,9.3487,9.1663,8.8885,8.5962,8.3098,7.9672,7.7064,7.5571,7.5225,7.5152,7.4932,7.4895,7.4859,7.4638,7.4162,7.3758,7.3501,7.2585,7.1373,7.0385,6.8817,6.6378,6.3719,6.0629,5.7883,5.4546,5.2781,5.13,5.0701,4.978,4.9566,4.9326,4.7367,4.5365,4.2461,3.9273,3.4481,3.1021,3.0166,2.8945,2.774,2.7114,2.6207,2.5314,2.4419,2.4121,2.3524,2.2614,2.193,2.0358,1.7886,1.393,1.1211,0.9987,0.8783,0.7888,0.5837,0.3209,0.1751,-0.0,-0.0,12.1587,12.1587,12.1587,12.1587,12.1587,12.1024,12.0333,11.9486,11.8414,11.6169,11.3532,11.2385,11.1691,11.1225,11.0992,11.0992,11.0926,11.0721,11.0078,10.8974,10.7521,10.581,10.3829,10.191,10.0347,9.9262,9.8491,9.8217,9.8217,9.8217,9.8217,9.8217,9.8217,9.8217,9.8217,9.8217,9.8217,9.8217,9.8217,9.8217,9.8265,9.8746,9.9275,9.9756,9.9491,9.9164,9.8876,9.7727,9.6861,9.6709,9.6801,9.6801,9.6173,9.5589,9.4371,9.2467,9.021,8.7254,8.428,8.0596,7.7513,7.6013,7.5482,7.5299,7.5115,7.4932,7.4859,7.4822,7.4235,7.3795,7.3685,7.2805,7.1593,7.0603,6.9067,6.662,6.2899,5.9705,5.6924,5.3856,5.2369,5.0863,5.0347,4.9455,4.8595,4.8063,4.5785,4.3859,4.1068,3.7893,3.4115,3.1581,3.002,2.8761,2.7504,2.6862,2.6222,2.4717,2.4121,2.3524,2.2926,2.2017,2.0209,1.8338,1.5565,1.2517,1.0086,0.827,0.7636,0.7304,0.4379,-0.0,-0.0,-0.0,-0.0,12.1587,12.1587,12.1587,12.1587,12.138,12.1024,12.0122,11.8999,11.7487,11.5503,11.3075,11.2154,11.1458,11.0992,11.0992,11.0992,11.0635,11.0134,10.9298,10.7932,10.6352,10.4205,10.2243,10.0568,9.9805,9.8491,9.8217,9.8217,9.8217,9.8217,9.8217,9.8217,9.8217,9.8217,9.8217,9.8217,9.8217,9.8217,9.8217,9.8217,9.8313,9.865,9.9131,9.9333,9.9485,9.9116,9.8594,9.7689,9.6827,9.6433,9.6479,9.6479,9.6525,9.5654,9.4485,9.3014,9.0937,8.8025,8.5273,8.0288,7.7587,7.6197,7.5592,7.5372,7.5299,7.5115,7.4859,7.4822,7.4455,7.4052,7.3685,7.3208,7.1734,7.0193,6.8654,6.6166,6.2766,5.9109,5.6324,5.3799,5.1628,5.0127,4.9641,4.9103,4.7922,4.6504,4.4525,4.2052,3.9642,3.6861,3.3439,3.1509,2.9937,2.8637,2.7658,2.6892,2.5924,2.4731,2.3524,2.2926,2.2029,2.052,1.87,1.6281,1.3838,1.1087,0.8649,0.6533,0.6201,0.5581,0.2631,-0.0,-0.0,-0.0,-0.0,12.1587,12.1587,12.1587,12.138,12.0963,12.0333,11.9699,11.857,11.6169,11.3929,11.2385,11.1691,11.1225,11.0992,11.0992,11.0758,11.0399,10.969,10.8618,10.7131,10.5433,10.3478,10.1661,10.0076,9.9262,9.8491,9.8217,9.8217,9.8217,9.8217,9.8217,9.8217,9.8217,9.8217,9.8217,9.8217,9.8217,9.8217,9.8217,9.8217,9.8217,9.8409,9.8746,9.9275,9.9238,9.8733,9.8124,9.7414,9.6605,9.617,9.5836,9.579,9.5836,9.526,9.4347,9.2847,9.1087,8.7993,8.4219,7.9749,7.7475,7.636,7.5592,7.5335,7.5115,7.4969,7.4895,7.4785,7.4492,7.4125,7.3685,7.3281,7.1988,7.0076,6.8168,6.5379,6.2301,5.8965,5.6053,5.3743,5.1655,5.0428,4.9588,4.8805,4.765,4.5687,4.3729,4.1338,3.8935,3.6217,3.3108,3.1467,3.0152,2.8541,2.7526,2.7058,2.6055,2.4543,2.3277,2.2627,2.1119,1.9321,1.6609,1.4194,1.2066,0.9641,0.7491,0.5662,0.5049,0.3546,0.147,-0.0,-0.0,-0.0,-0.0,12.1587,12.1587,12.1587,12.1172,12.0815,12.0122,11.9212,11.7487,11.4607,11.2845,11.1923,11.1225,11.0992,11.0992,11.0992,11.0758,11.0108,10.938,10.8078,10.6381,10.4616,10.2694,10.1176,9.9805,9.8989,9.8491,9.8217,9.8217,9.8217,9.8217,9.8217,9.8217,9.8217,9.8217,9.8217,9.8217,9.8217,9.8217,9.8217,9.8217,9.8217,9.8313,9.8506,9.889,9.8854,9.8441,9.7606,9.7136,9.6524,9.5433,9.4862,9.4816,9.4907,9.4666,9.4092,9.3181,9.0052,8.6765,8.2828,7.9632,7.7296,7.5607,7.5372,7.5335,7.5079,7.4969,7.4895,7.4785,7.4492,7.4125,7.3685,7.3318,7.2134,6.9921,6.7345,6.485,6.18,5.8757,5.5538,5.3497,5.1765,5.0508,4.9588,4.8454,4.7353,4.5164,4.3273,4.057,3.8155,3.5404,3.2965,3.1334,3.0013,2.8683,2.7663,2.7239,2.5928,2.4653,2.3369,2.2078,1.9921,1.811,1.5105,1.2401,1.0271,0.8145,0.6308,0.4788,0.4476,0.3565,0.1774,-0.0,-0.0,-0.0,-0.0,12.1587,12.1587,12.1587,12.1172,12.0815,11.9972,11.7981,11.5503,11.3702,11.2615,11.1923,11.1225,11.0992,11.0992,11.0992,11.0579,11.0038,10.9232,10.764,10.593,10.4156,10.2421,10.0639,9.9534,9.8716,9.8491,9.8217,9.8217,9.8217,9.8217,9.8217,9.8217,9.8217,9.8217,9.8217,9.8217,9.8217,9.8217,9.8217,9.8217,9.8217,9.8217,9.8458,9.8698,9.889,9.8203,9.7276,9.6761,9.6008,9.5203,9.4724,9.5056,9.5102,9.5193,9.4621,9.3002,8.9076,8.5415,8.2046,7.9091,7.6883,7.535,7.5225,7.5335,7.5262,7.5005,7.4895,7.4749,7.4528,7.4088,7.3685,7.2944,7.1871,6.9467,6.7116,6.4319,6.1265,5.8278,5.5352,5.3032,5.1599,5.0394,4.942,4.8259,4.6584,4.4339,4.1842,3.9062,3.6639,3.4509,3.2372,3.113,2.9806,2.8809,2.809,2.7086,2.5755,2.4144,2.2542,2.125,1.9075,1.6609,1.36,1.0886,0.8773,0.6646,0.482,0.4209,0.4499,-0.0,-0.0,-0.0,-0.0,-0.0,-0.0,12.1156,12.1587,12.1172,12.0754,11.9972,11.8557,11.6522,11.4155,11.2903,11.1984,11.1225,11.0992,11.0992,11.0992,11.0992,11.0567,10.9896,10.9079,10.7716,10.574,10.3637,10.1942,10.037,9.9262,9.8491,9.8217,9.8217,9.8217,9.8217,9.8217,9.8217,9.8217,9.8217,9.8217,9.8217,9.8217,9.8217,9.8217,9.8217,9.8217,9.8217,9.8217,9.8361,9.8458,9.8506,9.7821,9.671,9.6431,9.5638,9.4466,9.4183,9.4137,9.4137,9.4183,9.3571,9.1862,8.818,8.4621,8.1906,7.9162,7.6695,7.5166,7.5005,7.5005,7.5005,7.4969,7.4859,7.4675,7.4418,7.4015,7.3575,7.2534,7.1571,6.9608,6.6723,6.3649,6.0613,5.7582,5.4614,5.2507,5.1073,5.0278,4.9631,4.7839,4.5857,4.3277,4.0725,3.7913,3.5423,3.3307,3.2083,3.084,2.9596,2.8581,2.7646,2.6959,2.5273,2.3934,2.2314,2.0391,1.786,1.5105,1.2394,0.9684,0.7266,0.545,0.3328,0.332,0.3313,-0.0,-0.0,-0.0,-0.0,-0.0,-0.0,12.0849,12.1218,12.0902,12.0122,11.869,11.7481,11.5413,11.3532,11.2501,11.1866,11.0992,11.0992,11.0992,11.0992,11.1048,11.0623,10.9988,10.8866,10.7434,10.5289,10.3108,10.1344,9.9978,9.8716,9.8491,9.8217,9.8217,9.8217,9.8217,9.8217,9.8217,9.8217,9.8217,9.8217,9.8217,9.8217,9.8217,9.8217,9.8217,9.8217,9.8217,9.8217,9.8217,9.8217,9.8217,9.7392,9.6516,9.6239,9.5405,9.4286,9.4005,9.3724,9.3724,9.3724,9.316,9.1218,8.8298,8.5045,8.2084,7.9123,7.6695,7.5472,7.4859,7.4895,7.4895,7.4895,7.4749,7.4565,7.4235,7.3868,7.3163,7.2461,7.097,6.9749,6.6358,6.3338,5.9952,5.6877,5.4422,5.2285,5.118,5.0438,4.9262,4.7464,4.54,4.2765,4.0206,3.7083,3.4871,3.2695,3.147,3.0243,2.9321,2.8367,2.7429,2.6447,2.5078,2.3708,2.2084,1.9831,1.6976,1.36,1.0886,0.8173,0.6059,0.424,0.3029,0.212,-0.0,-0.0,-0.0,-0.0,-0.0,-0.0,-0.0,12.0479,12.0458,12.0509,11.9273,11.7168,11.6711,11.5077,11.2902,11.2211,11.1747,11.0992,11.0992,11.0992,11.1048,11.0926,11.0609,10.9727,10.8511,10.6805,10.457,10.2622,10.0788,9.9485,9.8491,9.8217,9.8217,9.8217,9.8217,9.8217,9.8217,9.8217,9.8217,9.8217,9.8217,9.8217,9.8217,9.8217,9.8217,9.8217,9.8217,9.8217,9.8217,9.8217,9.8217,9.8217,9.7943,9.7069,9.6516,9.5683,9.4846,9.4286,9.3724,9.3724,9.3724,9.2878,9.1128,8.8211,8.5255,8.2044,7.9084,7.6695,7.5472,7.4859,7.4859,7.4859,7.4749,7.4565,7.4345,7.4015,7.3612,7.2907,7.1679,7.0456,6.8511,6.5888,6.2891,5.9556,5.6411,5.3199,5.1728,5.0982,5.0239,4.8887,4.7082,4.4377,4.2014,3.9075,3.594,3.3991,3.2101,3.1181,2.9952,2.9029,2.809,2.7473,2.6168,2.484,2.3493,2.1535,1.8659,1.519,1.212,0.9075,0.6963,0.5151,0.3939,0.303,0.2121,-0.0,-0.0,-0.0,-0.0,-0.0,-0.0,-0.0,11.9475,11.9837,11.9244,11.7764,11.6065,11.6331,11.4794,11.2154,11.1515,11.1282,11.0992,11.0992,11.0992,11.1048,11.1027,11.0522,10.9681,10.82,10.6626,10.441,10.2394,10.0617,9.9262,9.8491,9.8217,9.8217,9.8217,9.8217,9.8217,9.8217,9.8217,9.8217,9.8217,9.8217,9.8217,9.8217,9.8217,9.8217,9.8217,9.8217,9.8217,9.8217,9.8217,9.8217,9.8217,9.7943,9.7069,9.6516,9.5683,9.4846,9.4005,9.3724,9.3724,9.3724,9.2878,9.1173,8.85,8.5255,8.2301,7.9084,7.6695,7.5472,7.4859,7.4859,7.4785,7.4565,7.4308,7.4052,7.3758,7.3355,7.2688,7.1463,6.9749,6.7571,6.5076,6.2103,5.9155,5.5576,5.1999,5.1503,5.1062,5.0038,4.8709,4.6387,4.367,4.0355,3.6749,3.4157,3.2784,3.1181,3.0583,2.9661,2.8413,2.7488,2.6871,2.5902,2.4265,2.1985,2.0041,1.7157,1.3699,1.062,0.7568,0.6056,0.4545,0.3636,0.2727,0.1212,-0.0,-0.0,-0.0,-0.0,-0.0,-0.0,-0.0,11.8779,11.9201,11.8209,11.683,11.5396,11.5019,11.3762,11.1979,11.1225,11.0992,11.0992,11.0992,11.0992,11.1104,11.0958,11.0615,10.9711,10.8023,10.6015,10.4092,10.2228,10.0396,9.931,9.8491,9.8217,9.8217,9.8217,9.8217,9.8217,9.8217,9.8217,9.8217,9.8217,9.8217,9.8217,9.8217,9.8169,9.8217,9.8217,9.8169,9.8217,9.8217,9.8217,9.8217,9.8217,9.7943,9.7344,9.6792,9.5961,9.5126,9.4286,9.3724,9.3724,9.3442,9.2595,9.0843,8.8211,8.4961,8.2044,7.9386,7.6695,7.5472,7.4859,7.4859,7.4749,7.4492,7.4052,7.3758,7.3465,7.3098,7.2506,7.1318,6.9148,6.7268,6.3856,6.0661,5.7303,5.3836,5.1906,5.1356,5.0889,4.9477,4.7864,4.5681,4.293,3.9496,3.5923,3.3288,3.1915,3.0633,3.0017,2.9417,2.8166,2.7195,2.6548,2.5298,2.3391,2.1109,1.8549,1.5013,1.1871,0.8499,0.6059,0.5151,0.4545,0.3939,0.2727,0.1212,-0.0,-0.0,-0.0,-0.0,-0.0,-0.0,-0.0,11.8268,11.8237,11.7384,11.6169,11.4439,11.3361,11.2442,11.1691,11.1225,11.0992,11.0992,11.0992,11.0992,11.0982,11.0832,11.043,10.9275,10.7482,10.545,10.314,10.1574,9.9903,9.8765,9.8217,9.8217,9.8217,9.8217,9.8217,9.8217,9.8217,9.8217,9.8217,9.8217,9.8217,9.8169,9.8121,9.8073,9.8121,9.8121,9.8121,9.8169,9.8217,9.8217,9.8217,9.8217,9.8217,9.7668,9.7069,9.6239,9.5405,9.4566,9.4005,9.3442,9.316,9.2027,9.0557,8.7675,8.4709,8.1746,7.9084,7.7,7.5472,7.5166,7.4785,7.4638,7.4345,7.3868,7.3501,7.3245,7.2615,7.2025,7.0684,6.8847,6.6089,6.2663,5.9177,5.5752,5.2675,5.2094,5.149,5.0327,4.9196,4.7298,4.5134,4.1804,3.8694,3.5691,3.365,3.1675,3.0766,2.9854,2.9234,2.7993,2.7298,2.6339,2.441,2.2536,1.9963,1.7076,1.3508,1.0042,0.7286,0.5456,0.5151,0.4545,0.3939,0.303,0.1515,-0.0,-0.0,-0.0,-0.0,-0.0,-0.0,-0.0,11.6814,11.6555,11.6079,11.5056,11.3986,11.3131,11.2206,11.1282,11.0992,11.0992,11.0992,11.0992,11.0992,11.1104,11.1039,11.0144,10.8287,10.6573,10.4252,10.191,10.0765,9.9359,9.8491,9.8217,9.8217,9.8217,9.8217,9.8217,9.8217,9.8217,9.8217,9.8217,9.8217,9.8169,9.8121,9.7977,9.7784,9.788,9.788,9.7784,9.8169,9.8217,9.8217,9.8217,9.8217,9.8217,9.7943,9.6792,9.6239,9.5683,9.4566,9.4005,9.3442,9.2878,9.2027,9.0271,8.7384,8.4373,8.1407,7.8705,7.6582,7.5018,7.4675,7.4712,7.4528,7.4308,7.3868,7.3501,7.3135,7.2433,7.1581,7.0049,6.8244,6.4565,6.0846,5.7566,5.4223,5.2702,5.1784,5.1181,5.0301,4.8914,4.699,4.4467,4.0958,3.7925,3.5021,3.2658,3.1192,3.0277,2.9687,2.8752,2.8128,2.6922,2.5683,2.332,2.1386,1.8502,1.5582,1.1703,0.8547,0.638,0.4853,0.4848,0.4848,0.4547,0.303,-0.0,-0.0,-0.0,-0.0,-0.0,-0.0,-0.0,-0.0]},{"header":{"parameterUnit":"m.s-1","parameterCategory":1,"la1":31.0,"la2":29.5877,"lo1":-88.7671,"lo2":-86.6584,"dy":0.0162,"dx":0.0185,"nx":115,"ny":88,"refTime":"2026-03-14T00:00:00:Z","depth":0,"parameterNumber":3,"parameterNumberName":"V-component_of_WINDS"},"data":[0.0,0.0,0.0,0.0,0.0,0.0,0.0,0.0,0.0,0.0,0.0,0.0,0.0,0.0,0.0,0.0,0.0,0.0,0.0,0.0,0.0,0.0,0.0,0.0,0.0,0.0,0.0,0.0,0.0,0.0,0.0,0.0,0.0,0.0,0.0,0.0,0.0,0.0,0.0,0.0,0.0,0.0,0.0,0.0,0.0,0.0,0.0,0.0,0.0,0.0,0.0,0.0,0.0,0.0,0.0,0.0,0.0,0.0,0.0,0.0,0.0,0.0,0.0,0.0,0.0,0.0,0.0,0.0,0.0,0.0,0.0,0.0,0.0,0.0,0.0,0.0,0.0,0.0,0.0,0.0,0.0,0.0,0.0,0.0,0.0,0.0,0.0,0.0,0.0,0.0,0.0,0.0,0.0,0.0,0.0,0.0,0.0,0.0,0.0,0.0,0.0,0.0,0.0,0.0,0.0,0.0,0.0,0.0,0.0,0.0,0.0,0.0,0.0,0.0,0.0,0.0,0.0,0.0,0.0,0.0,0.0,0.0,0.0,0.0,0.0,0.0,0.0,0.0,0.0,0.0,0.0,0.0,0.0,0.0,0.0,0.0,0.0,0.0,0.0,0.0,0.0,0.0,0.0,0.0,0.0,0.0,0.0,0.0,0.0,0.0,0.0,0.0,0.0,0.0,0.0,0.0,0.0,0.0,0.0,0.0,0.0,0.0,0.0,0.0,0.0,0.0,0.0,0.0,0.0,0.0,0.0,0.0,0.0,0.0,0.0,0.0,0.0,0.0,0.0,0.0,0.0,0.0,0.0,0.0,0.0,0.0,0.0,0.0,0.0,0.0,0.0,0.0,0.0,0.0,0.0,0.0,0.0,0.0,0.0,0.0,0.0,0.0,0.0,0.0,0.0,0.0,0.0,0.0,0.0,0.0,0.0,0.0,0.0,0.0,0.0,0.0,0.0,0.0,0.0,0.0,0.0,0.0,0.0,0.0,0.0,0.0,0.0,0.0,0.0,0.0,0.0,0.0,0.0,0.0,0.0,0.0,0.0,0.0,0.0,0.0,0.0,0.0,0.0,0.0,0.0,0.0,0.0,0.0,0.0,0.0,0.0,0.0,0.0,0.0,0.0,0.0,0.0,0.0,0.0,0.0,0.0,0.0,0.0,0.0,0.0,0.0,0.0,0.0,0.0,0.0,0.0,0.0,0.0,0.0,0.0,0.0,0.0,0.0,0.0,0.0,0.0,0.0,0.0,0.0,0.0,0.0,0.0,0.0,0.0,0.0,0.0,0.0,0.0,0.0,0.0,0.0,0.0,0.0,0.0,0.0,0.0,0.0,0.0,0.0,0.0,0.0,0.0,0.0,0.0,0.0,0.0,0.0,0.0,0.0,0.0,0.0,0.0,0.0,0.0,0.0,0.0,0.0,0.0,0.0,0.0,0.0,0.0,0.0,0.0,0.0,0.0,0.0,0.0,0.0,0.0,0.0,0.0,0.0,0.0,0.0,0.0,0.0,0.0,0.0,0.0,0.0,0.0,0.0,0.0,0.0,0.0,0.0,0.0,0.0,0.0,0.0,0.0,0.0,0.0,0.0,0.0,0.0,0.0,0.0,0.0,0.0,0.0,0.0,0.0,0.0,0.0,0.0,0.0,0.0,0.0,0.0,0.0,0.0,0.0,0.0,0.0,0.0,0.0,0.0,0.0,0.0,0.0,0.0,0.0,0.0,0.0,0.0,0.0,0.0,0.0,0.0,0.0,0.0,0.0,0.0,0.0,0.0,0.0,0.0,0.0,0.0,0.0,0.0,0.0,0.0,0.0,0.0,0.0,0.0,0.0,0.0,0.0,0.0,0.0,0.0,0.0,0.0,0.0,0.0,0.0,0.0,0.0,0.0,0.0,0.0,0.0,0.0,0.0,0.0,0.0,0.0,0.0,0.0,0.0,0.0,0.0,0.0,0.0,0.0,0.0,0.0,0.0,0.0,0.0,0.0,0.0,0.0,0.0,0.0,0.0,0.0,0.0,0.0,0.0,0.0,0.0,0.0,0.0,0.0,0.0,0.0,0.0,0.0,0.0,0.0,0.0,0.0,0.0,0.0,0.0,0.0,0.0,0.0,0.0,0.0,0.0,0.0,0.0,0.0,0.0,0.0,0.0,0.0,0.0,0.0,0.0,0.0,0.0,0.0,0.0,0.0,0.0,0.0,0.0,0.0,0.0,0.0,0.0,0.0,0.0,0.0,0.0,0.0,0.0,0.0,0.0,0.0,0.0,0.0,0.0,0.0,0.0,0.0,0.0,0.0,0.0,0.0,0.0,0.0,0.0,0.0,0.0,0.0,0.0,0.0,0.0,0.0,0.0,0.0,0.0,0.0,0.0,0.0,0.0,0.0,0.0,0.0,0.0,0.0,0.0,0.0,0.0,0.0,0.0,0.0,0.0,0.0,0.0,0.0,0.0,0.0,0.0,0.0,0.0,0.0,0.0,0.0,0.0,0.0,0.0,0.0,0.0,0.0,0.0,0.0,0.0,0.0,0.0,0.0,0.0,0.0,0.0,0.0,0.0,0.0,0.0,0.0,0.0,0.0,0.0,0.0,0.0,0.0,0.0,0.0,0.0,0.0,0.0,0.0,0.0,0.0,0.0,0.0,0.0,0.0,0.0,0.0,0.0,0.0,0.0,0.0,0.0,0.0,0.0,0.0,0.0,0.0,0.0,0.0,0.0,0.0,0.0,0.0,0.0,0.0,0.0,0.0,0.0,0.0,0.0,0.0,0.0,0.0,0.0,0.0,0.0,0.0,0.0,0.0,0.0,0.0,0.0,0.0,0.0,0.0,0.0,0.0,0.0,0.0,0.0,0.0,0.0,0.0,0.0,0.0,0.0,0.0,0.0,0.0,0.0,0.0,0.0,0.0,0.0,0.0,0.0,0.0,0.0,0.0,0.0,0.0,0.0,0.0,0.0,0.0,0.0,0.0,0.0,0.0,0.0,0.0,0.0,0.0,0.0,0.0,0.0,0.0,0.0,0.0,0.0,0.0,0.0,0.0,0.0,0.0,0.0,0.0,0.0,0.0,0.0,0.0,0.0,0.0,0.0,0.0,0.0,0.0,0.0,0.0,0.0,0.0,0.0,0.0,0.0,0.0,0.0,0.0,0.0,0.0,0.0,0.0,0.0,0.0,0.0,0.0,0.0,0.0,0.0,0.0,0.0,0.0,0.0,0.0,0.0,0.0,0.0,0.0,0.0,0.0,0.0,0.0,0.0,0.0,0.0,0.0,0.0,0.0,0.0,0.0,0.0,0.0,0.0,0.0,0.0,0.0,0.0,0.0,0.0,0.0,0.0,0.0,0.0,0.0,0.0,0.0,0.0,0.0,0.0,0.0,0.0,0.0,0.0,0.0,0.0,0.0,0.0,0.0,0.0,0.0,0.0,0.0,0.0,0.0,0.0,0.0,0.0,0.0,0.0,0.0,0.0,0.0,0.0,0.0,0.0,0.0,0.0,0.0,0.0,0.0,0.0,0.0,0.0,0.0,0.0,0.0,0.0,0.0,0.0,0.0,0.0,0.0,0.0,0.0,0.0,0.0,0.0,0.0,0.0,0.0,0.0,0.0,0.0,0.0,0.0,0.0,0.0,0.0,0.0,0.0,0.0,0.0,0.0,0.0,0.0,0.0,0.0,0.0,0.0,0.0,0.0,0.0,0.0,0.0,0.0,0.0,0.0,0.0,0.0,0.0,0.0,0.0,0.0,0.0,0.0,0.0,0.0,0.0,0.0,0.0,0.0,0.0,0.0,0.0,0.0,0.0,0.0,0.0,0.0,0.0,0.0,0.0,0.0,0.0,0.0,0.0,0.0,0.0,0.0,0.0,0.0,0.0,0.0,0.0,0.0,0.0,0.0,0.0,0.0,0.0,0.0,0.0,0.0,0.0,0.0,0.0,0.0,0.0,0.0,0.0,0.0,0.0,0.0,0.0,0.0,0.0,0.0,0.0,0.0,0.0,0.0,0.0,0.0,0.0,0.0,0.0,0.0,0.0,0.0,0.0,0.0,0.0,0.0,0.0,0.0,0.0,0.0,0.0,0.0,0.0,0.0,0.0,0.0,0.0,0.0,0.0,0.0,0.0,0.0,0.0,0.0,0.0,0.0,0.0,0.0,0.0,0.0,0.0,0.0,0.0,0.0,0.0,0.0,0.0,0.0,0.0,0.0,0.0,0.0,0.0,0.0,0.0,0.0,0.0,0.0,0.0,0.0,0.0,0.0,0.0,0.0,0.0,-6.2703,0.0,0.0,0.0,0.0,0.0,0.0,0.0,0.0,0.0,0.0,0.0,0.0,0.0,0.0,0.0,0.0,0.0,0.0,0.0,0.0,0.0,0.0,0.0,0.0,0.0,0.0,0.0,0.0,0.0,0.0,0.0,0.0,0.0,0.0,0.0,0.0,0.0,0.0,0.0,0.0,0.0,0.0,0.0,0.0,0.0,0.0,0.0,0.0,0.0,0.0,0.0,0.0,0.0,0.0,0.0,0.0,0.0,0.0,0.0,0.0,0.0,0.0,0.0,0.0,0.0,0.0,0.0,0.0,0.0,0.0,0.0,0.0,0.0,0.0,0.0,0.0,0.0,0.0,0.0,0.0,0.0,0.0,0.0,0.0,0.0,0.0,0.0,0.0,0.0,0.0,0.0,0.0,0.0,0.0,0.0,0.0,0.0,0.0,0.0,0.0,0.0,0.0,0.0,0.0,0.0,0.0,0.0,0.0,0.0,0.0,-6.8218,-6.787,-6.6999,-6.5489,-6.3167,0.0,0.0,0.0,0.0,0.0,0.0,0.0,0.0,0.0,0.0,0.0,0.0,0.0,0.0,0.0,0.0,0.0,0.0,0.0,0.0,0.0,0.0,0.0,0.0,0.0,0.0,0.0,0.0,0.0,0.0,0.0,0.0,0.0,0.0,0.0,0.0,0.0,0.0,0.0,0.0,0.0,0.0,0.0,0.0,0.0,0.0,0.0,0.0,0.0,0.0,0.0,0.0,0.0,0.0,0.0,0.0,0.0,0.0,0.0,0.0,0.0,0.0,0.0,0.0,0.0,0.0,0.0,0.0,0.0,0.0,0.0,0.0,0.0,0.0,0.0,0.0,0.0,0.0,0.0,0.0,0.0,0.0,0.0,0.0,0.0,0.0,0.0,0.0,0.0,0.0,0.0,0.0,0.0,0.0,0.0,0.0,0.0,0.0,0.0,0.0,0.0,0.0,0.0,0.0,0.0,0.0,0.0,0.0,0.0,0.0,0.0,0.0,-6.7986,-6.6302,-6.3058,0.0,0.0,0.0,0.0,0.0,0.0,0.0,0.0,0.0,0.0,0.0,0.0,0.0,0.0,0.0,0.0,0.0,0.0,0.0,0.0,0.0,0.0,0.0,0.0,0.0,0.0,0.0,0.0,0.0,0.0,0.0,0.0,0.0,0.0,0.0,0.0,0.0,0.0,0.0,0.0,0.0,0.0,0.0,0.0,0.0,0.0,0.0,0.0,0.0,0.0,0.0,0.0,0.0,0.0,0.0,0.0,0.0,0.0,0.0,0.0,0.0,0.0,0.0,0.0,0.0,0.0,0.0,0.0,0.0,0.0,0.0,0.0,0.0,0.0,0.0,0.0,0.0,0.0,0.0,0.0,0.0,0.0,0.0,0.0,0.0,0.0,0.0,0.0,0.0,0.0,0.0,0.0,0.0,0.0,0.0,0.0,0.0,0.0,0.0,0.0,0.0,0.0,0.0,0.0,0.0,0.0,0.0,0.0,0.0,0.0,-6.8799,-6.8741,-6.816,0.0,-6.29,0.0,0.0,0.0,0.0,0.0,0.0,0.0,0.0,0.0,0.0,0.0,0.0,0.0,0.0,0.0,0.0,0.0,0.0,0.0,0.0,0.0,0.0,0.0,0.0,0.0,0.0,0.0,0.0,0.0,0.0,0.0,0.0,0.0,0.0,0.0,0.0,0.0,0.0,0.0,0.0,0.0,0.0,0.0,0.0,0.0,0.0,0.0,0.0,0.0,0.0,0.0,0.0,0.0,0.0,0.0,0.0,0.0,0.0,0.0,0.0,0.0,0.0,0.0,0.0,0.0,0.0,0.0,0.0,0.0,0.0,0.0,0.0,0.0,0.0,0.0,0.0,0.0,0.0,0.0,0.0,0.0,0.0,0.0,0.0,0.0,0.0,0.0,0.0,0.0,0.0,0.0,0.0,0.0,0.0,0.0,0.0,0.0,0.0,0.0,0.0,0.0,0.0,0.0,0.0,0.0,0.0,0.0,0.0,0.0,0.0,0.0,-6.8799,-6.7463,-6.556,0.0,0.0,0.0,0.0,0.0,0.0,0.0,0.0,0.0,0.0,0.0,0.0,0.0,0.0,0.0,0.0,0.0,0.0,0.0,0.0,0.0,0.0,0.0,0.0,0.0,0.0,0.0,0.0,0.0,0.0,0.0,0.0,0.0,0.0,0.0,0.0,0.0,0.0,0.0,0.0,0.0,0.0,0.0,0.0,0.0,0.0,0.0,0.0,0.0,0.0,0.0,0.0,0.0,0.0,0.0,0.0,0.0,0.0,0.0,0.0,0.0,0.0,0.0,0.0,0.0,0.0,0.0,0.0,0.0,0.0,0.0,0.0,0.0,0.0,0.0,0.0,0.0,0.0,0.0,0.0,0.0,0.0,0.0,0.0,0.0,0.0,0.0,0.0,0.0,0.0,0.0,0.0,0.0,0.0,0.0,0.0,0.0,0.0,0.0,0.0,0.0,0.0,0.0,0.0,0.0,0.0,0.0,0.0,0.0,0.0,-6.8065,0.0,-6.845,-6.6709,-6.4804,-6.3076,0.0,0.0,0.0,0.0,0.0,0.0,0.0,0.0,0.0,0.0,0.0,0.0,0.0,0.0,0.0,0.0,0.0,0.0,0.0,0.0,0.0,0.0,0.0,0.0,0.0,0.0,0.0,0.0,0.0,0.0,0.0,0.0,0.0,0.0,0.0,0.0,0.0,0.0,0.0,0.0,0.0,0.0,0.0,0.0,0.0,0.0,0.0,0.0,0.0,0.0,0.0,0.0,0.0,0.0,0.0,0.0,0.0,0.0,0.0,0.0,0.0,0.0,0.0,0.0,0.0,0.0,0.0,0.0,0.0,0.0,0.0,0.0,0.0,0.0,0.0,0.0,0.0,0.0,0.0,0.0,0.0,0.0,0.0,0.0,0.0,0.0,0.0,0.0,0.0,0.0,0.0,0.0,0.0,0.0,0.0,0.0,0.0,0.0,0.0,0.0,0.0,0.0,0.0,0.0,0.0,0.0,0.0,0.0,0.0,-6.7736,-6.7928,-6.787,-6.607,-6.4114,0.0,0.0,0.0,0.0,0.0,0.0,0.0,0.0,0.0,0.0,0.0,0.0,0.0,0.0,0.0,0.0,0.0,0.0,0.0,0.0,0.0,0.0,0.0,0.0,0.0,0.0,0.0,0.0,0.0,0.0,0.0,0.0,0.0,0.0,0.0,0.0,0.0,0.0,0.0,0.0,0.0,0.0,0.0,0.0,0.0,0.0,0.0,0.0,0.0,0.0,0.0,0.0,0.0,0.0,0.0,0.0,0.0,0.0,0.0,0.0,0.0,0.0,0.0,0.0,0.0,0.0,0.0,0.0,0.0,0.0,0.0,0.0,0.0,0.0,0.0,0.0,0.0,0.0,0.0,0.0,0.0,0.0,0.0,0.0,0.0,0.0,0.0,0.0,0.0,0.0,0.0,0.0,0.0,0.0,0.0,0.0,0.0,0.0,0.0,0.0,0.0,0.0,0.0,0.0,0.0,0.0,0.0,0.0,0.0,-6.6388,-6.7057,-6.7057,-6.6593,-6.5548,-6.4056,0.0,0.0,0.0,0.0,0.0,0.0,0.0,0.0,0.0,0.0,0.0,0.0,0.0,0.0,0.0,0.0,0.0,0.0,0.0,0.0,0.0,0.0,0.0,0.0,0.0,0.0,0.0,0.0,0.0,0.0,0.0,0.0,0.0,0.0,0.0,0.0,0.0,0.0,0.0,0.0,0.0,0.0,0.0,0.0,0.0,0.0,0.0,0.0,0.0,0.0,0.0,0.0,0.0,0.0,0.0,0.0,0.0,0.0,0.0,0.0,0.0,0.0,0.0,0.0,0.0,0.0,0.0,0.0,0.0,0.0,0.0,0.0,0.0,0.0,0.0,0.0,0.0,0.0,0.0,0.0,0.0,0.0,0.0,0.0,0.0,0.0,0.0,0.0,0.0,0.0,0.0,0.0,0.0,0.0,0.0,0.0,0.0,0.0,0.0,0.0,0.0,0.0,0.0,0.0,0.0,0.0,0.0,0.0,0.0,-6.6244,0.0,-6.6709,0.0,-6.5199,-6.3706,0.0,0.0,0.0,0.0,0.0,0.0,0.0,0.0,0.0,0.0,0.0,0.0,0.0,0.0,0.0,0.0,0.0,0.0,0.0,0.0,0.0,0.0,0.0,0.0,0.0,0.0,0.0,0.0,0.0,0.0,0.0,0.0,0.0,0.0,0.0,0.0,0.0,0.0,0.0,0.0,0.0,0.0,0.0,0.0,0.0,0.0,0.0,0.0,0.0,0.0,0.0,0.0,0.0,0.0,0.0,0.0,0.0,0.0,0.0,0.0,0.0,0.0,0.0,0.0,0.0,0.0,0.0,0.0,0.0,0.0,0.0,0.0,0.0,0.0,0.0,0.0,0.0,0.0,0.0,0.0,0.0,0.0,0.0,0.0,0.0,0.0,0.0,0.0,0.0,0.0,0.0,0.0,0.0,0.0,0.0,0.0,0.0,0.0,0.0,0.0,0.0,0.0,0.0,0.0,0.0,0.0,0.0,0.0,-6.591,-6.6883,-6.6941,-6.6999,-6.6883,-6.5083,-6.3123,0.0,0.0,0.0,0.0,0.0,0.0,0.0,0.0,0.0,0.0,0.0,0.0,0.0,0.0,0.0,0.0,0.0,0.0,0.0,0.0,0.0,0.0,0.0,0.0,0.0,0.0,0.0,0.0,0.0,0.0,0.0,0.0,0.0,0.0,0.0,0.0,0.0,0.0,0.0,0.0,0.0,0.0,0.0,0.0,0.0,0.0,0.0,0.0,0.0,0.0,0.0,0.0,0.0,0.0,0.0,0.0,0.0,0.0,0.0,0.0,0.0,0.0,0.0,0.0,0.0,0.0,0.0,0.0,0.0,0.0,0.0,0.0,0.0,0.0,0.0,0.0,0.0,0.0,0.0,0.0,0.0,0.0,0.0,0.0,0.0,0.0,0.0,0.0,0.0,0.0,0.0,0.0,0.0,0.0,0.0,0.0,0.0,0.0,0.0,0.0,0.0,0.0,0.0,0.0,0.0,0.0,0.0,0.0,0.0,-6.758,-6.845,-6.845,-6.758,-6.6128,-6.4172,0.0,0.0,0.0,0.0,0.0,0.0,0.0,0.0,0.0,0.0,0.0,0.0,0.0,0.0,0.0,0.0,0.0,0.0,0.0,0.0,0.0,0.0,0.0,0.0,0.0,0.0,0.0,0.0,0.0,0.0,0.0,0.0,0.0,0.0,0.0,0.0,0.0,0.0,0.0,0.0,0.0,0.0,0.0,0.0,0.0,0.0,0.0,0.0,0.0,0.0,0.0,0.0,0.0,0.0,0.0,0.0,0.0,0.0,0.0,0.0,0.0,0.0,0.0,0.0,0.0,0.0,0.0,0.0,0.0,0.0,0.0,0.0,0.0,0.0,0.0,0.0,0.0,0.0,0.0,0.0,0.0,0.0,0.0,0.0,0.0,0.0,0.0,0.0,0.0,0.0,0.0,0.0,0.0,0.0,0.0,0.0,0.0,0.0,0.0,0.0,0.0,0.0,0.0,0.0,0.0,0.0,0.0,0.0,0.0,-7.1702,-7.1876,-7.1411,-7.0366,-6.8625,-6.6516,-6.3858,0.0,0.0,0.0,0.0,0.0,0.0,0.0,0.0,0.0,0.0,0.0,0.0,0.0,0.0,0.0,0.0,0.0,0.0,0.0,0.0,0.0,0.0,0.0,0.0,0.0,0.0,0.0,0.0,0.0,0.0,0.0,0.0,0.0,0.0,0.0,0.0,0.0,0.0,0.0,0.0,0.0,0.0,0.0,0.0,0.0,0.0,0.0,0.0,0.0,0.0,0.0,0.0,0.0,0.0,0.0,0.0,0.0,0.0,0.0,0.0,0.0,0.0,0.0,0.0,0.0,0.0,0.0,0.0,0.0,0.0,0.0,0.0,0.0,0.0,0.0,0.0,0.0,0.0,0.0,0.0,0.0,0.0,0.0,0.0,0.0,0.0,0.0,0.0,0.0,0.0,0.0,0.0,0.0,0.0,0.0,0.0,0.0,0.0,0.0,0.0,0.0,0.0,0.0,0.0,0.0,0.0,0.0,0.0,-7.8727,-7.7217,-7.5998,-7.5011,-7.2456,-6.9612,0.0,0.0,0.0,0.0,0.0,0.0,0.0,0.0,0.0,0.0,0.0,0.0,0.0,0.0,0.0,0.0,0.0,0.0,0.0,0.0,0.0,0.0,0.0,0.0,0.0,0.0,0.0,0.0,0.0,0.0,0.0,0.0,0.0,0.0,0.0,0.0,0.0,0.0,0.0,0.0,0.0,0.0,0.0,0.0,0.0,0.0,0.0,0.0,0.0,0.0,0.0,0.0,0.0,0.0,0.0,0.0,0.0,0.0,0.0,0.0,0.0,0.0,0.0,0.0,0.0,0.0,0.0,0.0,0.0,0.0,0.0,0.0,0.0,0.0,0.0,0.0,0.0,0.0,0.0,0.0,0.0,0.0,0.0,0.0,0.0,0.0,0.0,0.0,0.0,0.0,0.0,0.0,0.0,0.0,0.0,0.0,0.0,0.0,0.0,0.0,0.0,0.0,0.0,0.0,0.0,0.0,0.0,0.0,0.0,-8.2483,-8.5409,-8.4939,-8.0991,-7.7345,-7.3633,0.0,0.0,0.0,0.0,0.0,0.0,0.0,0.0,0.0,0.0,0.0,0.0,0.0,0.0,0.0,0.0,0.0,0.0,0.0,0.0,0.0,0.0,0.0,0.0,0.0,0.0,0.0,0.0,0.0,0.0,0.0,0.0,0.0,0.0,0.0,0.0,0.0,0.0,0.0,0.0,0.0,0.0,0.0,0.0,0.0,0.0,0.0,0.0,0.0,0.0,0.0,0.0,0.0,0.0,0.0,0.0,0.0,0.0,0.0,0.0,0.0,0.0,0.0,0.0,0.0,0.0,0.0,0.0,0.0,0.0,0.0,0.0,0.0,0.0,0.0,0.0,0.0,0.0,0.0,0.0,0.0,0.0,0.0,0.0,0.0,0.0,0.0,0.0,0.0,0.0,0.0,0.0,0.0,0.0,0.0,0.0,0.0,0.0,0.0,0.0,0.0,0.0,0.0,0.0,0.0,0.0,0.0,0.0,-8.1366,-8.6514,-9.085,-9.1725,-8.8884,-8.3348,-7.8062,0.0,0.0,0.0,0.0,0.0,0.0,0.0,0.0,0.0,0.0,0.0,0.0,0.0,0.0,0.0,0.0,0.0,0.0,0.0,0.0,0.0,0.0,0.0,0.0,0.0,0.0,0.0,0.0,0.0,0.0,0.0,0.0,0.0,0.0,0.0,0.0,0.0,0.0,0.0,0.0,0.0,0.0,0.0,0.0,0.0,0.0,0.0,0.0,0.0,0.0,0.0,0.0,0.0,0.0,0.0,0.0,0.0,0.0,0.0,0.0,0.0,0.0,0.0,0.0,0.0,0.0,0.0,0.0,0.0,0.0,0.0,0.0,0.0,0.0,0.0,0.0,0.0,0.0,0.0,0.0,0.0,0.0,0.0,0.0,0.0,0.0,0.0,0.0,0.0,0.0,0.0,0.0,0.0,0.0,0.0,0.0,0.0,0.0,0.0,0.0,0.0,0.0,0.0,0.0,0.0,0.0,0.0,0.0,-8.5067,-9.025,-9.4667,-9.7056,-9.671,-8.9352,-8.2684,0.0,0.0,0.0,0.0,0.0,0.0,0.0,0.0,0.0,0.0,0.0,0.0,0.0,0.0,0.0,0.0,0.0,0.0,0.0,0.0,0.0,0.0,0.0,0.0,0.0,0.0,0.0,0.0,0.0,0.0,0.0,0.0,0.0,0.0,0.0,0.0,0.0,0.0,0.0,0.0,0.0,0.0,0.0,0.0,0.0,0.0,0.0,0.0,0.0,0.0,0.0,0.0,0.0,0.0,0.0,0.0,0.0,0.0,0.0,0.0,0.0,0.0,0.0,0.0,0.0,0.0,0.0,0.0,0.0,0.0,0.0,0.0,0.0,0.0,0.0,0.0,0.0,0.0,0.0,0.0,0.0,0.0,0.0,0.0,0.0,0.0,0.0,0.0,0.0,0.0,0.0,0.0,0.0,0.0,0.0,0.0,0.0,0.0,0.0,0.0,0.0,0.0,0.0,0.0,0.0,0.0,0.0,0.0,-8.7726,-9.2905,-9.7711,-9.9895,-9.8899,-9.2324,-8.6306,0.0,0.0,0.0,0.0,0.0,0.0,0.0,0.0,0.0,0.0,0.0,0.0,0.0,0.0,0.0,0.0,0.0,0.0,0.0,0.0,0.0,0.0,0.0,0.0,0.0,0.0,0.0,0.0,0.0,0.0,0.0,0.0,0.0,0.0,0.0,0.0,0.0,0.0,0.0,0.0,0.0,0.0,0.0,0.0,0.0,0.0,0.0,0.0,-7.4447,0.0,0.0,0.0,0.0,0.0,0.0,0.0,0.0,0.0,0.0,0.0,0.0,0.0,0.0,0.0,0.0,0.0,0.0,0.0,0.0,0.0,0.0,0.0,0.0,0.0,0.0,0.0,0.0,0.0,0.0,0.0,0.0,0.0,0.0,0.0,0.0,0.0,0.0,0.0,0.0,0.0,0.0,0.0,0.0,0.0,0.0,0.0,0.0,0.0,0.0,0.0,0.0,0.0,0.0,0.0,0.0,0.0,0.0,0.0,-9.1023,-9.5634,-10.0475,-10.2383,-10.0681,-9.6329,-9.0595,0.0,0.0,0.0,0.0,0.0,0.0,0.0,0.0,0.0,0.0,0.0,0.0,0.0,0.0,0.0,0.0,0.0,0.0,0.0,0.0,0.0,0.0,0.0,0.0,0.0,0.0,0.0,0.0,0.0,0.0,0.0,0.0,0.0,0.0,0.0,0.0,0.0,0.0,0.0,0.0,0.0,0.0,0.0,0.0,0.0,0.0,0.0,0.0,0.0,0.0,0.0,0.0,0.0,0.0,0.0,0.0,0.0,0.0,0.0,0.0,0.0,0.0,0.0,0.0,0.0,0.0,0.0,0.0,0.0,0.0,0.0,0.0,0.0,0.0,0.0,0.0,0.0,0.0,0.0,0.0,0.0,0.0,0.0,0.0,0.0,0.0,0.0,0.0,0.0,0.0,0.0,0.0,0.0,0.0,0.0,0.0,0.0,0.0,0.0,0.0,0.0,0.0,0.0,0.0,0.0,0.0,0.0,-8.8014,-9.4159,-9.8346,-10.3107,-10.4737,-10.2758,-10.0032,-9.4731,-8.6868,0.0,0.0,0.0,0.0,0.0,0.0,0.0,0.0,0.0,0.0,0.0,0.0,0.0,0.0,0.0,0.0,0.0,0.0,0.0,0.0,0.0,0.0,0.0,0.0,0.0,0.0,0.0,0.0,0.0,0.0,0.0,0.0,0.0,0.0,0.0,0.0,0.0,0.0,-7.2429,-7.6292,0.0,0.0,0.0,0.0,0.0,0.0,0.0,0.0,-7.5812,0.0,0.0,0.0,0.0,0.0,0.0,0.0,0.0,0.0,0.0,0.0,0.0,0.0,0.0,0.0,0.0,0.0,0.0,0.0,0.0,0.0,0.0,0.0,0.0,0.0,0.0,0.0,0.0,0.0,0.0,0.0,0.0,0.0,0.0,0.0,0.0,0.0,0.0,0.0,0.0,0.0,0.0,0.0,0.0,0.0,0.0,0.0,0.0,0.0,0.0,0.0,0.0,0.0,0.0,0.0,0.0,-8.1688,-8.9934,-9.6404,-10.1485,-10.6282,-10.742,-10.4994,-10.1326,-9.6183,-8.9199,0.0,0.0,0.0,0.0,0.0,0.0,0.0,0.0,0.0,0.0,0.0,0.0,0.0,0.0,0.0,0.0,0.0,0.0,0.0,0.0,0.0,0.0,0.0,0.0,0.0,0.0,0.0,0.0,0.0,0.0,0.0,0.0,0.0,0.0,0.0,0.0,0.0,0.0,0.0,-7.9948,-8.1259,0.0,0.0,0.0,0.0,0.0,0.0,0.0,0.0,-7.8415,0.0,0.0,0.0,0.0,0.0,0.0,0.0,0.0,0.0,0.0,0.0,0.0,0.0,0.0,0.0,0.0,0.0,0.0,0.0,0.0,0.0,0.0,0.0,0.0,0.0,0.0,0.0,0.0,0.0,0.0,0.0,0.0,0.0,0.0,0.0,0.0,0.0,0.0,0.0,0.0,0.0,0.0,0.0,0.0,0.0,0.0,0.0,0.0,0.0,0.0,0.0,0.0,0.0,0.0,0.0,-8.3197,-9.192,-9.9076,-10.4118,-10.8274,-10.92,-10.6348,-10.2667,-9.7181,0.0,0.0,0.0,0.0,0.0,0.0,0.0,0.0,0.0,0.0,0.0,0.0,0.0,0.0,0.0,0.0,0.0,0.0,0.0,0.0,0.0,0.0,0.0,0.0,0.0,0.0,0.0,0.0,0.0,0.0,0.0,0.0,0.0,0.0,0.0,0.0,0.0,0.0,0.0,0.0,-8.1741,-8.3259,-8.4018,0.0,0.0,0.0,0.0,0.0,0.0,-8.0247,-8.0526,0.0,0.0,0.0,0.0,0.0,0.0,0.0,0.0,0.0,0.0,0.0,0.0,0.0,0.0,0.0,0.0,0.0,0.0,0.0,0.0,0.0,0.0,0.0,0.0,0.0,0.0,0.0,0.0,0.0,0.0,0.0,0.0,0.0,0.0,0.0,0.0,0.0,0.0,0.0,0.0,0.0,0.0,0.0,0.0,0.0,0.0,0.0,0.0,0.0,0.0,0.0,0.0,0.0,0.0,0.0,-8.4649,-9.397,-10.1473,-10.6792,-11.0238,-11.068,-10.7507,-10.3456,-9.7459,0.0,0.0,0.0,0.0,0.0,0.0,0.0,0.0,0.0,0.0,0.0,0.0,0.0,0.0,0.0,0.0,0.0,0.0,0.0,0.0,0.0,0.0,0.0,0.0,0.0,0.0,0.0,0.0,0.0,0.0,0.0,0.0,0.0,0.0,0.0,0.0,0.0,0.0,0.0,0.0,0.0,-8.5466,-8.6777,-8.6087,0.0,0.0,0.0,0.0,-8.2707,-8.3296,0.0,0.0,0.0,0.0,0.0,0.0,0.0,0.0,0.0,0.0,0.0,0.0,0.0,0.0,0.0,0.0,0.0,0.0,0.0,0.0,0.0,0.0,0.0,0.0,0.0,0.0,0.0,0.0,0.0,0.0,0.0,0.0,0.0,0.0,0.0,0.0,0.0,0.0,0.0,0.0,0.0,0.0,0.0,0.0,0.0,0.0,0.0,0.0,0.0,0.0,0.0,0.0,0.0,0.0,0.0,0.0,-8.6846,-9.5994,-10.3943,-11.024,-11.2989,-11.2744,-10.9085,-10.3495,-9.6551,0.0,0.0,0.0,0.0,0.0,0.0,0.0,0.0,0.0,0.0,0.0,0.0,0.0,0.0,0.0,0.0,0.0,0.0,0.0,0.0,0.0,0.0,0.0,0.0,0.0,0.0,0.0,0.0,0.0,0.0,0.0,0.0,0.0,0.0,0.0,0.0,0.0,0.0,0.0,0.0,0.0,-8.8364,-8.9191,-8.9743,-8.9467,0.0,0.0,-8.8226,-8.9467,-8.8978,0.0,0.0,0.0,0.0,0.0,0.0,0.0,0.0,0.0,0.0,0.0,0.0,0.0,0.0,0.0,0.0,0.0,0.0,0.0,0.0,0.0,0.0,0.0,0.0,0.0,0.0,0.0,0.0,0.0,0.0,0.0,0.0,0.0,0.0,0.0,0.0,0.0,0.0,0.0,0.0,0.0,0.0,0.0,0.0,0.0,0.0,0.0,0.0,0.0,0.0,0.0,0.0,0.0,0.0,0.0,-7.9579,-8.9157,-9.8382,-10.6388,-11.3006,-11.4562,-11.3932,-11.1067,-10.4897,-9.7701,0.0,0.0,0.0,0.0,0.0,0.0,0.0,0.0,0.0,0.0,0.0,0.0,0.0,0.0,0.0,0.0,0.0,0.0,0.0,0.0,0.0,0.0,0.0,0.0,0.0,0.0,0.0,0.0,0.0,0.0,0.0,0.0,0.0,0.0,0.0,0.0,0.0,0.0,0.0,0.0,0.0,0.0,-9.2571,-9.3537,0.0,0.0,0.0,-9.3951,-9.4641,0.0,0.0,0.0,0.0,0.0,0.0,0.0,0.0,0.0,0.0,0.0,0.0,0.0,0.0,0.0,0.0,0.0,0.0,0.0,0.0,0.0,0.0,0.0,0.0,0.0,0.0,0.0,0.0,0.0,0.0,0.0,0.0,0.0,0.0,0.0,0.0,0.0,0.0,0.0,0.0,0.0,0.0,0.0,0.0,0.0,0.0,0.0,0.0,0.0,0.0,0.0,0.0,0.0,0.0,0.0,0.0,0.0,-9.1308,-10.0727,-10.8729,-11.5159,-11.5818,-11.4927,-11.2309,-10.594,0.0,0.0,0.0,0.0,0.0,0.0,0.0,0.0,0.0,0.0,0.0,0.0,0.0,0.0,0.0,0.0,0.0,0.0,0.0,0.0,0.0,0.0,0.0,0.0,0.0,0.0,0.0,-6.2082,0.0,0.0,0.0,0.0,0.0,0.0,0.0,0.0,0.0,0.0,0.0,0.0,0.0,0.0,-9.2226,-9.602,-9.7676,-9.8504,0.0,0.0,-9.9469,-9.9607,-9.9763,-9.8335,0.0,0.0,0.0,0.0,0.0,0.0,0.0,0.0,0.0,0.0,0.0,0.0,0.0,0.0,0.0,0.0,0.0,0.0,0.0,0.0,0.0,0.0,0.0,0.0,0.0,0.0,0.0,0.0,0.0,0.0,0.0,0.0,0.0,0.0,0.0,0.0,0.0,0.0,0.0,0.0,0.0,0.0,0.0,0.0,0.0,0.0,0.0,0.0,0.0,0.0,0.0,0.0,0.0,0.0,0.0,-9.3242,-10.297,-11.0849,-11.6823,-11.7354,-11.5812,-11.2309,-10.594,-9.8624,0.0,0.0,0.0,0.0,0.0,0.0,0.0,0.0,0.0,0.0,0.0,0.0,0.0,0.0,0.0,0.0,0.0,0.0,0.0,0.0,0.0,0.0,0.0,0.0,0.0,0.0,0.0,0.0,0.0,0.0,0.0,0.0,0.0,0.0,0.0,0.0,0.0,0.0,0.0,0.0,0.0,-9.5331,-9.9055,-10.2091,-10.3953,0.0,0.0,-10.4229,-10.4988,-10.3973,-10.1559,-9.6715,0.0,0.0,0.0,0.0,0.0,0.0,0.0,0.0,0.0,0.0,0.0,0.0,0.0,0.0,0.0,0.0,0.0,0.0,0.0,0.0,0.0,0.0,0.0,0.0,0.0,0.0,0.0,0.0,0.0,0.0,0.0,0.0,0.0,0.0,0.0,0.0,0.0,0.0,0.0,0.0,0.0,0.0,0.0,0.0,0.0,0.0,0.0,0.0,0.0,0.0,0.0,0.0,0.0,-8.4395,-9.4765,-10.4309,-11.1969,-11.7701,-11.8033,-11.6861,-11.4168,-10.8225,-10.121,0.0,0.0,0.0,0.0,0.0,0.0,0.0,0.0,0.0,0.0,0.0,0.0,0.0,0.0,0.0,0.0,0.0,0.0,0.0,0.0,0.0,0.0,0.0,0.0,0.0,0.0,0.0,0.0,-7.0429,-7.0429,-7.0027,0.0,0.0,0.0,0.0,0.0,0.0,0.0,0.0,0.0,0.0,-9.7331,-10.2022,-10.4919,0.0,0.0,-10.685,-10.6974,-10.7858,-10.6176,-10.3631,-10.0189,-9.482,0.0,0.0,0.0,0.0,0.0,0.0,0.0,0.0,0.0,0.0,0.0,0.0,0.0,0.0,0.0,0.0,0.0,0.0,0.0,0.0,0.0,0.0,0.0,0.0,0.0,0.0,0.0,0.0,0.0,0.0,0.0,0.0,0.0,0.0,0.0,0.0,0.0,0.0,0.0,0.0,0.0,0.0,0.0,0.0,0.0,0.0,0.0,0.0,0.0,0.0,0.0,0.0,-8.5558,-9.6341,-10.553,-11.3092,-11.8569,-11.8711,-11.7786,-11.54,-10.9892,-10.3611,0.0,0.0,0.0,0.0,0.0,0.0,0.0,0.0,0.0,0.0,0.0,0.0,0.0,0.0,0.0,0.0,0.0,0.0,0.0,0.0,0.0,0.0,0.0,0.0,0.0,0.0,0.0,0.0,-7.1877,-7.1243,-7.0774,0.0,0.0,0.0,0.0,0.0,0.0,0.0,0.0,0.0,0.0,-9.9469,-10.4712,-10.7264,-10.8713,-10.8989,-10.8575,-10.8286,-10.852,-10.6948,-10.4595,-10.1588,0.0,0.0,0.0,0.0,0.0,0.0,0.0,0.0,0.0,0.0,0.0,0.0,0.0,0.0,0.0,0.0,0.0,0.0,0.0,0.0,0.0,0.0,0.0,0.0,0.0,0.0,0.0,0.0,0.0,0.0,0.0,0.0,0.0,0.0,0.0,0.0,0.0,0.0,0.0,0.0,0.0,0.0,0.0,0.0,0.0,0.0,0.0,0.0,0.0,0.0,0.0,0.0,0.0,0.0,-9.7796,-10.6753,-11.3962,-11.9189,-11.9451,-11.8263,-11.5554,-11.0875,-10.5212,-9.8316,0.0,0.0,0.0,0.0,0.0,0.0,0.0,0.0,0.0,0.0,0.0,0.0,0.0,0.0,0.0,0.0,0.0,0.0,0.0,0.0,0.0,0.0,0.0,0.0,0.0,0.0,-7.167,-7.1503,-7.1503,0.0,0.0,0.0,0.0,0.0,0.0,0.0,0.0,0.0,0.0,-9.602,-10.1746,-10.7057,-10.9127,-10.9747,-10.9127,-10.8989,-10.8411,-10.6751,-10.5829,-10.4153,0.0,0.0,0.0,0.0,0.0,0.0,0.0,0.0,0.0,0.0,0.0,0.0,0.0,0.0,0.0,0.0,0.0,0.0,0.0,0.0,0.0,0.0,0.0,0.0,0.0,0.0,0.0,0.0,-5.2005,0.0,0.0,0.0,0.0,0.0,0.0,0.0,0.0,0.0,0.0,0.0,-6.8295,-6.9005,0.0,0.0,0.0,0.0,0.0,0.0,0.0,0.0,0.0,0.0,0.0,0.0,-8.7307,-9.7689,-10.6814,-11.3962,-11.8649,-11.9451,-11.8755,-11.6909,-11.3153,-10.6443,-9.6593,0.0,0.0,0.0,0.0,0.0,0.0,0.0,0.0,0.0,0.0,0.0,0.0,0.0,0.0,0.0,0.0,0.0,0.0,0.0,0.0,0.0,0.0,0.0,0.0,0.0,-7.3326,0.0,0.0,0.0,0.0,0.0,0.0,0.0,0.0,0.0,0.0,0.0,-8.7398,-9.4434,-9.8849,-10.2987,-10.7333,-10.8311,-10.8586,0.0,0.0,0.0,0.0,0.0,0.0,0.0,0.0,0.0,0.0,0.0,0.0,0.0,0.0,-9.8166,-9.4295,-9.275,-9.2216,-9.2683,0.0,0.0,0.0,0.0,0.0,0.0,0.0,0.0,0.0,0.0,0.0,0.0,0.0,0.0,0.0,0.0,-5.597,0.0,0.0,0.0,0.0,0.0,0.0,0.0,0.0,-6.7553,-7.0826,-7.4416,-7.5574,-7.6523,0.0,-7.5729,-7.2164,0.0,0.0,0.0,0.0,0.0,0.0,0.0,0.0,-8.859,-9.8886,-10.7305,-11.3769,-11.8324,-11.9002,-11.8694,-11.7524,-11.3338,-10.6751,-9.7701,-9.1454,-8.58,0.0,0.0,0.0,0.0,0.0,0.0,0.0,0.0,0.0,0.0,0.0,0.0,0.0,0.0,0.0,0.0,0.0,0.0,0.0,0.0,0.0,0.0,0.0,-7.4292,0.0,0.0,0.0,0.0,0.0,0.0,0.0,0.0,0.0,-8.2569,-8.6777,-9.2019,-9.809,-10.078,-10.347,-10.6988,0.0,0.0,0.0,0.0,0.0,0.0,0.0,-10.6199,-10.5691,-10.6852,-10.7816,-10.8125,-10.8578,-10.9459,-11.1323,0.0,0.0,-10.3124,-10.1521,-10.1466,-10.2333,-10.3182,-10.4308,-10.6084,-10.7014,-10.779,0.0,0.0,0.0,0.0,0.0,0.0,0.0,0.0,-5.9808,-6.0521,0.0,-6.1464,0.0,0.0,0.0,0.0,0.0,0.0,0.0,0.0,-7.3099,-7.6855,-8.0532,-8.2257,-8.3086,0.0,-8.2298,-8.0367,-7.7552,-6.8652,0.0,0.0,0.0,0.0,0.0,0.0,-9.0271,-10.1168,-10.8042,-11.383,-11.8324,-11.8571,-11.8263,-11.7401,-11.1799,-10.6443,-10.1702,-9.6899,-9.1754,-8.6567,-8.2749,0.0,0.0,0.0,0.0,0.0,0.0,0.0,0.0,0.0,0.0,0.0,0.0,0.0,0.0,0.0,0.0,0.0,0.0,0.0,0.0,-7.4636,0.0,0.0,0.0,0.0,0.0,0.0,0.0,0.0,0.0,0.0,-8.7122,-9.1399,-9.6227,-10.0711,0.0,0.0,0.0,0.0,-10.6959,-10.7411,-10.8331,-10.8768,-10.7797,-10.8805,-10.9957,-11.0392,0.0,0.0,-11.8269,-11.8636,-11.9171,-12.0997,-12.2303,-12.0761,-11.1693,-11.0281,-11.0582,-11.1969,-11.3277,-11.467,-11.6377,-11.7746,-11.9023,-6.1601,0.0,0.0,0.0,0.0,-5.914,-6.0501,-6.1856,-6.3995,-6.5534,-6.684,-6.6738,0.0,0.0,0.0,0.0,0.0,0.0,-7.0981,-7.4774,-7.8731,-8.2426,-8.6268,-8.7918,-8.8966,-8.9568,-8.8699,-8.7104,-8.4607,-8.0191,-7.4471,-6.7703,0.0,0.0,0.0,0.0,-9.3256,-10.1896,-10.8659,-11.4077,-11.7832,-11.8324,-11.777,-11.617,-11.3523,-11.0075,-10.5827,-10.2344,-9.7883,-9.2545,-8.8778,0.0,0.0,0.0,0.0,0.0,0.0,0.0,0.0,0.0,0.0,0.0,0.0,0.0,0.0,0.0,0.0,0.0,0.0,0.0,-7.6844,-7.8223,-7.843,0.0,0.0,0.0,0.0,0.0,0.0,0.0,0.0,0.0,-9.7331,-9.8917,-10.1194,0.0,0.0,-10.616,-10.8092,-10.8589,-10.9235,-11.0556,0.0,0.0,0.0,-11.4597,-11.5837,-11.701,-12.0157,-12.3089,-12.5023,-12.5317,-12.5342,-12.5563,-12.6301,-12.5982,-12.3835,-12.2228,-12.1644,-12.2019,-12.2985,-12.3927,-12.4514,-12.5563,-12.6255,-6.668,-6.2969,-6.1484,-6.1015,-6.1484,-6.3086,-6.4585,-6.5906,-6.8292,-7.0369,-7.1747,-7.1602,-7.1797,-7.172,-6.9548,0.0,0.0,0.0,-7.5805,-7.9352,-8.2839,-8.6574,-8.9857,-9.199,-9.3093,-9.3517,-9.3035,-9.1733,-8.9654,-8.7668,-8.3764,0.0,0.0,0.0,-8.1703,-8.902,-9.628,-10.3441,-10.9395,-11.4015,-11.7093,-11.7586,-11.7032,-11.5554,-11.42,-11.1983,-10.8721,-10.6359,-10.2717,-9.784,-9.3965,-8.9682,0.0,0.0,0.0,0.0,0.0,0.0,0.0,0.0,0.0,0.0,0.0,-7.2015,-7.2636,0.0,0.0,0.0,-7.5602,-7.8085,-8.0845,-8.1879,0.0,0.0,0.0,0.0,0.0,0.0,0.0,-9.1606,-9.671,-10.1401,-10.485,-10.616,-10.7057,-10.8023,-10.8092,-10.8644,-11.0161,0.0,-11.1762,-11.3994,-11.6187,-11.7932,-11.8931,-12.0393,-12.2044,-12.3934,-12.6289,-12.8547,-13.0162,-13.0455,-13.0265,-13.0008,-13.0299,-13.0689,-13.0763,-13.0307,-12.9601,-12.8768,-12.9537,-13.0487,-13.0871,-13.1872,-13.2641,-7.1094,-7.0039,-6.6523,-6.539,-6.6055,-6.6914,-6.8245,-7.0023,-7.2988,-7.4627,-7.5165,-7.6454,-7.6509,-7.5691,-7.4152,0.0,0.0,-7.715,-7.9805,-8.3032,-8.6485,-8.9469,-9.2284,-9.4691,-9.5787,-9.5778,-9.5841,-9.4918,-9.3127,-9.1869,-9.1218,-9.0672,-8.5475,-8.4572,-8.817,-9.3467,-9.9191,-10.5314,-10.9993,-11.3707,-11.6354,-11.6416,-11.6047,-11.5369,-11.4077,-11.2353,-11.0383,-10.8647,-10.6055,-10.2326,-9.8149,-9.3705,-8.9187,0.0,0.0,0.0,0.0,0.0,0.0,0.0,0.0,0.0,0.0,0.0,0.0,0.0,0.0,0.0,-7.9672,0.0,-8.5397,-8.5742,0.0,0.0,0.0,-8.6708,-8.8226,-9.1744,-9.5468,-9.9193,0.0,0.0,-11.023,0.0,-11.3265,-11.1265,-11.0851,-11.1196,-11.2714,-11.3488,-11.4748,-11.7727,-12.052,-12.2673,-12.3735,-12.597,-12.8215,-13.0058,-13.1483,-13.2364,-13.3686,-13.4053,-13.4044,-13.3426,-13.4024,-13.4283,-13.401,-13.4249,-13.4633,-13.2942,-13.3584,-13.4641,-13.518,-13.6411,-13.7103,-7.3047,-7.2461,-7.1562,-7.0547,-6.957,-7.0961,-7.25,-7.4028,-7.6595,-7.8821,-8.0191,-8.1339,-8.1104,-7.9956,-7.9314,-7.9266,-7.994,-8.1623,-8.3674,-8.6396,-8.9436,-9.2223,-9.4807,-9.6588,-9.7852,-9.8332,-9.7957,-9.6981,-9.5624,-9.5581,-9.5504,-9.5224,-9.519,-9.4414,-9.2908,-9.7106,-10.1189,-10.5456,-10.9571,-11.303,-11.5616,-11.5246,-11.4692,-11.4015,-11.2661,-11.1187,-10.9522,-10.7895,-10.5805,-10.3078,-9.9641,-9.5636,-9.1426,-8.6,0.0,0.0,0.0,0.0,0.0,0.0,0.0,0.0,0.0,-7.4499,-7.6016,0.0,-7.8499,0.0,-8.4294,-8.7674,-8.9329,-9.0502,0.0,0.0,-9.2985,-9.4641,-9.671,-9.9814,-10.2987,-10.6229,-10.9058,-11.1748,-11.4162,-11.6438,-11.7887,-11.7887,-11.6438,-11.6021,-11.7741,-11.9109,-12.0807,-12.3387,-12.5734,-12.7783,-12.9267,-13.1248,-13.2626,-13.3172,-13.3979,-13.464,-13.5007,-13.5081,-13.482,-13.3987,-13.4074,-13.4283,-13.3998,-13.4628,-13.5242,-13.5394,-13.5812,-13.6257,-13.6488,-13.6873,-13.7026,-7.4101,-7.3867,-7.3867,-7.3597,-7.3008,-7.3557,-7.465,-7.6114,-7.8737,-8.0821,-8.2659,-8.4033,-8.4228,-8.3355,-8.3018,-8.3162,-8.3739,-8.5082,-8.7001,-8.9122,-9.1547,-9.4185,-9.6337,-9.7807,-9.8843,-9.9206,-9.888,-9.8287,-9.7309,-9.7826,-9.801,-9.8189,-9.9604,-9.9648,-9.8363,-10.0484,-10.3127,-10.5774,-10.9949,-11.2845,-11.4508,-11.3953,-11.3153,-11.2168,-11.0447,-10.8781,-10.735,-10.5729,-10.3838,-10.1887,-9.923,-9.6057,-9.2423,-8.776,-8.3378,0.0,0.0,0.0,0.0,0.0,0.0,0.0,0.0,0.0,0.0,0.0,-8.3121,0.0,-8.9329,0.0,-9.4227,-9.602,-9.7607,-9.8711,-10.0159,-10.1953,-10.4229,-10.685,-10.9402,-11.1748,-11.4024,-11.6025,-11.768,-11.9543,-12.1129,-12.2515,-12.1893,-12.1479,-12.2031,-12.3137,-12.4651,-12.7295,-12.9133,-13.0976,-13.2889,-13.4023,-13.4713,-13.4713,-13.5081,-13.5374,-13.5374,-13.5081,-13.4526,-13.3884,-13.3852,-13.3893,-13.3998,-13.4704,-13.5395,-13.6101,-13.658,-13.6796,-13.6796,-13.7103,-13.7257,-7.457,-7.457,-7.457,-7.5133,-7.5655,-7.5577,-7.6008,-7.7287,-7.9951,-8.2309,-8.4168,-8.5687,-8.6289,-8.5856,-8.576,-8.6,-8.6529,-8.7737,-8.9191,-9.0889,-9.3256,-9.5355,-9.7327,-9.8426,-9.9124,-9.9314,-9.9206,-9.8831,-9.8456,-9.9037,-9.9776,-10.0627,-10.1574,-10.2518,-10.3456,-10.3691,-10.4774,-10.6681,-11.0447,-11.2538,-11.3215,-11.2476,-11.1491,-11.0075,-10.7731,-10.5863,-10.4313,-10.2406,-10.093,-9.9603,-9.7561,-9.5261,-9.2574,-8.909,-8.5627,0.0,-8.1049,0.0,0.0,0.0,0.0,0.0,0.0,0.0,0.0,-8.5949,-8.8501,-9.1813,-9.4917,-9.7607,-9.9745,-10.1953,-10.3884,-10.5471,-10.6919,-10.8644,-11.092,-11.3058,-11.4921,-11.6369,-11.8301,-11.9818,-12.0508,-12.1957,-12.3617,-12.494,-12.6056,-12.627,-12.5854,-12.6199,-12.7511,-12.9882,-13.1245,-13.2962,-13.4718,-13.5374,-13.5374,-13.5374,-13.5374,-13.5374,-13.5374,-13.4713,-13.4085,-13.3737,-13.3482,-13.3479,-13.3929,-13.4701,-13.5461,-13.616,-13.658,-13.6796,-13.6873,-13.7257,-13.7642,-7.457,-7.457,-7.457,-7.5133,-7.5694,-7.7011,-7.855,-8.0385,-8.2284,-8.4692,-8.7318,-8.7519,-8.7539,-8.7443,-8.701,-8.7106,-8.7587,-8.8416,-8.973,-9.1436,-9.3409,-9.5355,-9.7274,-9.848,-9.934,-9.9857,-9.9423,-9.9266,-9.9715,-10.0674,-10.1611,-10.2503,-10.4318,-10.5383,0.0,0.0,0.0,0.0,-10.989,-11.1183,-11.1799,-11.0691,-10.9398,-10.7982,-10.5199,0.0,-10.0557,-9.8466,-9.6799,-9.5702,-9.4757,0.0,0.0,0.0,0.0,0.0,0.0,0.0,0.0,0.0,0.0,0.0,-9.4669,-9.402,-9.1537,-9.4779,-9.7676,-9.9055,-10.1884,-10.4367,-10.6022,-10.7678,-10.954,-11.161,-11.2645,-11.4093,-11.63,-11.7473,-11.8715,-12.0232,-12.0784,-12.1336,-12.2095,-12.3543,-12.4653,-12.5498,-12.7247,-12.8576,-12.9182,-12.9264,-13.0156,-13.1827,-13.3226,-13.45,-13.5193,-13.5448,-13.5374,-13.5374,-13.5374,-13.5374,-13.5301,-13.4853,-13.4191,-13.375,-13.3751,-13.3773,-13.3951,-13.4758,-13.5667,-13.616,-13.658,-13.6796,-13.6796,-13.695,-13.7079,-7.457,0.0,-7.4852,-7.5414,0.0,0.0,-8.0365,-8.2273,-8.3673,-8.5653,-8.8288,-8.8245,-8.8309,-8.8261,-8.802,-8.8266,-8.8753,-8.9488,-9.0852,-9.2551,-9.4411,-9.6058,-9.7736,-9.8938,-9.9848,-10.0074,-9.9973,-10.0149,-10.0708,-10.2158,-10.3264,-10.3982,-10.6077,-10.7335,-10.767,-10.8226,-10.8412,-10.8413,-11.0137,-11.0998,-11.0937,-11.0013,-10.8474,-10.6381,0.0,0.0,0.0,0.0,0.0,0.0,0.0,0.0,0.0,0.0,0.0,-9.205,-9.2056,-9.2815,-9.44,-9.6263,-9.848,-10.0875,-10.378,-10.3608,-9.9055,-10.1884,-10.416,-10.4988,-10.7126,-10.9196,-11.1058,-11.23,-11.3886,-11.6025,-11.6714,-11.7542,-11.8991,-11.9887,-12.0646,-12.1336,-12.1819,-12.2371,-12.313,-12.4164,-12.5281,-12.6268,-12.7668,-12.8987,-13.0191,-13.0949,-13.1735,-13.3138,-13.4162,-13.5049,-13.5266,-13.5374,-13.5374,-13.5374,-13.5007,-13.4787,-13.4787,-13.397,-13.3295,-13.3324,-13.335,-13.3421,-13.41,-13.5194,-13.6265,-13.685,-13.7502,-13.8027,-13.8027,-13.7411,-13.6848,-7.457,-7.457,-7.5414,-7.6254,-7.7092,-7.9267,-8.173,-8.443,0.0,0.0,0.0,-8.8685,-8.8694,-8.8694,-8.8694,-8.9188,-8.9681,-9.0368,-9.1877,-9.3662,-9.5797,-9.72,-9.8357,-9.9729,-10.0183,-10.0074,-10.075,-10.1147,-10.1259,-10.3321,-10.481,-10.5727,-10.7545,-10.8608,-10.9259,-11.0306,-11.0251,-10.9275,-11.0691,-11.1245,-11.0691,-11.0013,-10.8413,-10.5766,-10.3432,-10.1202,-9.9018,-9.716,-9.5911,-9.521,-9.4599,-9.4493,-9.4959,-9.5381,-9.6046,-9.6864,-9.815,-9.9642,-10.145,-10.3449,-10.5654,-10.7801,-11.1419,-11.1541,-10.6643,-10.8299,-10.9747,-11.0368,-11.1817,-11.3472,-11.5335,-11.6163,-11.7404,-11.9405,-11.9612,-11.9887,-12.0646,-12.1336,-12.1681,-12.175,-12.2233,-12.2923,-12.3681,-12.4584,-12.5563,-12.6829,-12.7874,-12.8955,-13.0306,-13.1286,-13.2277,-13.3586,-13.4097,-13.4645,-13.4826,-13.486,-13.4934,-13.4787,-13.4273,-13.3906,-13.3791,-13.2971,-13.2541,-13.2989,-13.2981,-13.3465,-13.446,-13.5842,-13.7017,-13.7676,-13.8633,-13.9258,-13.9181,-13.8104,-13.7208,-7.457,-7.457,-7.5414,-7.6534,-7.7926,-8.0091,-8.358,-8.7833,-8.769,-8.825,-8.9031,-8.8877,-8.8694,-8.8694,-8.8694,-8.9188,-8.9681,-9.0856,-9.2561,0.0,-9.6841,-9.8246,-9.8996,-10.0377,-10.0562,-10.0128,-10.075,-10.159,-10.253,-10.4134,-10.584,-10.7716,-10.9036,-11.0097,-11.1116,-11.1731,-11.2168,-11.1922,-11.1676,-11.1429,-11.1368,-11.0691,-10.9336,-10.712,-10.5295,-10.3074,-10.0453,-9.9093,-9.7786,-9.6666,-9.6962,-9.7433,-9.7884,-9.861,-9.9834,-10.2075,-10.3752,-10.5702,-10.8123,-11.0059,-11.2262,-11.4796,-11.6924,-11.6783,-11.3679,-11.4783,-11.5749,-11.5887,-11.7059,-11.8232,-11.8577,-11.9198,-12.0025,-12.0991,-12.1198,-12.1474,-12.2164,-12.2302,-12.244,-12.244,-12.2509,-12.2923,-12.3819,-12.4797,-12.564,-12.6621,-12.8132,-12.9584,-13.0859,-13.1785,-13.216,-13.2666,-13.3025,-13.3245,-13.3465,-13.3319,-13.3392,-13.3245,-13.3245,-13.3204,-13.3413,-13.2937,-13.2839,-13.341,-13.3646,-13.433,-13.5547,-13.6545,-13.7633,-13.8617,-13.9226,-13.9488,-13.9488,-13.8747,-13.808,-7.457,-7.4852,-7.5694,-7.7092,-7.8756,-8.2544,-8.6031,-8.9141,-8.9213,-8.9507,-8.968,-8.9463,-8.8934,-8.8694,-8.8694,-8.9188,-9.0123,-9.1396,-9.3396,-9.5572,-9.7783,-9.9062,-9.9994,-10.0647,-10.0834,-10.0562,-10.1084,-10.1812,-10.2861,-10.496,-10.7162,-10.8952,-11.0911,-11.2153,-11.2599,-11.2907,-11.303,-11.303,-11.2722,-11.2414,-11.2045,-11.1368,-11.0198,-10.8536,-10.7095,-10.5507,-10.351,-10.2616,-10.1701,-10.0748,-10.1183,-10.1787,-10.2464,-10.3832,-10.5455,-10.7583,-10.9072,-11.0842,-11.3173,-11.5492,-11.7794,-12.0228,-12.1126,-12.1336,-12.037,-11.9336,-11.8853,-11.8853,-11.9474,-12.0025,-12.037,-12.0784,-12.1267,-12.2026,-12.2095,-12.2233,-12.2509,-12.2578,-12.2785,-12.313,-12.3267,-12.3681,-12.4854,-12.5212,-12.599,-12.7038,-12.8441,-12.9685,-13.0476,-13.0992,-13.1533,-13.2511,-13.2805,-13.2878,-13.2878,-13.2952,-13.2952,-13.2952,-13.2511,-13.2396,-13.2632,-13.2471,-13.2721,-13.3149,-13.3779,-13.4853,-13.6189,-13.7342,-13.8501,-13.9519,-14.0379,-14.0643,-14.0566,-13.9852,-13.8911,-7.4609,-7.4891,-7.6254,-7.8203,-8.0639,-8.5009,-8.8234,-8.9967,-9.0363,-9.0398,-9.0425,-8.9896,-8.9415,-8.9078,-8.903,-8.9774,-9.1055,-9.2135,-9.4092,-9.6701,-9.8491,-10.0115,-10.1048,-10.131,-10.1214,-10.117,-10.1583,-10.2422,-10.3355,-10.5673,-10.7987,-11.0036,-11.2291,-11.3523,-11.3523,-11.3523,-11.3523,-11.3523,-11.3523,-11.3276,-11.2722,-11.223,-11.1368,-11.0137,-10.9392,-10.8377,-10.7192,-10.6854,-10.6415,-10.5908,-10.6183,-10.6772,-10.7668,-10.9265,-11.0881,-11.2489,-11.4065,-11.588,-11.7832,-12.0025,-12.2065,-12.3744,-12.4026,-12.4302,-12.4647,-12.2785,-12.1405,-12.1405,-12.1474,-12.1681,-12.1957,-12.2026,-12.2164,-12.2578,-12.2785,-12.2923,-12.2854,-12.2992,-12.3336,-12.3957,-12.4026,-12.4578,-12.562,-12.5914,-12.6412,-12.7772,-12.8787,-12.9443,-12.9826,-13.0215,-13.1116,-13.1924,-13.2364,-13.2291,-13.2364,-13.2291,-13.2291,-13.2364,-13.1955,-13.1794,-13.1951,-13.212,-13.2419,-13.3225,-13.4026,-13.5284,-13.6684,-13.7752,-13.8924,-14.0093,-14.0896,-14.1335,-14.1057,-14.0233,-13.9247,-7.4852,-7.5694,-7.6534,-7.9542,-8.3893,-8.7053,-8.9421,-9.0791,-9.1258,-9.1483,-9.0954,-9.0425,-9.0136,-9.0136,-9.0088,-9.0793,-9.2038,-9.3322,-9.5337,-9.7736,-9.9755,-10.099,-10.1747,-10.2338,-10.1973,-10.1333,-10.2022,-10.3198,-10.4282,-10.6099,-10.8607,-11.15,-11.2878,-11.3523,-11.3523,-11.3523,-11.3523,-11.3523,-11.3523,-11.3461,-11.3399,-11.3338,-11.2968,-11.223,-11.2372,-11.2121,-11.1185,-11.1526,-11.1542,-11.1495,-11.1258,-11.2014,-11.3075,-11.3973,-11.512,-11.6976,-11.8662,-12.0405,-12.231,-12.3484,-12.3995,-12.4279,-12.464,-12.4923,-12.4916,-12.4716,-12.444,-12.4371,-12.444,-12.4026,-12.3681,-12.3543,-12.3267,-12.2854,-12.3336,-12.3681,-12.375,-12.4302,-12.4716,-12.4785,-12.4785,-12.5275,-12.6255,-12.6481,-12.7083,-12.8396,-12.9009,-12.9386,-12.9896,-13.032,-13.0529,-13.0749,-13.0749,-13.0823,-13.0896,-13.0749,-13.0969,-13.0896,-13.0956,-13.1187,-13.1779,-13.2293,-13.295,-13.3789,-13.4477,-13.5547,-13.676,-13.7658,-13.85,-13.9841,-14.0489,-14.0542,-14.003,-13.9374,-13.8594,-7.5133,-7.5694,-7.7092,-8.0365,-8.5232,-8.811,-8.9943,-9.0791,-9.1611,-9.1724,-9.1531,-9.1291,-9.0858,-9.0281,-9.0784,-9.1536,-9.2532,-9.4314,-9.6474,-9.8666,-10.0468,-10.1814,-10.2754,-10.2663,-10.2462,-10.1973,-10.2406,-10.3477,-10.5113,-10.7955,-11.05,-11.2291,-11.3134,-11.3523,-11.3523,-11.3523,-11.3523,-11.3523,-11.3523,-11.3707,-11.4015,-11.3707,-11.3399,-11.3092,-11.3366,-11.3431,-11.3119,-11.3539,-11.3758,-11.3912,-11.4378,-11.5249,-11.6211,-11.7217,-11.8564,-12.0113,-12.1477,-12.2937,-12.451,-12.4877,-12.531,-12.5871,-12.6087,-12.6303,-12.6303,-12.6303,-12.6234,-12.6165,-12.5406,-12.4785,-12.4509,-12.444,-12.4302,-12.4095,-12.4233,-12.444,-12.444,-12.4716,-12.5061,-12.5475,-12.5544,-12.5965,-12.7028,-12.7456,-12.7803,-12.8774,-12.9112,-12.9461,-13.0003,-13.032,-13.0455,-13.0529,-13.0529,-13.0529,-13.0529,-13.0529,-13.0632,-13.0735,-13.0966,-13.1264,-13.1959,-13.2252,-13.2939,-13.4254,-13.4669,-13.5565,-13.7274,-13.7753,-13.8435,-13.9488,-13.9796,-13.9671,-13.9076,-13.8803,-13.8489,-7.5133,-7.6254,-7.848,-8.2002,-8.6031,-8.8589,-9.0416,-9.1049,-9.1563,-9.1868,-9.1868,-9.1868,-9.1435,-9.0762,-9.1423,-9.2226,-9.3274,-9.5309,-9.7474,-9.9407,-10.1024,-10.2425,-10.3547,-10.3167,-10.2896,-10.2856,-10.3009,-10.4423,-10.6376,-10.9519,-11.1699,-11.2744,-11.3513,-11.3769,-11.383,-11.3953,-11.4077,-11.4077,-11.4077,-11.4323,-11.4692,-11.4323,-11.3953,-11.3769,-11.4235,-11.4492,-11.4304,-11.5049,-11.5657,-11.6191,-11.7149,-11.8267,-11.9366,-12.078,-12.2025,-12.3185,-12.4058,-12.4865,-12.578,-12.5929,-12.6284,-12.713,-12.7199,-12.7199,-12.7199,-12.7199,-12.7199,-12.7061,-12.6165,-12.5544,-12.5199,-12.5199,-12.513,-12.4923,-12.5061,-12.5199,-12.5199,-12.5337,-12.5751,-12.6234,-12.6303,-12.6664,-12.7876,-12.8484,-12.8929,-12.9324,-12.9557,-12.9717,-13.0109,-13.0425,-13.0529,-13.0529,-13.0529,-13.0529,-13.0529,-13.0632,-13.0735,-13.0966,-13.1264,-13.1865,-13.2285,-13.2398,-13.2666,-13.3852,-13.4216,-13.5011,-13.6238,-13.7073,-13.7796,-13.8565,-13.895,-13.8901,-13.8614,-13.8507,-13.8338,-7.5453,-7.737,-8.15,-8.443,-8.6515,-8.8973,-9.058,-9.1611,-9.1868,-9.1868,-9.1868,-9.1868,-9.182,-9.1724,-9.2442,-9.3506,-9.4765,-9.6262,-9.818,-10.036,-10.1422,-10.2425,-10.3602,-10.3602,-10.3276,-10.2842,-10.3778,-10.5762,-10.8564,-11.08,-11.2094,-11.2805,-11.4005,-11.4446,-11.4569,-11.5062,-11.5431,-11.5308,-11.5308,-11.5431,-11.5493,-11.5431,-11.5123,-11.4569,-11.5415,-11.5615,-11.5178,-11.6558,-11.7741,-11.8841,-11.9897,-12.136,-12.3108,-12.4565,-12.5703,-12.658,-12.6509,-12.6467,-12.6754,-12.6903,-12.7199,-12.7268,-12.7268,-12.7199,-12.7268,-12.7199,-12.7199,-12.7199,-12.6992,-12.6647,-12.6096,-12.5958,-12.5682,-12.5199,-12.5613,-12.5889,-12.5958,-12.651,-12.6992,-12.7061,-12.7139,-12.7513,-12.8565,-12.9552,-12.9964,-13.027,-13.0554,-13.0591,-13.0467,-13.0529,-13.0529,-13.0529,-13.0529,-13.0529,-13.0529,-13.0735,-13.0938,-13.1264,-13.1696,-13.2285,-13.2465,-13.2664,-13.2957,-13.3271,-13.3624,-13.4207,-13.5065,-13.592,-13.6666,-13.7411,-13.8079,-13.8106,-13.8122,-13.7898,-13.7793,-7.6933,-7.9446,-8.2474,-8.5545,-8.7925,-8.9234,-9.0532,-9.1916,-9.2187,-9.2091,-9.1964,-9.2205,-9.2414,-9.2587,-9.3096,-9.411,-9.5116,-9.7106,-9.9015,-10.0705,-10.1951,-10.2897,-10.3602,-10.3602,-10.3493,-10.3509,-10.4337,-10.6323,-10.9839,-11.2022,-11.3631,-11.4423,-11.4865,-11.5185,-11.5185,-11.5431,-11.5554,-11.5554,-11.5554,-11.5739,-11.617,-11.617,-11.6047,-11.58,-11.6346,-11.6613,-11.6363,-11.7565,-11.8629,-11.9673,-12.0657,-12.2151,-12.3886,-12.6052,-12.7582,-12.8084,-12.8335,-12.8498,-12.8498,-12.8648,-12.8728,-12.8599,-12.8175,-12.782,-12.783,-12.7554,-12.7199,-12.7199,-12.7199,-12.6992,-12.6854,-12.6785,-12.6647,-12.6441,-12.6579,-12.6785,-12.6785,-12.6992,-12.7199,-12.7347,-12.757,-12.8294,-12.9329,-13.0096,-13.0762,-13.1121,-13.1139,-13.0987,-13.0645,-13.0529,-13.0529,-13.0529,-13.0529,-13.0632,-13.0735,-13.0837,-13.0966,-13.1409,-13.1755,-13.2115,-13.2418,-13.2133,-13.2301,-13.2981,-13.3229,-13.353,-13.4383,-13.5358,-13.6026,-13.6719,-13.731,-13.7617,-13.7675,-13.7519,-13.7435,-7.8142,-8.0805,-8.3509,-8.5947,-8.8759,-8.9849,-9.0981,-9.1899,-9.2571,-9.2475,-9.2253,-9.2493,-9.2607,-9.2891,-9.3857,-9.4614,-9.5616,-9.7845,-9.9552,-10.0997,-10.2242,-10.2951,-10.3602,-10.3602,-10.3602,-10.4247,-10.5307,-10.7598,-11.0637,-11.2947,-11.4362,-11.5493,-11.5739,-11.5862,-11.5862,-11.6047,-11.617,-11.617,-11.617,-11.6416,-11.6847,-11.7093,-11.7216,-11.7354,-11.7763,-11.7729,-11.7175,-11.8257,-11.9326,-12.0441,-12.1482,-12.3397,-12.5732,-12.756,-12.8837,-12.9297,-12.9394,-12.9476,-12.9476,-12.9476,-12.9487,-12.9429,-12.9004,-12.8648,-12.8659,-12.8313,-12.7958,-12.7958,-12.7889,-12.7889,-12.7889,-12.7958,-12.782,-12.7613,-12.7544,-12.7682,-12.7889,-12.7682,-12.7475,-12.7416,-12.786,-12.8716,-12.9817,-13.0496,-13.0956,-13.1526,-13.1467,-13.1094,-13.0572,-13.0529,-13.0529,-13.0529,-13.0632,-13.0735,-13.0966,-13.1165,-13.158,-13.1903,-13.194,-13.2331,-13.2364,-13.1953,-13.1863,-13.2519,-13.2882,-13.31,-13.3743,-13.4795,-13.5565,-13.6257,-13.6823,-13.7205,-13.7148,-13.7175,-13.6993,-7.9309,-8.1123,-8.3781,-8.6617,-8.8898,-9.0345,-9.1621,-9.2427,-9.281,-9.281,-9.2686,-9.2686,-9.2961,-9.3243,-9.4159,-9.5616,-9.6859,-9.8335,-10.0036,-10.1475,-10.2532,-10.3005,-10.3602,-10.3602,-10.4069,-10.4766,-10.7559,-10.963,-11.1437,-11.3369,-11.4746,-11.5541,-11.6293,-11.6539,-11.6539,-11.7093,-11.7463,-11.7401,-11.7339,-11.7463,-11.7647,-11.8078,-11.8386,-11.8571,-11.9608,-11.9202,-11.7424,-11.8886,-12.0214,-12.1337,-12.2772,-12.5301,-12.8234,-12.9284,-12.9659,-13.0359,-12.9959,-12.9614,-12.9545,-12.9614,-12.9752,-12.9683,-12.9545,-12.9476,-12.9407,-12.9338,-12.9269,-12.92,-12.9269,-12.9338,-12.9269,-12.9269,-12.8993,-12.8441,-12.8303,-12.8579,-12.8993,-12.8717,-12.8027,-12.7623,-12.793,-12.8856,-13.0015,-13.0624,-13.1077,-13.1639,-13.1576,-13.1094,-13.0572,-13.0529,-13.0529,-13.0529,-13.0735,-13.0837,-13.1264,-13.1654,-13.2145,-13.2626,-13.2398,-13.2514,-13.2497,-13.2181,-13.1712,-13.2059,-13.2201,-13.2359,-13.3128,-13.418,-13.5001,-13.5693,-13.618,-13.6685,-13.6738,-13.667,-13.6326,-8.0778,-8.34,-8.5289,-8.7788,-9.0573,-9.1386,-9.2311,-9.3263,-9.3626,-9.3578,-9.3263,-9.3167,-9.3396,-9.4143,-9.4812,-9.6115,-9.8335,-9.95,-10.0758,-10.1713,-10.2715,-10.3421,-10.3602,-10.3602,-10.4301,-10.609,-10.8402,-11.0643,-11.2721,-11.4477,-11.5905,-11.677,-11.7093,-11.7216,-11.7216,-11.7463,-11.7586,-11.7586,-11.7586,-11.777,-11.8201,-11.8448,-11.8817,-11.9248,-12.0103,-12.0133,-11.9982,-12.076,-12.1987,-12.3257,-12.4384,-12.655,-12.9244,-13.051,-13.0961,-13.1254,-13.1131,-13.0993,-13.0993,-13.0993,-13.0993,-13.0924,-13.0579,-13.0234,-13.0097,-12.9752,-12.9545,-12.9545,-12.9476,-12.9476,-12.9476,-12.9476,-12.9407,-12.9131,-12.9131,-12.92,-12.9407,-12.8855,-12.8452,-12.8401,-12.8352,-12.8996,-13.0281,-13.0878,-13.1317,-13.1864,-13.1719,-13.1232,-13.0749,-13.0529,-13.0529,-13.0529,-13.0837,-13.114,-13.1557,-13.207,-13.2638,-13.2774,-13.2586,-13.2509,-13.2453,-13.2202,-13.1716,-13.161,-13.1692,-13.2025,-13.2795,-13.3487,-13.4385,-13.5025,-13.548,-13.5912,-13.6206,-13.6038,-13.5671,-8.1718,-8.4386,-8.6598,-8.8782,-9.1306,-9.2337,-9.305,-9.3792,-9.4153,-9.4057,-9.3792,-9.3764,-9.4155,-9.4644,-9.5365,-9.6859,-9.8823,-10.0224,-10.1475,-10.2188,-10.3132,-10.3602,-10.3602,-10.4069,-10.4997,-10.6602,-10.9017,-11.1209,-11.3348,-11.508,-11.6516,-11.7324,-11.7586,-11.7524,-11.7586,-11.7586,-11.7586,-11.7586,-11.7832,-11.814,-11.8571,-11.9063,-11.9556,-11.9925,-12.0642,-12.111,-12.1916,-12.2379,-12.2857,-12.4027,-12.5344,-12.7451,-12.9985,-13.1139,-13.1898,-13.2184,-13.2511,-13.2511,-13.2511,-13.2511,-13.2373,-13.2181,-13.1683,-13.1269,-13.0993,-13.051,-13.0303,-13.0303,-13.0372,-13.0303,-13.0303,-13.0303,-13.0303,-13.0303,-13.0028,-12.989,-12.9821,-12.9269,-12.8797,-12.8893,-12.8635,-12.9344,-13.0474,-13.0896,-13.1338,-13.1719,-13.1607,-13.119,-13.0676,-13.0529,-13.0529,-13.0735,-13.1039,-13.146,-13.1939,-13.2449,-13.3082,-13.2887,-13.2663,-13.2554,-13.2474,-13.1983,-13.1479,-13.1587,-13.1718,-13.1718,-13.2333,-13.2872,-13.3615,-13.4199,-13.4773,-13.5037,-13.5315,-13.5362,-13.4978,-8.2043,-8.4707,-8.7421,-8.9683,-9.1494,-9.3028,-9.384,-9.4273,-9.4297,-9.4297,-9.4177,-9.4267,-9.4559,-9.5301,-9.6317,-9.7752,-9.9119,-10.0758,-10.1951,-10.2661,-10.3367,-10.3602,-10.3835,-10.4766,-10.5688,-10.7056,-10.946,-11.1641,-11.3559,-11.5408,-11.6577,-11.7709,-11.7832,-11.7647,-11.7709,-11.7647,-11.7709,-11.777,-11.8263,-11.8571,-11.8817,-11.9864,-12.0541,-12.0664,-12.1156,-12.2021,-12.2837,-12.3179,-12.354,-12.4027,-12.6224,-12.8156,-12.9877,-13.1392,-13.2535,-13.3127,-13.3735,-13.3821,-13.389,-13.3752,-13.3477,-13.301,-13.294,-13.258,-13.189,-13.1683,-13.1545,-13.1407,-13.1476,-13.1545,-13.1545,-13.1476,-13.1476,-13.1545,-13.0993,-13.0717,-13.0579,-13.0028,-12.9418,-12.9101,-12.8991,-12.9342,-13.0747,-13.0733,-13.1022,-13.15,-13.1314,-13.0645,-13.0529,-13.0529,-13.0632,-13.0938,-13.1239,-13.1749,-13.2219,-13.3036,-13.3487,-13.2892,-13.2789,-13.2727,-13.2477,-13.185,-13.151,-13.1615,-13.1718,-13.1718,-13.1872,-13.241,-13.2973,-13.3582,-13.3969,-13.4268,-13.4417,-13.4554,-13.4482,-8.2494,-8.5785,-8.8232,-9.0643,-9.2435,-9.408,-9.4658,-9.4802,-9.485,-9.485,-9.4922,-9.5012,-9.5712,-9.6547,-9.7122,-9.8707,-10.056,-10.1449,-10.2425,-10.3132,-10.3602,-10.3602,-10.3835,-10.5052,-10.643,-10.7958,-11.0235,-11.2499,-11.4725,-11.645,-11.7717,-11.8324,-11.8755,-11.8755,-11.8386,-11.8324,-11.8324,-11.8324,-11.8448,-11.9125,-11.9925,-12.0356,-12.0849,-12.1341,-12.1526,-12.2268,-12.3227,-12.4032,-12.5096,-12.6264,-12.7829,-12.9389,-13.068,-13.1969,-13.2987,-13.338,-13.3716,-13.4028,-13.4028,-13.4028,-13.389,-13.3838,-13.3683,-13.3339,-13.2649,-13.258,-13.2304,-13.189,-13.1683,-13.1683,-13.1683,-13.1683,-13.1683,-13.1683,-13.1476,-13.1338,-13.1131,-13.0372,-12.9626,-12.9949,-12.9412,-12.9827,-13.0794,-13.0999,-13.0993,-13.1611,-13.1207,-13.0529,-13.0529,-13.0529,-13.0632,-13.0938,-13.1264,-13.1939,-13.2509,-13.3458,-13.3648,-13.2952,-13.2748,-13.2875,-13.2482,-13.1994,-13.1769,-13.1718,-13.1718,-13.1718,-13.1718,-13.1949,-13.2483,-13.309,-13.3174,-13.3418,-13.3918,-13.4175,-13.399,-8.3951,-8.735,-8.9555,-9.1462,-9.3395,-9.4463,-9.4994,-9.4994,-9.4994,-9.4994,-9.5163,-9.5517,-9.6315,-9.725,-9.8432,-10.0014,-10.1919,-10.2619,-10.3468,-10.4125,-10.4416,-10.4488,-10.4848,-10.5834,-10.7557,-10.9369,-11.153,-11.4026,-11.5776,-11.7386,-11.8391,-11.9063,-11.9371,-11.9371,-11.9063,-11.9002,-11.9002,-11.9063,-11.9248,-11.9864,-12.0541,-12.0849,-12.1156,-12.1649,-12.1834,-12.2495,-12.4038,-12.5113,-12.6054,-12.6906,-12.7853,-12.9142,-13.096,-13.2206,-13.3176,-13.3974,-13.4611,-13.4994,-13.4994,-13.4925,-13.4787,-13.458,-13.4442,-13.4097,-13.3546,-13.3339,-13.2994,-13.2373,-13.2235,-13.2028,-13.1752,-13.1683,-13.1683,-13.1683,-13.1683,-13.1683,-13.1683,-13.0605,-13.0141,-13.0384,-13.0116,-13.0156,-13.1719,-13.1557,-13.166,-13.1941,-13.1607,-13.0938,-13.0602,-13.0529,-13.0735,-13.1066,-13.1654,-13.2311,-13.3036,-13.3943,-13.3873,-13.3223,-13.2474,-13.2712,-13.24,-13.1923,-13.1821,-13.1718,-13.1718,-13.1718,-13.1718,-13.1768,-13.2117,-13.2457,-13.2488,-13.2823,-13.3445,-13.3883,-13.3674,-8.5679,-8.8731,-9.0919,-9.2589,-9.393,-9.4729,-9.4994,-9.4994,-9.4994,-9.4994,-9.5427,-9.6089,-9.6982,-9.7607,-9.9644,-10.1325,-10.2796,-10.3848,-10.4622,-10.51,-10.5338,-10.5467,-10.6138,-10.7127,-10.8856,-11.0899,-11.3294,-11.5463,-11.6889,-11.8323,-11.927,-11.974,-11.9802,-11.974,-11.9679,-11.9679,-11.9679,-11.974,-12.011,-12.0479,-12.091,-12.1341,-12.171,-12.1895,-12.2865,-12.3775,-12.4974,-12.6119,-12.6681,-12.6518,-12.697,-12.874,-13.0691,-13.2218,-13.3591,-13.506,-13.5873,-13.6353,-13.6512,-13.6374,-13.6098,-13.5546,-13.5339,-13.4925,-13.4304,-13.4097,-13.3821,-13.3063,-13.2994,-13.2649,-13.2097,-13.189,-13.1821,-13.1752,-13.1683,-13.1683,-13.1421,-13.0626,-13.024,-13.1024,-13.0668,-13.1091,-13.2004,-13.2658,-13.2665,-13.2307,-13.186,-13.1158,-13.0749,-13.0602,-13.0837,-13.1264,-13.1939,-13.2687,-13.354,-13.433,-13.4074,-13.3401,-13.2477,-13.2136,-13.2101,-13.1744,-13.1718,-13.1718,-13.1718,-13.1718,-13.1718,-13.1818,-13.201,-13.2281,-13.2528,-13.2799,-13.3163,-13.3538,-13.3629,-8.5636,-8.8731,-9.0965,-9.2589,-9.393,-9.4729,-9.4994,-9.4994,-9.4994,-9.5259,-9.6052,-9.6693,-9.7946,-9.9442,-10.0711,-10.2199,-10.3814,-10.4518,-10.473,-10.5501,-10.5935,-10.6685,-10.7472,-10.837,-10.9596,-11.1859,-11.4009,-11.595,-11.782,-11.9347,-12.0151,-12.0418,-12.0725,-12.0849,-12.0356,-12.0356,-12.0356,-12.0356,-12.0541,-12.091,-12.1464,-12.2018,-12.2388,-12.2511,-12.3899,-12.4686,-12.5429,-12.6308,-12.6925,-12.753,-12.8382,-12.9537,-13.1281,-13.2913,-13.4495,-13.5857,-13.6988,-13.7639,-13.78,-13.7477,-13.7132,-13.6788,-13.6236,-13.5753,-13.4994,-13.4856,-13.4511,-13.3959,-13.3752,-13.3408,-13.2718,-13.2649,-13.2304,-13.1959,-13.1683,-13.1476,-13.0938,-13.0349,-13.0379,-13.0816,-13.0738,-13.0949,-13.2343,-13.2848,-13.2811,-13.2562,-13.2079,-13.141,-13.1043,-13.0749,-13.1012,-13.1436,-13.2126,-13.2863,-13.3709,-13.4401,-13.4195,-13.3654,-13.2654,-13.1863,-13.1769,-13.1718,-13.1718,-13.1718,-13.1718,-13.1718,-13.1718,-13.1867,-13.201,-13.2288,-13.2562,-13.2892,-13.3212,-13.3424,-13.3629,-8.7306,-9.0102,-9.2003,-9.3395,-9.4463,-9.4729,-9.4994,-9.4994,-9.4994,-9.5259,-9.6052,-9.7102,-9.8613,-10.0412,-10.1929,-10.3519,-10.4697,-10.5458,-10.602,-10.6369,-10.6881,-10.7894,-10.9024,-11.0205,-11.1532,-11.3562,-11.5982,-11.7761,-11.921,-12.0435,-12.1095,-12.1095,-12.1464,-12.1341,-12.1095,-12.1033,-12.1033,-12.1095,-12.1403,-12.171,-12.2141,-12.2695,-12.3311,-12.3706,-12.4975,-12.591,-12.6284,-12.7314,-12.7862,-12.8468,-12.9266,-13.0252,-13.1445,-13.3152,-13.4752,-13.6368,-13.7371,-13.8027,-13.8213,-13.8167,-13.7753,-13.7477,-13.6995,-13.6443,-13.5891,-13.5684,-13.527,-13.4718,-13.4442,-13.4235,-13.3477,-13.2994,-13.2649,-13.2304,-13.189,-13.1559,-13.095,-13.0496,-13.0528,-13.0887,-13.1131,-13.1862,-13.2735,-13.3269,-13.34,-13.3472,-13.2739,-13.2071,-13.1336,-13.1147,-13.1187,-13.1608,-13.2385,-13.3111,-13.3946,-13.4389,-13.4381,-13.3761,-13.2942,-13.2224,-13.1821,-13.1718,-13.1718,-13.1718,-13.1718,-13.1718,-13.1768,-13.1915,-13.2026,-13.2334,-13.2667,-13.3028,-13.3259,-13.3518,-13.3674,-8.9281,-9.2049,-9.3395,-9.4197,-9.4994,-9.4994,-9.4994,-9.4994,-9.4994,-9.5524,-9.6364,-9.7575,-9.913,-10.0922,-10.2942,-10.4436,-10.5668,-10.6401,-10.7021,-10.7021,-10.7798,-10.8717,-10.9963,-11.17,-11.3813,-11.6006,-11.7802,-11.9305,-12.0422,-12.1172,-12.1464,-12.1587,-12.1587,-12.1526,-12.1587,-12.1587,-12.1526,-12.1526,-12.208,-12.2449,-12.2695,-12.3311,-12.4111,-12.5028,-12.5845,-12.6783,-12.7637,-12.8447,-12.919,-12.9316,-13.0333,-13.1023,-13.1917,-13.312,-13.4669,-13.6538,-13.7752,-13.8482,-13.8971,-13.8857,-13.8443,-13.7753,-13.7615,-13.7201,-13.6719,-13.6581,-13.6374,-13.5891,-13.5546,-13.5201,-13.4235,-13.3546,-13.3132,-13.2718,-13.2166,-13.1559,-13.125,-13.0999,-13.1166,-13.1157,-13.1648,-13.2415,-13.3427,-13.4162,-13.428,-13.4166,-13.3539,-13.2731,-13.1924,-13.1617,-13.1656,-13.1959,-13.2626,-13.3703,-13.4552,-13.4973,-13.4863,-13.4263,-13.3363,-13.2685,-13.2128,-13.1795,-13.1718,-13.1718,-13.1718,-13.1718,-13.1818,-13.201,-13.2203,-13.2451,-13.2799,-13.3163,-13.3366,-13.3596,-13.3658,-8.9555,-9.2049,-9.3395,-9.4463,-9.4994,-9.4994,-9.4994,-9.4994,-9.5524,-9.6315,-9.7102,-9.8404,-10.0157,-10.1936,-10.3442,-10.5177,-10.6455,-10.7183,-10.7183,-10.7425,-10.7908,-10.901,-11.0668,-11.2788,-11.5122,-11.7304,-11.893,-11.982,-12.0815,-12.138,-12.1649,-12.1587,-12.1587,-12.1587,-12.1587,-12.1587,-12.1587,-12.171,-12.2326,-12.2695,-12.2942,-12.3865,-12.5001,-12.6043,-12.6738,-12.7741,-12.866,-12.9535,-13.0138,-13.0707,-13.1389,-13.2152,-13.2968,-13.4172,-13.5556,-13.7026,-13.8475,-13.9415,-13.9936,-13.9754,-13.9547,-13.9202,-13.8719,-13.8029,-13.7615,-13.7684,-13.7477,-13.7201,-13.6788,-13.6443,-13.5063,-13.4235,-13.3477,-13.2925,-13.2319,-13.1711,-13.1468,-13.1575,-13.1939,-13.2044,-13.2434,-13.271,-13.385,-13.4533,-13.4683,-13.4459,-13.3979,-13.3098,-13.2249,-13.2088,-13.2273,-13.2534,-13.3014,-13.4103,-13.5261,-13.559,-13.5581,-13.4858,-13.411,-13.343,-13.282,-13.2102,-13.1795,-13.1718,-13.1768,-13.1768,-13.1915,-13.2103,-13.2371,-13.2598,-13.2921,-13.3282,-13.3422,-13.3622,-13.3711,-9.0375,-9.2589,-9.393,-9.4729,-9.4994,-9.4994,-9.4994,-9.4994,-9.5837,-9.6578,-9.7885,-9.918,-10.0973,-10.2691,-10.4241,-10.5721,-10.6941,-10.7183,-10.7183,-10.7425,-10.8148,-10.9649,-11.153,-11.3875,-11.6711,-11.9116,-12.0575,-12.1126,-12.1724,-12.1933,-12.1957,-12.1649,-12.1587,-12.1587,-12.1587,-12.1587,-12.1649,-12.1834,-12.2572,-12.3126,-12.325,-12.4481,-12.5679,-12.6812,-12.7696,-12.8429,-12.9622,-13.0373,-13.077,-13.1023,-13.15,-13.2321,-13.3276,-13.4723,-13.6085,-13.746,-13.8806,-13.9802,-14.0364,-14.028,-14.0168,-13.9685,-13.934,-13.8788,-13.8305,-13.8236,-13.8374,-13.8029,-13.7546,-13.7132,-13.6374,-13.4925,-13.3959,-13.3339,-13.2595,-13.2012,-13.198,-13.2641,-13.2842,-13.3131,-13.3512,-13.3842,-13.408,-13.4571,-13.4938,-13.4679,-13.442,-13.3571,-13.2573,-13.2559,-13.2816,-13.3061,-13.3491,-13.4474,-13.5471,-13.5857,-13.6024,-13.5376,-13.4912,-13.4176,-13.3436,-13.2718,-13.2102,-13.1795,-13.1768,-13.1867,-13.1933,-13.2116,-13.2412,-13.2735,-13.3006,-13.3304,-13.3535,-13.3725,-13.3718,-9.1191,-9.3127,-9.4463,-9.4994,-9.4994,-9.4994,-9.4994,-9.5259,-9.6052,-9.7102,-9.8095,-9.9901,-10.1683,-10.3494,-10.4984,-10.6211,-10.7183,-10.7292,-10.74,-10.7939,-10.9307,-11.0915,-11.3302,-11.5762,-11.831,-12.0891,-12.2251,-12.28,-12.2732,-12.2819,-12.2511,-12.2326,-12.208,-12.1895,-12.2164,-12.2141,-12.1957,-12.2388,-12.3126,-12.3804,-12.4296,-12.522,-12.6296,-12.7494,-12.8256,-12.9116,-13.0375,-13.1067,-13.1465,-13.1591,-13.2071,-13.2563,-13.3315,-13.4851,-13.6465,-13.7738,-13.9132,-13.9804,-14.0169,-14.0625,-14.0513,-14.0099,-13.9961,-13.9478,-13.8995,-13.8788,-13.8788,-13.865,-13.8098,-13.7546,-13.6995,-13.527,-13.4235,-13.3769,-13.3108,-13.238,-13.2842,-13.3485,-13.4227,-13.4565,-13.4727,-13.4922,-13.515,-13.5194,-13.556,-13.512,-13.4787,-13.4117,-13.3265,-13.3148,-13.3334,-13.3571,-13.4027,-13.491,-13.5537,-13.5919,-13.6024,-13.574,-13.5296,-13.4844,-13.4051,-13.3256,-13.2718,-13.2179,-13.1963,-13.198,-13.2116,-13.2288,-13.2562,-13.2862,-13.3137,-13.3403,-13.3581,-13.3736,-13.3711,-9.2319,-9.393,-9.4729,-9.4994,-9.4994,-9.4994,-9.4994,-9.5259,-9.6315,-9.7363,-9.8354,-10.0668,-10.2691,-10.4188,-10.5966,-10.6941,-10.7346,-10.7672,-10.8132,-10.886,-11.0505,-11.2464,-11.4681,-11.7083,-11.9467,-12.199,-12.3197,-12.3474,-12.3531,-12.3557,-12.3434,-12.325,-12.3126,-12.3336,-12.3113,-12.3089,-12.3373,-12.3496,-12.4111,-12.4789,-12.5404,-12.6143,-12.6728,-12.768,-12.8755,-12.9804,-13.1066,-13.1824,-13.216,-13.2792,-13.2855,-13.3548,-13.4378,-13.5133,-13.6548,-13.8006,-13.9207,-13.9872,-14.0169,-14.046,-14.0788,-14.0581,-14.0581,-14.0237,-13.9823,-13.9547,-13.9547,-13.9547,-13.8788,-13.8098,-13.727,-13.5339,-13.4304,-13.3631,-13.3108,-13.2946,-13.3191,-13.4325,-13.5126,-13.6079,-13.6421,-13.6146,-13.6145,-13.6257,-13.6255,-13.5741,-13.5154,-13.4411,-13.3766,-13.3728,-13.3856,-13.409,-13.4477,-13.527,-13.5743,-13.6057,-13.6084,-13.597,-13.5812,-13.5435,-13.4795,-13.4026,-13.3333,-13.2846,-13.255,-13.2237,-13.2288,-13.2451,-13.2735,-13.3028,-13.3314,-13.35,-13.3635,-13.3678,-13.3718,-9.3395,-9.393,-9.4729,-9.4994,-9.4994,-9.4994,-9.5259,-9.5788,-9.6578,-9.7885,-9.9387,-10.1176,-10.3442,-10.5177,-10.6698,-10.7183,-10.7346,-10.7835,-10.8593,-10.9485,-11.1077,-11.3321,-11.5833,-11.8356,-12.0789,-12.2814,-12.4145,-12.4944,-12.4727,-12.4358,-12.405,-12.368,-12.3619,-12.3496,-12.3792,-12.3706,-12.3531,-12.3838,-12.4268,-12.5035,-12.5712,-12.6328,-12.7098,-12.8114,-12.9377,-13.0491,-13.1631,-13.2518,-13.2792,-13.3235,-13.3235,-13.3592,-13.4427,-13.5122,-13.6213,-13.7386,-13.8522,-13.9443,-14.0212,-14.0404,-14.0529,-14.0788,-14.0788,-14.065,-14.0375,-14.0306,-14.0306,-14.0306,-13.9202,-13.8443,-13.7615,-13.5546,-13.4442,-13.37,-13.3108,-13.3528,-13.3976,-13.5096,-13.6093,-13.7033,-13.7917,-13.7411,-13.6915,-13.6551,-13.6255,-13.5668,-13.5261,-13.4811,-13.4123,-13.3651,-13.4051,-13.4625,-13.4973,-13.5547,-13.5807,-13.6117,-13.616,-13.6258,-13.6481,-13.6051,-13.5488,-13.4795,-13.418,-13.3561,-13.3137,-13.2821,-13.2605,-13.2667,-13.295,-13.3188,-13.3403,-13.3551,-13.3736,-13.3729,-13.375,-9.393,-9.4197,-9.4729,-9.4994,-9.4994,-9.4994,-9.5524,-9.61,-9.7102,-9.8404,-10.0412,-10.2188,-10.4436,-10.6211,-10.6941,-10.7183,-10.7238,-10.8187,-10.9,-11.0244,-11.2131,-11.4889,-11.751,-12.0026,-12.2053,-12.4137,-12.4944,-12.5589,-12.5466,-12.5158,-12.4665,-12.4111,-12.4358,-12.4235,-12.4173,-12.4296,-12.4268,-12.4301,-12.4699,-12.5281,-12.5774,-12.6574,-12.7406,-12.8394,-12.9785,-13.1178,-13.1983,-13.2748,-13.3171,-13.3235,-13.3235,-13.3382,-13.4011,-13.4776,-13.6007,-13.7135,-13.8381,-13.9498,-14.0103,-14.045,-14.0502,-14.0625,-14.0788,-14.0788,-14.0788,-14.0788,-14.0788,-14.0719,-13.934,-13.8719,-13.796,-13.5891,-13.4649,-13.3992,-13.3618,-13.396,-13.4401,-13.5506,-13.6627,-13.7746,-13.8227,-13.8151,-13.765,-13.6953,-13.6329,-13.5594,-13.5187,-13.4958,-13.4567,-13.4121,-13.4324,-13.4897,-13.5328,-13.5679,-13.5933,-13.6177,-13.6296,-13.6468,-13.6635,-13.6642,-13.6103,-13.5616,-13.5001,-13.4458,-13.3847,-13.3535,-13.3375,-13.3289,-13.311,-13.3304,-13.3482,-13.3581,-13.3756,-13.3738,-13.3828,-9.4197,-9.4994,-9.4994,-9.4994,-9.4994,-9.4994,-9.5524,-9.6364,-9.7624,-9.8872,-10.0922,-10.3442,-10.5721,-10.6698,-10.7183,-10.7183,-10.7238,-10.9164,-11.0167,-11.2058,-11.4756,-11.7042,-11.9302,-12.1461,-12.3358,-12.4572,-12.5497,-12.5712,-12.5712,-12.5589,-12.5466,-12.5527,-12.522,-12.5404,-12.5404,-12.522,-12.522,-12.519,-12.5466,-12.5527,-12.602,-12.6759,-12.7559,-12.8146,-12.9942,-13.1463,-13.1678,-13.2535,-13.3171,-13.3171,-13.3235,-13.3446,-13.3802,-13.4633,-13.5668,-13.7006,-13.7967,-13.919,-14.0416,-14.0588,-14.057,-14.0694,-14.0857,-14.0926,-14.0788,-14.0788,-14.0788,-14.065,-13.9409,-13.865,-13.7891,-13.6581,-13.4787,-13.42,-13.3977,-13.4246,-13.4893,-13.5909,-13.7013,-13.8257,-13.8578,-13.8305,-13.7723,-13.6989,-13.6255,-13.5594,-13.5535,-13.5225,-13.5302,-13.4909,-13.486,-13.5117,-13.5471,-13.5743,-13.6057,-13.6237,-13.6354,-13.6524,-13.6689,-13.6796,-13.6694,-13.6155,-13.5795,-13.5421,-13.484,-13.452,-13.4097,-13.3859,-13.3616,-13.3522,-13.3629,-13.3658,-13.3704,-13.3742,-13.3828,-9.4729,-9.4994,-9.4994,-9.4994,-9.4994,-9.5524,-9.6052,-9.684,-9.8145,-10.0412,-10.2691,-10.493,-10.6211,-10.6941,-10.7183,-10.7183,-10.7292,-10.8782,-11.0244,-11.2242,-11.4766,-11.7509,-12.0046,-12.2088,-12.3699,-12.4789,-12.5497,-12.5712,-12.5712,-12.5712,-12.5712,-12.5712,-12.5712,-12.5712,-12.5712,-12.5712,-12.5712,-12.5712,-12.5712,-12.5712,-12.5897,-12.6512,-12.7313,-12.7805,-12.9137,-13.0656,-13.1338,-13.2284,-13.2834,-13.3171,-13.3235,-13.3446,-13.3592,-13.4427,-13.5391,-13.6538,-13.7526,-13.8913,-14.0372,-14.0821,-14.1198,-14.1383,-14.1478,-14.134,-14.0926,-14.0857,-14.0788,-14.0375,-13.9478,-13.8719,-13.8236,-13.6512,-13.4943,-13.4492,-13.4336,-13.4601,-13.5103,-13.6175,-13.7195,-13.8472,-13.8402,-13.8125,-13.743,-13.6769,-13.6182,-13.5521,-13.5639,-13.558,-13.5699,-13.5843,-13.5768,-13.5718,-13.6071,-13.6176,-13.6347,-13.6314,-13.6411,-13.658,-13.6743,-13.6796,-13.69,-13.6974,-13.6531,-13.6221,-13.5859,-13.5379,-13.4925,-13.4395,-13.4009,-13.3752,-13.37,-13.3711,-13.3738,-13.3828,-13.3828,-9.4994,-9.4994,-9.4994,-9.4994,-9.4994,-9.5837,-9.6578,-9.7624,-9.8922,-10.143,-10.4489,-10.5721,-10.6455,-10.6941,-10.7183,-10.7183,-10.7588,-10.8805,-11.056,-11.2846,-11.5302,-11.8031,-12.05,-12.2534,-12.3918,-12.4789,-12.5497,-12.5712,-12.5712,-12.5712,-12.5712,-12.5712,-12.5712,-12.5712,-12.5712,-12.5712,-12.5712,-12.5712,-12.5712,-12.5712,-12.5774,-12.6389,-12.7066,-12.7682,-12.9075,-13.0407,-13.1213,-13.2071,-13.2708,-13.3108,-13.3235,-13.3235,-13.3592,-13.4011,-13.4776,-13.5806,-13.6941,-13.8289,-13.9575,-14.1014,-14.2021,-14.2209,-14.1961,-14.1616,-14.1271,-14.0926,-14.0788,-14.0719,-13.9616,-13.8788,-13.8581,-13.6926,-13.5358,-13.4907,-13.4823,-13.5091,-13.5659,-13.6497,-13.7427,-13.849,-13.8224,-13.787,-13.7394,-13.6804,-13.6282,-13.5725,-13.5851,-13.5993,-13.6454,-13.6639,-13.6827,-13.6792,-13.6823,-13.6774,-13.6714,-13.6602,-13.6488,-13.6689,-13.6796,-13.69,-13.7001,-13.7071,-13.727,-13.6981,-13.6616,-13.6223,-13.5719,-13.5216,-13.4471,-13.3785,-13.3756,-13.375,-13.375,-13.3828,-13.3828,-9.4994,-9.4994,-9.4994,-9.4994,-9.5259,-9.5837,-9.684,-9.8095,-9.9901,-10.2188,-10.4984,-10.5966,-10.6698,-10.7183,-10.7183,-10.7183,-10.7776,-10.9177,-11.1222,-11.3736,-11.6063,-11.9347,-12.1849,-12.3638,-12.4355,-12.5497,-12.5712,-12.5712,-12.5712,-12.5712,-12.5712,-12.5712,-12.5712,-12.5712,-12.5712,-12.5712,-12.5712,-12.5712,-12.5712,-12.5712,-12.5835,-12.6266,-12.6882,-12.7714,-12.8487,-12.9756,-13.0839,-13.1418,-13.2055,-13.2729,-13.2792,-13.2792,-13.2855,-13.3484,-13.4314,-13.5337,-13.6741,-13.8171,-13.9153,-14.119,-14.2158,-14.2554,-14.2168,-14.1754,-14.1616,-14.1271,-14.0788,-14.0719,-14.003,-13.9271,-13.8581,-13.7684,-13.6343,-13.5561,-13.5471,-13.5661,-13.615,-13.6757,-13.7674,-13.8345,-13.8086,-13.7723,-13.7318,-13.6764,-13.6272,-13.602,-13.6023,-13.6481,-13.7119,-13.7569,-13.7958,-13.7851,-13.7881,-13.7678,-13.7479,-13.6756,-13.6545,-13.6766,-13.69,-13.7001,-13.7148,-13.7303,-13.7405,-13.7555,-13.743,-13.7052,-13.6523,-13.6015,-13.5248,-13.4571,-13.3958,-13.375,-13.3828,-13.3828,-13.3828,-9.4994,-9.4994,-9.4994,-9.5259,-9.5788,-9.6578,-9.7363,-9.8613,-10.143,-10.394,-10.5721,-10.6455,-10.6941,-10.7183,-10.7183,-10.7425,-10.8017,-10.8737,-11.1014,-11.4383,-11.6583,-11.9564,-12.2234,-12.4137,-12.4789,-12.5497,-12.5712,-12.5712,-12.5712,-12.5712,-12.5712,-12.5712,-12.5712,-12.5712,-12.5712,-12.5712,-12.5712,-12.5712,-12.5712,-12.5712,-12.5712,-12.5958,-12.6389,-12.7066,-12.7591,-12.8672,-13.0215,-13.0454,-13.1152,-13.1761,-13.1907,-13.1844,-13.1907,-13.2324,-13.2881,-13.3838,-13.5042,-13.68,-13.8789,-14.0956,-14.1952,-14.2112,-14.2168,-14.1685,-14.1271,-14.0995,-14.0857,-14.065,-14.0099,-13.9409,-13.8581,-13.7822,-13.6827,-13.6061,-13.5979,-13.6303,-13.6707,-13.7244,-13.7869,-13.8199,-13.8159,-13.7614,-13.7171,-13.6871,-13.645,-13.6543,-13.6609,-13.7351,-13.8052,-13.879,-13.9243,-13.9062,-13.8873,-13.8735,-13.8382,-13.7599,-13.7236,-13.7435,-13.7259,-13.7051,-13.7212,-13.7477,-13.7752,-13.7943,-13.791,-13.7866,-13.7217,-13.6523,-13.6078,-13.5422,-13.4757,-13.4218,-13.4218,-13.4062,-13.3828,-9.4994,-9.4994,-9.4994,-9.5524,-9.61,-9.684,-9.7835,-9.9901,-10.3192,-10.523,-10.6211,-10.6941,-10.7183,-10.7183,-10.7183,-10.7425,-10.8203,-10.938,-11.143,-11.5082,-11.7212,-12.0239,-12.2736,-12.4355,-12.5005,-12.5497,-12.5712,-12.5712,-12.5712,-12.5712,-12.5712,-12.5712,-12.5712,-12.5712,-12.5712,-12.5712,-12.5712,-12.5712,-12.5712,-12.5712,-12.5712,-12.5835,-12.6081,-12.6574,-12.7098,-12.7713,-12.8941,-12.9491,-12.9851,-13.0751,-13.1167,-13.1103,-13.123,-13.15,-13.1912,-13.2461,-13.4138,-13.6194,-13.8533,-14.0035,-14.0892,-14.1452,-14.1754,-14.1685,-14.1202,-14.0995,-14.0857,-14.065,-14.0099,-13.9409,-13.8581,-13.7891,-13.7104,-13.6492,-13.6563,-13.6728,-13.7191,-13.7588,-13.833,-13.8462,-13.8452,-13.7834,-13.7171,-13.683,-13.6554,-13.6964,-13.7246,-13.8069,-13.8756,-13.9402,-13.9999,-13.9893,-13.9703,-13.9424,-13.9072,-13.8519,-13.8214,-13.805,-13.7798,-13.7457,-13.7391,-13.7563,-13.7925,-13.8273,-13.8212,-13.8119,-13.759,-13.7104,-13.6723,-13.6125,-13.5535,-13.5078,-13.4687,-13.4531,-13.4375,-9.4994,-9.4994,-9.4994,-9.5524,-9.61,-9.7151,-9.9438,-10.2188,-10.4188,-10.5476,-10.6211,-10.6941,-10.7183,-10.7183,-10.7183,-10.7721,-10.8607,-11.0189,-11.2935,-11.5603,-11.8246,-12.0984,-12.3177,-12.4572,-12.5221,-12.5497,-12.5712,-12.5712,-12.5712,-12.5712,-12.5712,-12.5712,-12.5712,-12.5712,-12.5712,-12.5712,-12.5712,-12.5712,-12.5712,-12.5712,-12.5712,-12.5712,-12.602,-12.6328,-12.6574,-12.7404,-12.8505,-12.8991,-12.9747,-13.0436,-13.0977,-13.0833,-13.0896,-13.1023,-13.1437,-13.2205,-13.3944,-13.6031,-13.7908,-13.9084,-14.0139,-14.0969,-14.1478,-14.1685,-14.1547,-14.1064,-14.0857,-14.0581,-14.0168,-13.934,-13.8581,-13.7913,-13.733,-13.7074,-13.6849,-13.7151,-13.7602,-13.8131,-13.8741,-13.9059,-13.893,-13.8458,-13.7647,-13.723,-13.7231,-13.748,-13.7934,-13.8503,-13.9164,-13.9707,-14.0218,-14.0418,-14.0226,-14.0036,-13.9624,-13.9345,-13.8961,-13.8695,-13.841,-13.8061,-13.7906,-13.7752,-13.8082,-13.8322,-13.8472,-13.8356,-13.8041,-13.7748,-13.7426,-13.6875,-13.6562,-13.6015,-13.5703,-13.5703,-13.5547,-9.4658,-9.4994,-9.5524,-9.6052,-9.7151,-9.9481,-10.1738,-10.3691,-10.4824,-10.5805,-10.6941,-10.7183,-10.7183,-10.7183,-10.7183,-10.8181,-10.9417,-11.0999,-11.3509,-11.6411,-11.922,-12.149,-12.3396,-12.4789,-12.5497,-12.5712,-12.5712,-12.5712,-12.5712,-12.5712,-12.5712,-12.5712,-12.5712,-12.5712,-12.5712,-12.5712,-12.5712,-12.5712,-12.5712,-12.5712,-12.5712,-12.5712,-12.5897,-12.602,-12.6081,-12.6909,-12.7758,-12.7969,-12.866,-12.9426,-12.9632,-12.9569,-12.9569,-12.9632,-12.9978,-13.1192,-13.3226,-13.5422,-13.6991,-13.8505,-13.9796,-14.0625,-14.1064,-14.1064,-14.1064,-14.0995,-14.0788,-14.0444,-13.9961,-13.9202,-13.8374,-13.7864,-13.7486,-13.7353,-13.7563,-13.8066,-13.8573,-13.9015,-13.9536,-13.9508,-13.9374,-13.9081,-13.8235,-13.7956,-13.8052,-13.8309,-13.8593,-13.9065,-13.9478,-14.0079,-14.0364,-14.0562,-14.075,-14.0481,-14.0588,-14.0324,-13.9764,-13.9286,-13.8922,-13.8507,-13.7989,-13.7925,-13.8195,-13.849,-13.8638,-13.8721,-13.8632,-13.8319,-13.8007,-13.8281,-13.8047,-13.7343,-13.6797,-13.6718,-13.6562,-9.4417,-9.4706,-9.574,-9.684,-9.8713,-10.1229,-10.3463,-10.4489,-10.5369,-10.6157,-10.7183,-10.7183,-10.7183,-10.7183,-10.7238,-10.8235,-10.9988,-11.1754,-11.4206,-11.7449,-12.0192,-12.2395,-12.4015,-12.5221,-12.5497,-12.5712,-12.5712,-12.5712,-12.5712,-12.5712,-12.5712,-12.5712,-12.5712,-12.5712,-12.5712,-12.5712,-12.5712,-12.5712,-12.5712,-12.5712,-12.5712,-12.5712,-12.5712,-12.5712,-12.5712,-12.6352,-12.6925,-12.7135,-12.7762,-12.859,-12.8795,-12.9,-12.9,-12.9,-12.9408,-13.0879,-13.2773,-13.4788,-13.6611,-13.8437,-13.9796,-14.046,-14.0788,-14.0857,-14.0857,-14.0857,-14.0581,-14.0237,-13.9616,-13.8926,-13.8327,-13.7726,-13.7797,-13.7632,-13.8346,-13.8982,-13.9541,-13.9895,-13.9946,-13.9842,-13.9668,-13.9522,-13.9113,-13.8829,-13.8696,-13.8795,-13.907,-13.9612,-13.9859,-14.0223,-14.0503,-14.0772,-14.0967,-14.1003,-14.1109,-14.0978,-14.0434,-13.98,-13.9433,-13.8904,-13.8258,-13.8082,-13.8322,-13.8587,-13.8774,-13.8763,-13.8795,-13.8812,-13.8672,-13.8906,-13.8906,-13.8281,-13.7812,-13.7812,-13.75,-9.4129,-9.4536,-9.5857,-9.7885,-10.0514,-10.2353,-10.4071,-10.5283,-10.602,-10.6509,-10.7183,-10.7183,-10.7183,-10.7238,-10.7588,-10.8695,-11.0689,-11.2858,-11.5541,-11.8715,-12.1222,-12.3358,-12.4511,-12.5497,-12.5712,-12.5712,-12.5712,-12.5712,-12.5712,-12.5712,-12.5712,-12.5712,-12.5712,-12.5712,-12.5712,-12.5712,-12.5712,-12.5712,-12.5712,-12.5712,-12.5712,-12.5712,-12.5712,-12.5712,-12.5712,-12.5926,-12.6502,-12.6925,-12.7554,-12.8177,-12.859,-12.9,-12.9,-12.9,-12.9611,-13.0751,-13.2643,-13.447,-13.6544,-13.8369,-13.9796,-14.046,-14.0788,-14.0788,-14.0788,-14.0581,-14.0237,-13.9823,-13.9202,-13.8443,-13.7844,-13.7694,-13.7535,-13.8165,-13.8916,-13.9613,-14.0305,-14.0505,-14.0416,-14.0215,-14.0073,-13.9926,-13.999,-13.9701,-13.9682,-13.9596,-13.9716,-14.0233,-14.0236,-14.044,-14.0647,-14.0914,-14.1107,-14.1217,-14.1339,-14.1189,-14.0873,-14.0391,-13.9915,-13.9381,-13.8702,-13.8533,-13.8453,-13.8653,-13.881,-13.885,-13.8873,-13.889,-13.8906,-13.8906,-13.8906,-13.8906,-13.875,-13.8593,-13.8359,-9.3764,-9.5322,-9.7427,-9.9695,-10.1786,-10.3374,-10.473,-10.5966,-10.6752,-10.6995,-10.7183,-10.7183,-10.7183,-10.7238,-10.8157,-10.9562,-11.1612,-11.402,-11.6872,-11.9582,-12.2028,-12.3699,-12.4789,-12.5497,-12.5712,-12.5712,-12.5712,-12.5712,-12.5712,-12.5712,-12.5712,-12.5712,-12.5712,-12.5712,-12.5712,-12.5712,-12.5712,-12.5712,-12.5712,-12.5712,-12.5712,-12.5712,-12.5712,-12.5712,-12.5712,-12.5926,-12.6502,-12.6925,-12.7554,-12.8177,-12.8795,-12.9,-12.9,-12.9,-12.9611,-13.0815,-13.245,-13.447,-13.6298,-13.8369,-13.9796,-14.046,-14.0788,-14.0788,-14.065,-14.0237,-13.9754,-13.9271,-13.8719,-13.796,-13.7429,-13.7278,-13.7632,-13.854,-13.9557,-14.0308,-14.1068,-14.1089,-14.0948,-14.0548,-14.0293,-14.033,-14.0466,-14.0674,-14.0641,-14.0734,-14.0831,-14.0919,-14.0603,-14.0647,-14.0858,-14.1056,-14.1232,-14.1415,-14.1534,-14.1476,-14.1211,-14.0794,-14.0373,-13.9732,-13.9092,-13.8813,-13.8621,-13.8696,-13.8832,-13.8858,-13.8879,-13.8901,-13.8906,-13.8906,-13.8906,-13.8906,-13.8906,-13.875,-13.875,-9.3638,-9.5242,-9.8314,-10.0668,-10.2544,-10.4018,-10.5161,-10.6264,-10.6941,-10.7183,-10.7183,-10.7183,-10.7183,-10.7292,-10.8563,-11.0134,-11.2131,-11.4832,-11.7742,-12.0273,-12.2371,-12.3979,-12.485,-12.5497,-12.5712,-12.5712,-12.5712,-12.5712,-12.5712,-12.5712,-12.5712,-12.5712,-12.5712,-12.5712,-12.5712,-12.5712,-12.565,-12.5712,-12.5712,-12.565,-12.5712,-12.5712,-12.5712,-12.5712,-12.5712,-12.5926,-12.629,-12.6714,-12.7345,-12.797,-12.859,-12.9,-12.9,-12.9204,-12.9813,-13.095,-13.2643,-13.4655,-13.6544,-13.8196,-13.9796,-14.046,-14.0788,-14.0788,-14.0581,-14.0099,-13.9271,-13.8719,-13.8167,-13.7477,-13.7084,-13.7001,-13.7935,-13.8687,-14.0119,-14.1192,-14.183,-14.2096,-14.1648,-14.11,-14.0771,-14.0694,-14.1003,-14.1644,-14.1522,-14.1221,-14.1447,-14.1368,-14.1043,-14.1087,-14.122,-14.1426,-14.1601,-14.1552,-14.1515,-14.1665,-14.1675,-14.1244,-14.0893,-13.99,-13.9182,-13.8959,-13.8774,-13.881,-13.8832,-13.885,-13.8879,-13.8901,-13.8906,-13.8906,-13.8906,-13.8906,-13.8906,-13.8906,-13.8828,-9.3654,-9.532,-9.8934,-10.143,-10.3494,-10.479,-10.5775,-10.6455,-10.6941,-10.7183,-10.7183,-10.7183,-10.7183,-10.7643,-10.8914,-11.043,-11.2664,-11.5766,-11.8667,-12.1296,-12.3219,-12.4477,-12.5282,-12.5712,-12.5712,-12.5712,-12.5712,-12.5712,-12.5712,-12.5712,-12.5712,-12.5712,-12.5712,-12.5712,-12.565,-12.5589,-12.5527,-12.5589,-12.5589,-12.5589,-12.565,-12.5712,-12.5712,-12.5712,-12.5712,-12.5712,-12.6139,-12.6502,-12.7135,-12.7762,-12.8384,-12.8795,-12.9204,-12.9408,-13.0216,-13.1148,-13.3092,-13.4907,-13.6722,-13.8369,-13.9629,-14.046,-14.0625,-14.065,-14.0375,-13.9823,-13.8926,-13.8236,-13.7753,-13.7291,-13.6896,-13.7242,-13.8085,-13.934,-14.0743,-14.199,-14.2446,-14.2781,-14.2162,-14.1467,-14.1139,-14.0875,-14.1359,-14.2065,-14.2266,-14.1929,-14.1828,-14.1523,-14.1418,-14.1698,-14.1973,-14.2102,-14.2352,-14.2089,-14.2111,-14.2058,-14.2289,-14.2041,-14.163,-14.0288,-13.9247,-13.9028,-13.8877,-13.881,-13.8832,-13.885,-13.8873,-13.8898,-13.8906,-13.8906,-13.8906,-13.8906,-13.8906,-13.8906,-13.8906,-9.4595,-9.7369,-10.0462,-10.2691,-10.3993,-10.5496,-10.648,-10.6995,-10.7183,-10.7183,-10.7183,-10.7183,-10.7183,-10.7292,-10.9595,-11.1595,-11.3614,-11.6815,-11.9928,-12.2534,-12.3881,-12.4911,-12.5497,-12.5712,-12.5712,-12.5712,-12.5712,-12.5712,-12.5712,-12.5712,-12.5712,-12.5712,-12.5712,-12.565,-12.5589,-12.5404,-12.5158,-12.5281,-12.5281,-12.5158,-12.565,-12.5712,-12.5712,-12.5712,-12.5712,-12.5712,-12.5926,-12.6714,-12.7135,-12.7554,-12.8384,-12.8795,-12.9204,-12.9611,-13.0216,-13.1345,-13.3283,-13.5025,-13.6833,-13.8405,-13.9591,-14.0349,-14.0444,-14.0513,-14.0168,-13.9754,-13.8926,-13.8236,-13.7546,-13.6946,-13.6776,-13.7479,-13.8384,-14.0052,-14.1623,-14.2482,-14.3119,-14.2854,-14.2275,-14.1579,-14.1066,-14.1056,-14.1462,-14.2111,-14.2837,-14.2783,-14.3121,-14.2877,-14.2165,-14.2442,-14.2726,-14.2917,-14.3041,-14.3512,-14.3818,-14.3191,-14.3098,-14.2948,-14.2274,-14.0842,-13.9739,-13.915,-13.8977,-13.8821,-13.8821,-13.891,-13.8873,-13.8906,-13.8906,-13.8906,-13.8906,-13.8906,-13.8906,-13.8906,-13.8906]}]]